Time,TemperatureF,DewpointF,PressureIn,WindDirection,WindDirectionDegrees,WindSpeedMPH,WindSpeedGustMPH,Humidity,HourlyPrecipIn,Conditions,Clouds,dailyrainin,SoftwareType,DateUTC
2013-06-11 00:00:00,80.2,62.6,30.21,ESE,108,0.0,0.0,55,0.00,,---,0.00,VWS V14.01,2013-06-11 04:00:00,
2013-06-11 00:01:00,80.2,62.6,30.21,ESE,118,0.0,0.0,55,0.00,,---,0.00,VWS V14.01,2013-06-11 04:01:00,
2013-06-11 00:02:00,80.2,62.6,30.21,ESE,118,0.0,0.0,55,0.00,,---,0.00,VWS V14.01,2013-06-11 04:02:00,
2013-06-11 00:03:00,80.2,62.6,30.21,ESE,118,0.0,0.0,55,0.00,,---,0.00,VWS V14.01,2013-06-11 04:03:00,
2013-06-11 00:04:00,79.9,64.3,30.21,East,98,0.0,2.7,59,0.00,,---,0.00,VWS V15.00,2013-06-11 04:04:00,
2013-06-11 00:05:00,79.9,64.3,30.21,East,81,2.7,2.7,59,0.00,,---,0.00,VWS V15.00,2013-06-11 04:05:00,
2013-06-11 00:06:00,79.9,64.3,30.21,East,81,2.7,2.7,59,0.00,,---,0.00,VWS V15.00,2013-06-11 04:06:00,
2013-06-11 00:07:00,79.9,64.3,30.21,SE,124,2.2,2.7,59,0.00,,---,0.00,VWS V15.00,2013-06-11 04:07:00,
2013-06-11 00:08:00,80.1,62.5,30.21,ESE,111,2.7,3.6,55,0.00,,---,0.00,VWS V14.01,2013-06-11 04:08:00,
2013-06-11 00:09:00,79.9,64.8,30.21,ENE,66,0.0,2.7,60,0.00,,---,0.00,VWS V15.00,2013-06-11 04:09:00,
2013-06-11 00:10:00,79.9,64.8,30.21,East,96,2.2,2.7,60,0.00,,---,0.00,VWS V15.00,2013-06-11 04:10:00,
2013-06-11 00:11:00,79.9,64.8,30.21,East,96,2.7,2.7,60,0.00,,---,0.00,VWS V15.00,2013-06-11 04:11:00,
2013-06-11 00:12:00,79.9,64.8,30.21,East,85,2.7,2.7,60,0.00,,---,0.00,VWS V15.00,2013-06-11 04:12:00,
2013-06-11 00:13:00,80.1,63.0,30.21,ESE,121,3.1,3.1,56,0.00,,---,0.00,VWS V14.01,2013-06-11 04:13:00,
2013-06-11 00:14:00,79.9,64.8,30.21,SE,130,2.7,2.7,60,0.00,,---,0.00,VWS V15.00,2013-06-11 04:14:00,
2013-06-11 00:15:00,79.9,64.8,30.21,SE,130,2.7,2.7,60,0.00,,---,0.00,VWS V15.00,2013-06-11 04:15:00,
2013-06-11 00:16:00,79.9,64.8,30.21,East,83,0.0,2.7,60,0.00,,---,0.00,VWS V15.00,2013-06-11 04:16:00,
2013-06-11 00:17:00,79.9,64.8,30.21,East,83,0.0,0.0,60,0.00,,---,0.00,VWS V15.00,2013-06-11 04:17:00,
2013-06-11 00:18:00,80.1,63.0,30.21,ESE,110,3.1,3.1,56,0.00,,---,0.00,VWS V14.01,2013-06-11 04:18:00,
2013-06-11 00:19:00,79.9,64.8,30.21,ESE,121,2.7,2.7,60,0.00,,---,0.00,VWS V15.00,2013-06-11 04:19:00,
2013-06-11 00:20:00,79.9,64.8,30.21,ENE,58,2.7,2.7,60,0.00,,---,0.00,VWS V15.00,2013-06-11 04:20:00,
2013-06-11 00:21:00,80.1,64.9,30.21,ENE,63,2.7,2.7,60,0.00,,---,0.00,VWS V15.00,2013-06-11 04:21:00,
2013-06-11 00:22:00,80.1,64.9,30.21,East,85,0.0,2.7,60,0.00,,---,0.00,VWS V15.00,2013-06-11 04:22:00,
2013-06-11 00:23:00,80.1,63.5,30.21,ENE,73,4.5,4.5,57,0.00,,---,0.00,VWS V14.01,2013-06-11 04:23:00,
2013-06-11 00:24:00,80.1,64.9,30.21,East,85,0.0,0.0,60,0.00,,---,0.00,VWS V15.00,2013-06-11 04:24:00,
2013-06-11 00:25:00,80.1,64.9,30.21,ESE,117,0.0,2.2,60,0.00,,---,0.00,VWS V15.00,2013-06-11 04:25:00,
2013-06-11 00:26:00,80.1,64.9,30.21,ESE,117,0.0,0.0,60,0.00,,---,0.00,VWS V15.00,2013-06-11 04:26:00,
2013-06-11 00:27:00,80.1,64.9,30.21,ESE,118,0.0,0.0,60,0.00,,---,0.00,VWS V15.00,2013-06-11 04:27:00,
2013-06-11 00:28:00,80.1,64.0,30.18,ESE,105,0.0,0.0,58,0.00,,---,0.00,VWS V14.01,2013-06-11 04:28:00,
2013-06-11 00:29:00,80.1,64.9,30.21,ESE,119,0.0,0.0,60,0.00,,---,0.00,VWS V15.00,2013-06-11 04:29:00,
2013-06-11 00:30:00,80.1,64.9,30.21,ESE,118,0.0,0.0,60,0.00,,---,0.00,VWS V15.00,2013-06-11 04:30:00,
2013-06-11 00:31:00,80.1,64.9,30.21,ESE,116,0.0,0.0,60,0.00,,---,0.00,VWS V15.00,2013-06-11 04:31:00,
2013-06-11 00:32:00,80.1,64.9,30.21,ESE,117,0.0,0.0,60,0.00,,---,0.00,VWS V15.00,2013-06-11 04:32:00,
2013-06-11 00:33:00,79.9,64.3,30.18,East,100,0.0,0.0,59,0.00,,---,0.00,VWS V14.01,2013-06-11 04:33:00,
2013-06-11 00:34:00,80.1,64.9,30.21,SE,131,0.0,0.0,60,0.00,,---,0.00,VWS V15.00,2013-06-11 04:34:00,
2013-06-11 00:35:00,80.1,64.9,30.21,East,94,0.0,0.0,60,0.00,,---,0.00,VWS V15.00,2013-06-11 04:35:00,
2013-06-11 00:36:00,80.1,64.9,30.21,East,94,0.0,0.0,60,0.00,,---,0.00,VWS V15.00,2013-06-11 04:36:00,
2013-06-11 00:37:00,80.1,64.9,30.21,East,94,0.0,0.0,60,0.00,,---,0.00,VWS V15.00,2013-06-11 04:37:00,
2013-06-11 00:38:00,79.7,65.1,30.18,SE,128,2.7,3.6,61,0.00,,---,0.00,VWS V14.01,2013-06-11 04:38:00,
2013-06-11 00:39:00,80.1,64.9,30.21,East,94,0.0,0.0,60,0.00,,---,0.00,VWS V15.00,2013-06-11 04:39:00,
2013-06-11 00:40:00,80.1,64.9,30.21,ESE,116,2.7,2.7,60,0.00,,---,0.00,VWS V15.00,2013-06-11 04:40:00,
2013-06-11 00:41:00,80.1,64.9,30.21,SE,129,3.6,3.6,60,0.00,,---,0.00,VWS V15.00,2013-06-11 04:41:00,
2013-06-11 00:42:00,80.1,64.9,30.21,ESE,108,2.7,3.6,60,0.00,,---,0.00,VWS V15.00,2013-06-11 04:42:00,
2013-06-11 00:43:00,79.7,65.1,30.21,ESE,111,3.6,4.0,61,0.00,,---,0.00,VWS V14.01,2013-06-11 04:43:00,
2013-06-11 00:44:00,80.1,64.9,30.21,East,97,0.0,0.0,60,0.00,,---,0.00,VWS V15.00,2013-06-11 04:44:00,
2013-06-11 00:45:00,80.1,64.9,30.21,East,90,2.7,2.7,60,0.00,,---,0.00,VWS V15.00,2013-06-11 04:45:00,
2013-06-11 00:46:00,80.1,64.9,30.21,ENE,77,3.1,3.1,60,0.00,,---,0.00,VWS V15.00,2013-06-11 04:46:00,
2013-06-11 00:47:00,80.2,64.1,30.21,East,100,2.2,3.1,58,0.00,,---,0.00,VWS V15.00,2013-06-11 04:47:00,
2013-06-11 00:48:00,80.2,64.6,30.21,ESE,108,0.0,2.2,59,0.00,,---,0.00,VWS V15.00,2013-06-11 04:48:00,
2013-06-11 00:49:00,79.7,65.1,30.21,East,91,2.7,3.6,61,0.00,,---,0.00,VWS V14.01,2013-06-11 04:49:00,
2013-06-11 00:50:00,80.2,63.6,30.21,ESE,116,3.1,5.4,57,0.00,,---,0.00,VWS V15.00,2013-06-11 04:50:00,
2013-06-11 00:51:00,80.2,63.1,30.21,ESE,109,5.4,5.4,56,0.00,,---,0.00,VWS V15.00,2013-06-11 04:51:00,
2013-06-11 00:52:00,80.2,63.1,30.21,ESE,109,5.4,5.4,56,0.00,,---,0.00,VWS V15.00,2013-06-11 04:52:00,
2013-06-11 00:53:00,80.2,62.6,30.21,East,93,2.7,5.4,55,0.00,,---,0.00,VWS V15.00,2013-06-11 04:53:00,
2013-06-11 00:54:00,79.7,65.1,30.21,SE,132,4.0,4.0,61,0.00,,---,0.00,VWS V14.01,2013-06-11 04:54:00,
2013-06-11 00:55:00,80.2,62.6,30.21,East,87,0.0,0.0,55,0.00,,---,0.00,VWS V15.00,2013-06-11 04:55:00,
2013-06-11 00:56:00,80.2,62.6,30.21,East,87,0.0,0.0,55,0.00,,---,0.00,VWS V15.00,2013-06-11 04:56:00,
2013-06-11 00:57:00,80.2,62.6,30.21,ESE,123,2.7,4.0,55,0.00,,---,0.00,VWS V15.00,2013-06-11 04:57:00,
2013-06-11 00:58:00,79.7,65.1,30.18,East,92,0.0,0.0,61,0.00,,---,0.00,VWS V14.01,2013-06-11 04:58:00,
2013-06-11 00:59:00,80.2,62.6,30.21,ESE,108,3.1,3.1,55,0.00,,---,0.00,VWS V15.00,2013-06-11 04:59:00,
2013-06-11 01:00:00,80.2,62.6,30.21,ESE,108,0.0,3.1,55,0.00,,---,0.00,VWS V15.00,2013-06-11 05:00:00,
2013-06-11 01:01:00,80.2,62.6,30.21,ESE,118,0.0,0.0,55,0.00,,---,0.00,VWS V15.00,2013-06-11 05:01:00,
2013-06-11 01:02:00,80.2,62.6,30.21,ESE,118,0.0,0.0,55,0.00,,---,0.00,VWS V15.00,2013-06-11 05:02:00,
2013-06-11 01:03:00,80.2,62.6,30.21,ESE,118,0.0,0.0,55,0.00,,---,0.00,VWS V15.00,2013-06-11 05:03:00,
2013-06-11 01:04:00,79.9,64.8,30.18,East,92,3.1,4.0,60,0.00,,---,0.00,VWS V14.01,2013-06-11 05:04:00,
2013-06-11 01:05:00,80.1,62.5,30.21,SE,129,3.6,3.6,55,0.00,,---,0.00,VWS V15.00,2013-06-11 05:05:00,
2013-06-11 01:06:00,80.1,62.5,30.21,SE,129,3.6,3.6,55,0.00,,---,0.00,VWS V15.00,2013-06-11 05:06:00,
2013-06-11 01:07:00,80.1,62.5,30.21,ESE,102,0.0,3.6,55,0.00,,---,0.00,VWS V15.00,2013-06-11 05:07:00,
2013-06-11 01:08:00,80.1,62.5,30.21,ESE,111,2.7,3.6,55,0.00,,---,0.00,VWS V15.00,2013-06-11 05:08:00,
2013-06-11 01:09:00,80.1,64.5,30.18,ESE,117,2.7,2.7,59,0.00,,---,0.00,VWS V14.01,2013-06-11 05:09:00,
2013-06-11 01:10:00,80.1,62.5,30.21,ESE,113,2.7,2.7,55,0.00,,---,0.00,VWS V15.00,2013-06-11 05:10:00,
2013-06-11 01:11:00,80.1,62.5,30.21,ESE,121,3.1,3.1,55,0.00,,---,0.00,VWS V15.00,2013-06-11 05:11:00,
2013-06-11 01:12:00,80.1,62.5,30.21,ESE,121,3.1,3.1,55,0.00,,---,0.00,VWS V15.00,2013-06-11 05:12:00,
2013-06-11 01:13:00,80.1,63.0,30.21,East,81,5.4,5.4,56,0.00,,---,0.00,VWS V15.00,2013-06-11 05:13:00,
2013-06-11 01:14:00,80.1,64.5,30.18,East,95,3.6,3.6,59,0.00,,---,0.00,VWS V14.01,2013-06-11 05:14:00,
2013-06-11 01:15:00,80.1,63.5,30.21,NE,56,3.6,4.0,57,0.00,,---,0.00,VWS V15.00,2013-06-11 05:15:00,
2013-06-11 01:16:00,80.1,63.5,30.21,East,97,2.7,3.6,57,0.00,,---,0.00,VWS V15.00,2013-06-11 05:16:00,
2013-06-11 01:17:00,80.1,63.5,30.21,East,97,2.7,2.7,57,0.00,,---,0.00,VWS V15.00,2013-06-11 05:17:00,
2013-06-11 01:18:00,80.1,63.0,30.21,ESE,110,3.1,3.1,56,0.00,,---,0.00,VWS V15.00,2013-06-11 05:18:00,
2013-06-11 01:19:00,80.1,64.0,30.18,East,85,0.0,0.0,58,0.00,,---,0.00,VWS V14.01,2013-06-11 05:19:00,
2013-06-11 01:20:00,80.1,63.0,30.21,ESE,108,0.0,0.0,56,0.00,,---,0.00,VWS V15.00,2013-06-11 05:20:00,
2013-06-11 01:21:00,80.1,63.0,30.21,ESE,108,0.0,0.0,56,0.00,,---,0.00,VWS V15.00,2013-06-11 05:21:00,
2013-06-11 01:22:00,80.1,63.0,30.21,ENE,73,4.5,4.5,56,0.00,,---,0.00,VWS V15.00,2013-06-11 05:22:00,
2013-06-11 01:23:00,80.1,63.5,30.21,ENE,73,4.5,4.5,57,0.00,,---,0.00,VWS V15.00,2013-06-11 05:23:00,
2013-06-11 01:24:00,80.1,63.5,30.18,ESE,111,4.0,4.5,57,0.00,,---,0.00,VWS V14.01,2013-06-11 05:24:00,
2013-06-11 01:25:00,80.1,64.0,30.21,ESE,106,3.1,3.1,58,0.00,,---,0.00,VWS V15.00,2013-06-11 05:25:00,
2013-06-11 01:26:00,80.1,64.0,30.21,ESE,123,3.6,3.6,58,0.00,,---,0.00,VWS V15.00,2013-06-11 05:26:00,
2013-06-11 01:27:00,80.1,64.0,30.18,ESE,123,3.6,3.6,58,0.00,,---,0.00,VWS V15.00,2013-06-11 05:27:00,
2013-06-11 01:28:00,80.1,64.0,30.18,ESE,105,0.0,3.6,58,0.00,,---,0.00,VWS V15.00,2013-06-11 05:28:00,
2013-06-11 01:29:00,79.9,63.8,30.18,SE,125,3.6,3.6,58,0.00,,---,0.00,VWS V14.01,2013-06-11 05:29:00,
2013-06-11 01:30:00,79.9,64.3,30.18,ESE,105,0.0,0.0,59,0.00,,---,0.00,VWS V15.00,2013-06-11 05:30:00,
2013-06-11 01:31:00,79.9,64.3,30.18,ESE,105,0.0,0.0,59,0.00,,---,0.00,VWS V15.00,2013-06-11 05:31:00,
2013-06-11 01:32:00,79.9,64.3,30.18,East,100,0.0,0.0,59,0.00,,---,0.00,VWS V15.00,2013-06-11 05:32:00,
2013-06-11 01:33:00,79.9,64.3,30.18,East,100,0.0,0.0,59,0.00,,---,0.00,VWS V15.00,2013-06-11 05:33:00,
2013-06-11 01:34:00,79.9,63.8,30.18,ENE,78,2.7,2.7,58,0.00,,---,0.00,VWS V14.01,2013-06-11 05:34:00,
2013-06-11 01:35:00,79.9,64.3,30.18,ESE,107,0.0,0.0,59,0.00,,---,0.00,VWS V15.00,2013-06-11 05:35:00,
2013-06-11 01:36:00,79.9,64.3,30.18,ESE,107,0.0,0.0,59,0.00,,---,0.00,VWS V15.00,2013-06-11 05:36:00,
2013-06-11 01:37:00,79.7,64.6,30.18,ESE,107,0.0,0.0,60,0.00,,---,0.00,VWS V15.00,2013-06-11 05:37:00,
2013-06-11 01:38:00,79.7,65.1,30.18,ENE,70,3.6,3.6,61,0.00,,---,0.00,VWS V15.00,2013-06-11 05:38:00,
2013-06-11 01:39:00,79.9,63.8,30.18,ESE,103,0.0,0.0,58,0.00,,---,0.00,VWS V14.01,2013-06-11 05:39:00,
2013-06-11 01:40:00,79.7,65.1,30.18,ESE,113,0.0,2.7,61,0.00,,---,0.00,VWS V15.00,2013-06-11 05:40:00,
2013-06-11 01:41:00,79.7,65.1,30.18,ESE,123,2.2,2.2,61,0.00,,---,0.00,VWS V15.00,2013-06-11 05:41:00,
2013-06-11 01:42:00,79.7,65.1,30.18,ESE,108,5.4,5.4,61,0.00,,---,0.00,VWS V15.00,2013-06-11 05:42:00,
2013-06-11 01:43:00,79.7,65.1,30.21,ESE,113,4.0,5.4,61,0.00,,---,0.00,VWS V15.00,2013-06-11 05:43:00,
2013-06-11 01:44:00,79.9,63.8,30.18,East,92,4.0,4.0,58,0.00,,---,0.00,VWS V14.01,2013-06-11 05:44:00,
2013-06-11 01:45:00,79.7,65.1,30.21,ESE,111,3.6,3.6,61,0.00,,---,0.00,VWS V15.00,2013-06-11 05:45:00,
2013-06-11 01:46:00,79.7,65.1,30.21,ESE,111,3.6,3.6,61,0.00,,---,0.00,VWS V15.00,2013-06-11 05:46:00,
2013-06-11 01:47:00,79.7,65.1,30.21,ENE,76,2.2,3.6,61,0.00,,---,0.00,VWS V15.00,2013-06-11 05:47:00,
2013-06-11 01:48:00,79.7,65.1,30.21,ESE,102,3.6,3.6,61,0.00,,---,0.00,VWS V15.00,2013-06-11 05:48:00,
2013-06-11 01:49:00,79.9,63.8,30.18,SE,133,4.0,4.0,58,0.00,,---,0.00,VWS V14.01,2013-06-11 05:49:00,
2013-06-11 01:50:00,79.7,65.1,30.21,ESE,115,3.6,3.6,61,0.00,,---,0.00,VWS V15.00,2013-06-11 05:50:00,
2013-06-11 01:51:00,79.7,65.1,30.21,East,90,5.4,5.4,61,0.00,,---,0.00,VWS V15.00,2013-06-11 05:51:00,
2013-06-11 01:52:00,79.7,65.1,30.21,ESE,116,3.6,5.4,61,0.00,,---,0.00,VWS V15.00,2013-06-11 05:52:00,
2013-06-11 01:53:00,79.7,65.1,30.21,ESE,105,0.0,3.6,61,0.00,,---,0.00,VWS V15.00,2013-06-11 05:53:00,
2013-06-11 01:54:00,79.7,64.1,30.18,East,94,2.2,2.2,59,0.00,,---,0.00,VWS V14.01,2013-06-11 05:54:00,
2013-06-11 01:55:00,79.7,65.1,30.21,East,81,2.2,4.0,61,0.00,,---,0.00,VWS V15.00,2013-06-11 05:55:00,
2013-06-11 01:56:00,79.7,65.1,30.21,East,92,0.0,2.2,61,0.00,,---,0.00,VWS V15.00,2013-06-11 05:56:00,
2013-06-11 01:57:00,79.7,65.1,30.21,East,92,0.0,0.0,61,0.00,,---,0.00,VWS V15.00,2013-06-11 05:57:00,
2013-06-11 01:58:00,79.7,65.1,30.18,East,92,0.0,0.0,61,0.00,,---,0.00,VWS V15.00,2013-06-11 05:58:00,
2013-06-11 01:59:00,79.7,64.1,30.18,SE,142,3.1,3.1,59,0.00,,---,0.00,VWS V14.01,2013-06-11 05:59:00,
2013-06-11 02:00:00,79.9,65.2,30.18,East,82,3.6,3.6,61,0.00,,---,0.00,VWS V15.00,2013-06-11 06:00:00,
2013-06-11 02:01:00,79.9,65.2,30.18,SE,145,3.1,6.3,61,0.00,,---,0.00,VWS V15.00,2013-06-11 06:01:00,
2013-06-11 02:02:00,79.9,65.2,30.18,East,86,3.1,4.0,61,0.00,,---,0.00,VWS V15.00,2013-06-11 06:02:00,
2013-06-11 02:03:00,79.9,64.8,30.18,East,86,3.1,3.1,60,0.00,,---,0.00,VWS V15.00,2013-06-11 06:03:00,
2013-06-11 02:04:00,79.9,64.8,30.18,East,92,3.1,4.0,60,0.00,,---,0.00,VWS V15.00,2013-06-11 06:04:00,
2013-06-11 02:05:00,79.7,64.6,30.18,East,92,0.0,0.0,60,0.00,,---,0.00,VWS V14.01,2013-06-11 06:05:00,
2013-06-11 02:06:00,79.9,64.8,30.18,SE,135,4.0,4.0,60,0.00,,---,0.00,VWS V15.00,2013-06-11 06:06:00,
2013-06-11 02:07:00,79.9,64.3,30.18,ESE,122,4.0,4.0,59,0.00,,---,0.00,VWS V15.00,2013-06-11 06:07:00,
2013-06-11 02:08:00,80.1,64.5,30.18,East,90,2.7,4.0,59,0.00,,---,0.00,VWS V15.00,2013-06-11 06:08:00,
2013-06-11 02:09:00,80.1,64.5,30.18,ESE,117,2.7,2.7,59,0.00,,---,0.00,VWS V15.00,2013-06-11 06:09:00,
2013-06-11 02:10:00,79.7,64.6,30.18,ESE,108,0.0,5.4,60,0.00,,---,0.00,VWS V14.01,2013-06-11 06:10:00,
2013-06-11 02:11:00,80.1,64.5,30.18,ENE,78,2.7,3.6,59,0.00,,---,0.00,VWS V15.00,2013-06-11 06:11:00,
2013-06-11 02:12:00,80.1,64.5,30.18,ENE,78,2.7,2.7,59,0.00,,---,0.00,VWS V15.00,2013-06-11 06:12:00,
2013-06-11 02:13:00,80.1,64.5,30.18,East,95,3.6,3.6,59,0.00,,---,0.00,VWS V15.00,2013-06-11 06:13:00,
2013-06-11 02:14:00,80.1,64.5,30.18,East,95,3.6,3.6,59,0.00,,---,0.00,VWS V15.00,2013-06-11 06:14:00,
2013-06-11 02:15:00,79.7,65.5,30.18,SE,128,2.2,3.6,62,0.00,,---,0.00,VWS V14.01,2013-06-11 06:15:00,
2013-06-11 02:16:00,80.1,64.0,30.18,ESE,107,2.2,3.6,58,0.00,,---,0.00,VWS V15.00,2013-06-11 06:16:00,
2013-06-11 02:17:00,80.1,64.0,30.18,ESE,120,3.1,3.1,58,0.00,,---,0.00,VWS V15.00,2013-06-11 06:17:00,
2013-06-11 02:18:00,80.1,64.0,30.18,ENE,78,0.0,3.1,58,0.00,,---,0.00,VWS V15.00,2013-06-11 06:18:00,
2013-06-11 02:19:00,80.1,64.0,30.18,East,85,0.0,0.0,58,0.00,,---,0.00,VWS V15.00,2013-06-11 06:19:00,
2013-06-11 02:20:00,79.5,65.4,30.18,SE,124,0.0,0.0,62,0.00,,---,0.00,VWS V14.01,2013-06-11 06:20:00,
2013-06-11 02:21:00,80.1,63.5,30.18,SE,145,4.0,4.0,57,0.00,,---,0.00,VWS V15.00,2013-06-11 06:21:00,
2013-06-11 02:22:00,80.1,63.5,30.18,ESE,113,3.1,4.0,57,0.00,,---,0.00,VWS V15.00,2013-06-11 06:22:00,
2013-06-11 02:23:00,80.1,63.5,30.18,East,93,2.2,3.1,57,0.00,,---,0.00,VWS V15.00,2013-06-11 06:23:00,
2013-06-11 02:24:00,80.1,63.5,30.18,ESE,111,4.0,4.5,57,0.00,,---,0.00,VWS V15.00,2013-06-11 06:24:00,
2013-06-11 02:25:00,79.5,65.8,30.18,ENE,68,4.0,4.0,63,0.00,,---,0.00,VWS V14.01,2013-06-11 06:25:00,
2013-06-11 02:26:00,80.1,63.5,30.18,East,97,3.1,3.1,57,0.00,,---,0.00,VWS V15.00,2013-06-11 06:26:00,
2013-06-11 02:27:00,80.1,63.5,30.18,ENE,59,3.1,3.1,57,0.00,,---,0.00,VWS V15.00,2013-06-11 06:27:00,
2013-06-11 02:28:00,79.9,63.8,30.18,ENE,62,0.0,3.1,58,0.00,,---,0.00,VWS V15.00,2013-06-11 06:28:00,
2013-06-11 02:29:00,79.9,63.8,30.18,SE,125,3.6,3.6,58,0.00,,---,0.00,VWS V15.00,2013-06-11 06:29:00,
2013-06-11 02:30:00,79.5,66.3,30.15,East,85,3.1,3.1,64,0.00,,---,0.00,VWS V14.01,2013-06-11 06:30:00,
2013-06-11 02:31:00,79.9,63.8,30.18,ENE,67,3.1,5.4,58,0.00,,---,0.00,VWS V15.00,2013-06-11 06:31:00,
2013-06-11 02:32:00,79.9,63.8,30.18,ENE,67,3.1,3.1,58,0.00,,---,0.00,VWS V15.00,2013-06-11 06:32:00,
2013-06-11 02:33:00,79.9,63.8,30.18,ENE,78,2.7,3.1,58,0.00,,---,0.00,VWS V15.00,2013-06-11 06:33:00,
2013-06-11 02:34:00,79.9,63.8,30.18,ENE,78,2.7,2.7,58,0.00,,---,0.00,VWS V15.00,2013-06-11 06:34:00,
2013-06-11 02:35:00,79.3,66.6,30.15,East,95,0.0,3.1,65,0.00,,---,0.00,VWS V14.01,2013-06-11 06:35:00,
2013-06-11 02:36:00,79.9,63.8,30.18,ESE,104,3.6,3.6,58,0.00,,---,0.00,VWS V15.00,2013-06-11 06:36:00,
2013-06-11 02:37:00,79.9,63.8,30.18,ESE,104,3.6,3.6,58,0.00,,---,0.00,VWS V15.00,2013-06-11 06:37:00,
2013-06-11 02:38:00,79.9,63.8,30.18,ESE,103,0.0,3.6,58,0.00,,---,0.00,VWS V15.00,2013-06-11 06:38:00,
2013-06-11 02:39:00,79.9,63.8,30.18,ESE,103,0.0,0.0,58,0.00,,---,0.00,VWS V15.00,2013-06-11 06:39:00,
2013-06-11 02:40:00,79.3,66.6,30.15,East,99,2.2,2.2,65,0.00,,---,0.00,VWS V14.01,2013-06-11 06:40:00,
2013-06-11 02:41:00,79.9,63.8,30.18,ESE,109,4.0,4.0,58,0.00,,---,0.00,VWS V15.00,2013-06-11 06:41:00,
2013-06-11 02:42:00,79.9,63.8,30.18,ESE,109,4.0,4.0,58,0.00,,---,0.00,VWS V15.00,2013-06-11 06:42:00,
2013-06-11 02:43:00,79.9,63.8,30.18,ESE,110,2.7,4.0,58,0.00,,---,0.00,VWS V15.00,2013-06-11 06:43:00,
2013-06-11 02:44:00,79.9,63.8,30.18,SE,141,4.0,4.0,58,0.00,,---,0.00,VWS V15.00,2013-06-11 06:44:00,
2013-06-11 02:45:00,79.3,66.6,30.15,East,84,2.2,2.7,65,0.00,,---,0.00,VWS V14.01,2013-06-11 06:45:00,
2013-06-11 02:46:00,79.9,63.8,30.18,East,92,4.0,4.0,58,0.00,,---,0.00,VWS V15.00,2013-06-11 06:46:00,
2013-06-11 02:47:00,79.9,63.8,30.18,East,89,6.3,6.3,58,0.00,,---,0.00,VWS V15.00,2013-06-11 06:47:00,
2013-06-11 02:48:00,79.9,63.8,30.18,SE,133,4.0,6.3,58,0.00,,---,0.00,VWS V15.00,2013-06-11 06:48:00,
2013-06-11 02:49:00,79.9,63.8,30.18,SE,133,4.0,4.0,58,0.00,,---,0.00,VWS V15.00,2013-06-11 06:49:00,
2013-06-11 02:50:00,79.3,66.6,30.15,ESE,108,3.1,3.1,65,0.00,,---,0.00,VWS V14.01,2013-06-11 06:50:00,
2013-06-11 02:51:00,79.9,63.8,30.18,SE,133,4.0,4.0,58,0.00,,---,0.00,VWS V15.00,2013-06-11 06:51:00,
2013-06-11 02:52:00,79.9,63.8,30.18,SE,129,2.7,4.0,58,0.00,,---,0.00,VWS V15.00,2013-06-11 06:52:00,
2013-06-11 02:53:00,79.9,63.8,30.18,East,94,2.2,2.7,58,0.00,,---,0.00,VWS V15.00,2013-06-11 06:53:00,
2013-06-11 02:54:00,79.7,64.1,30.18,East,94,2.2,2.2,59,0.00,,---,0.00,VWS V15.00,2013-06-11 06:54:00,
2013-06-11 02:55:00,79.3,66.6,30.15,East,84,4.0,4.0,65,0.00,,---,0.00,VWS V14.01,2013-06-11 06:55:00,
2013-06-11 02:56:00,79.7,64.1,30.18,ESE,116,3.1,3.1,59,0.00,,---,0.00,VWS V15.00,2013-06-11 06:56:00,
2013-06-11 02:57:00,79.7,64.1,30.18,ESE,116,3.1,3.1,59,0.00,,---,0.00,VWS V15.00,2013-06-11 06:57:00,
2013-06-11 02:58:00,79.7,64.1,30.18,ESE,104,0.0,3.1,59,0.00,,---,0.00,VWS V15.00,2013-06-11 06:58:00,
2013-06-11 02:59:00,79.7,64.1,30.18,SE,142,3.1,3.1,59,0.00,,---,0.00,VWS V15.00,2013-06-11 06:59:00,
2013-06-11 03:00:00,79.3,66.6,30.15,SE,145,0.0,0.0,65,0.00,,---,0.00,VWS V14.01,2013-06-11 07:00:00,
2013-06-11 03:01:00,79.7,64.1,30.18,ESE,110,3.6,3.6,59,0.00,,---,0.00,VWS V15.00,2013-06-11 07:01:00,
2013-06-11 03:02:00,79.7,64.1,30.18,East,100,0.0,3.6,59,0.00,,---,0.00,VWS V15.00,2013-06-11 07:02:00,
2013-06-11 03:03:00,79.7,64.1,30.18,ESE,108,4.0,4.0,59,0.00,,---,0.00,VWS V15.00,2013-06-11 07:03:00,
2013-06-11 03:04:00,79.7,64.1,30.18,East,92,0.0,4.0,59,0.00,,---,0.00,VWS V15.00,2013-06-11 07:04:00,
2013-06-11 03:05:00,79.3,67.0,30.15,East,92,2.2,2.2,66,0.00,,---,0.00,VWS V14.01,2013-06-11 07:05:00,
2013-06-11 03:06:00,79.7,64.6,30.18,ESE,103,0.0,3.1,60,0.00,,---,0.00,VWS V15.00,2013-06-11 07:06:00,
2013-06-11 03:07:00,79.7,64.6,30.18,ENE,58,5.4,5.4,60,0.00,,---,0.00,VWS V15.00,2013-06-11 07:07:00,
2013-06-11 03:08:00,79.7,64.6,30.18,ENE,58,5.4,5.4,60,0.00,,---,0.00,VWS V15.00,2013-06-11 07:08:00,
2013-06-11 03:09:00,79.7,64.6,30.18,ESE,118,5.4,5.4,60,0.00,,---,0.00,VWS V15.00,2013-06-11 07:09:00,
2013-06-11 03:10:00,79.3,67.4,30.15,ESE,107,0.0,0.0,67,0.00,,---,0.00,VWS V14.01,2013-06-11 07:10:00,
2013-06-11 03:11:00,79.7,64.6,30.18,ESE,108,0.0,0.0,60,0.00,,---,0.00,VWS V15.00,2013-06-11 07:11:00,
2013-06-11 03:12:00,79.7,64.6,30.18,East,83,4.0,4.0,60,0.00,,---,0.00,VWS V15.00,2013-06-11 07:12:00,
2013-06-11 03:13:00,79.7,65.5,30.18,ESE,104,3.6,4.0,62,0.00,,---,0.00,VWS V15.00,2013-06-11 07:13:00,
2013-06-11 03:14:00,79.7,65.5,30.18,ESE,104,3.6,3.6,62,0.00,,---,0.00,VWS V15.00,2013-06-11 07:14:00,
2013-06-11 03:15:00,79.2,67.3,30.15,East,84,0.0,0.0,67,0.00,,---,0.00,VWS V14.01,2013-06-11 07:15:00,
2013-06-11 03:16:00,79.7,65.5,30.18,ESE,104,5.4,5.4,62,0.00,,---,0.00,VWS V15.00,2013-06-11 07:16:00,
2013-06-11 03:17:00,79.7,65.5,30.18,ESE,104,2.7,5.4,62,0.00,,---,0.00,VWS V15.00,2013-06-11 07:17:00,
2013-06-11 03:18:00,79.7,65.5,30.18,SE,124,0.0,4.0,62,0.00,,---,0.00,VWS V15.00,2013-06-11 07:18:00,
2013-06-11 03:19:00,79.7,65.5,30.18,SE,124,0.0,0.0,62,0.00,,---,0.00,VWS V15.00,2013-06-11 07:19:00,
2013-06-11 03:20:00,79.2,67.3,30.15,ENE,78,2.7,2.7,67,0.00,,---,0.00,VWS V14.01,2013-06-11 07:20:00,
2013-06-11 03:21:00,79.5,65.4,30.18,SE,124,0.0,0.0,62,0.00,,---,0.00,VWS V15.00,2013-06-11 07:21:00,
2013-06-11 03:22:00,79.5,65.4,30.18,East,92,0.0,0.0,62,0.00,,---,0.00,VWS V15.00,2013-06-11 07:22:00,
2013-06-11 03:23:00,79.5,65.8,30.18,East,92,0.0,0.0,63,0.00,,---,0.00,VWS V15.00,2013-06-11 07:23:00,
2013-06-11 03:24:00,79.5,65.8,30.18,East,92,0.0,0.0,63,0.00,,---,0.00,VWS V15.00,2013-06-11 07:24:00,
2013-06-11 03:25:00,79.2,67.3,30.15,ESE,123,4.0,4.0,67,0.00,,---,0.00,VWS V14.01,2013-06-11 07:25:00,
2013-06-11 03:26:00,79.5,66.3,30.18,ENE,68,4.0,4.0,64,0.00,,---,0.00,VWS V15.00,2013-06-11 07:26:00,
2013-06-11 03:27:00,79.5,66.3,30.15,ENE,68,4.0,4.0,64,0.00,,---,0.00,VWS V15.00,2013-06-11 07:27:00,
2013-06-11 03:28:00,79.5,66.3,30.15,ENE,68,4.0,4.0,64,0.00,,---,0.00,VWS V15.00,2013-06-11 07:28:00,
2013-06-11 03:29:00,79.5,66.3,30.15,ESE,105,2.2,4.0,64,0.00,,---,0.00,VWS V15.00,2013-06-11 07:29:00,
2013-06-11 03:30:00,79.2,67.7,30.15,SE,131,3.6,3.6,68,0.00,,---,0.00,VWS V14.01,2013-06-11 07:30:00,
2013-06-11 03:31:00,79.5,66.3,30.15,East,85,3.1,3.1,64,0.00,,---,0.00,VWS V15.00,2013-06-11 07:31:00,
2013-06-11 03:32:00,79.5,66.3,30.15,East,85,3.1,3.1,64,0.00,,---,0.00,VWS V15.00,2013-06-11 07:32:00,
2013-06-11 03:33:00,79.5,66.3,30.15,SE,130,3.6,3.6,64,0.00,,---,0.00,VWS V15.00,2013-06-11 07:33:00,
2013-06-11 03:34:00,79.3,66.6,30.15,East,95,3.1,3.6,65,0.00,,---,0.00,VWS V15.00,2013-06-11 07:34:00,
2013-06-11 03:35:00,79.2,68.1,30.15,ESE,102,2.2,3.6,69,0.00,,---,0.00,VWS V14.01,2013-06-11 07:35:00,
2013-06-11 03:36:00,79.3,66.6,30.15,SE,136,3.1,3.1,65,0.00,,---,0.00,VWS V15.00,2013-06-11 07:36:00,
2013-06-11 03:37:00,79.3,66.6,30.15,East,92,0.0,3.1,65,0.00,,---,0.00,VWS V15.00,2013-06-11 07:37:00,
2013-06-11 03:38:00,79.3,66.6,30.15,SE,140,0.0,0.0,65,0.00,,---,0.00,VWS V15.00,2013-06-11 07:38:00,
2013-06-11 03:39:00,79.3,66.6,30.15,East,99,2.2,3.6,65,0.00,,---,0.00,VWS V15.00,2013-06-11 07:39:00,
2013-06-11 03:40:00,79.0,67.5,30.15,East,79,2.7,2.7,68,0.00,,---,0.00,VWS V14.01,2013-06-11 07:40:00,
2013-06-11 03:41:00,79.3,66.6,30.15,East,99,2.2,2.2,65,0.00,,---,0.00,VWS V15.00,2013-06-11 07:41:00,
2013-06-11 03:42:00,79.3,66.6,30.15,East,99,2.2,2.2,65,0.00,,---,0.00,VWS V15.00,2013-06-11 07:42:00,
2013-06-11 03:43:00,79.3,66.6,30.15,ESE,116,5.4,5.4,65,0.00,,---,0.00,VWS V15.00,2013-06-11 07:43:00,
2013-06-11 03:44:00,79.3,66.6,30.15,ESE,106,2.7,5.4,65,0.00,,---,0.00,VWS V15.00,2013-06-11 07:44:00,
2013-06-11 03:45:00,79.0,67.5,30.15,SE,144,4.0,4.0,68,0.00,,---,0.00,VWS V14.01,2013-06-11 07:45:00,
2013-06-11 03:46:00,79.3,66.6,30.15,East,84,2.2,2.2,65,0.00,,---,0.00,VWS V15.00,2013-06-11 07:46:00,
2013-06-11 03:47:00,79.3,66.6,30.15,ESE,103,0.0,2.2,65,0.00,,---,0.00,VWS V15.00,2013-06-11 07:47:00,
2013-06-11 03:48:00,79.3,66.6,30.15,ESE,103,0.0,0.0,65,0.00,,---,0.00,VWS V15.00,2013-06-11 07:48:00,
2013-06-11 03:49:00,79.3,66.6,30.15,ESE,108,3.1,3.1,65,0.00,,---,0.00,VWS V15.00,2013-06-11 07:49:00,
2013-06-11 03:50:00,79.2,67.7,30.15,East,99,2.2,2.2,68,0.00,,---,0.00,VWS V14.01,2013-06-11 07:50:00,
2013-06-11 03:51:00,79.3,66.6,30.15,ESE,108,3.1,3.1,65,0.00,,---,0.00,VWS V15.00,2013-06-11 07:51:00,
2013-06-11 03:52:00,79.3,66.6,30.15,ESE,108,3.1,3.1,65,0.00,,---,0.00,VWS V15.00,2013-06-11 07:52:00,
2013-06-11 03:53:00,79.3,66.6,30.15,ESE,104,2.2,3.1,65,0.00,,---,0.00,VWS V15.00,2013-06-11 07:53:00,
2013-06-11 03:54:00,79.3,66.6,30.15,East,95,0.0,2.2,65,0.00,,---,0.00,VWS V15.00,2013-06-11 07:54:00,
2013-06-11 03:55:00,79.2,67.3,30.15,East,92,0.0,0.0,67,0.00,,---,0.00,VWS V14.01,2013-06-11 07:55:00,
2013-06-11 03:56:00,79.3,66.6,30.15,ESE,108,2.7,4.0,65,0.00,,---,0.00,VWS V15.00,2013-06-11 07:56:00,
2013-06-11 03:57:00,79.3,66.6,30.15,ESE,108,2.7,2.7,65,0.00,,---,0.00,VWS V15.00,2013-06-11 07:57:00,
2013-06-11 03:58:00,79.3,66.6,30.15,ESE,106,3.1,3.1,65,0.00,,---,0.00,VWS V15.00,2013-06-11 07:58:00,
2013-06-11 03:59:00,79.3,66.6,30.15,ESE,106,3.1,3.1,65,0.00,,---,0.00,VWS V15.00,2013-06-11 07:59:00,
2013-06-11 04:00:00,79.3,66.6,30.15,SE,145,0.0,3.1,65,0.00,,---,0.00,VWS V15.00,2013-06-11 08:00:00,
2013-06-11 04:01:00,79.2,67.3,30.15,East,89,0.0,3.1,67,0.00,,---,0.00,VWS V14.01,2013-06-11 08:01:00,
2013-06-11 04:02:00,79.3,67.0,30.15,East,92,0.0,0.0,66,0.00,,---,0.00,VWS V15.00,2013-06-11 08:02:00,
2013-06-11 04:03:00,79.3,67.0,30.15,East,92,0.0,0.0,66,0.00,,---,0.00,VWS V15.00,2013-06-11 08:03:00,
2013-06-11 04:04:00,79.3,67.0,30.15,East,92,0.0,0.0,66,0.00,,---,0.00,VWS V15.00,2013-06-11 08:04:00,
2013-06-11 04:05:00,79.3,67.0,30.15,East,92,2.2,2.2,66,0.00,,---,0.00,VWS V15.00,2013-06-11 08:05:00,
2013-06-11 04:06:00,79.2,67.3,30.15,East,95,0.0,0.0,67,0.00,,---,0.00,VWS V14.01,2013-06-11 08:06:00,
2013-06-11 04:07:00,79.2,67.3,30.15,East,79,2.2,2.2,67,0.00,,---,0.00,VWS V15.00,2013-06-11 08:07:00,
2013-06-11 04:08:00,79.2,67.3,30.15,ESE,105,3.1,3.1,67,0.00,,---,0.00,VWS V15.00,2013-06-11 08:08:00,
2013-06-11 04:09:00,79.2,67.3,30.15,SE,128,3.6,3.6,67,0.00,,---,0.00,VWS V15.00,2013-06-11 08:09:00,
2013-06-11 04:10:00,79.3,67.4,30.15,ESE,107,0.0,3.6,67,0.00,,---,0.00,VWS V15.00,2013-06-11 08:10:00,
2013-06-11 04:11:00,79.2,67.3,30.15,SE,127,0.0,0.0,67,0.00,,---,0.00,VWS V14.01,2013-06-11 08:11:00,
2013-06-11 04:12:00,79.3,67.4,30.15,East,94,2.7,2.7,67,0.00,,---,0.00,VWS V15.00,2013-06-11 08:12:00,
2013-06-11 04:13:00,79.2,66.8,30.15,East,96,0.0,2.7,66,0.00,,---,0.00,VWS V15.00,2013-06-11 08:13:00,
2013-06-11 04:14:00,79.2,66.8,30.15,East,81,0.0,0.0,66,0.00,,---,0.00,VWS V15.00,2013-06-11 08:14:00,
2013-06-11 04:15:00,79.2,67.3,30.15,East,84,0.0,0.0,67,0.00,,---,0.00,VWS V15.00,2013-06-11 08:15:00,
2013-06-11 04:16:00,79.0,67.5,30.15,ESE,121,3.1,3.1,68,0.00,,---,0.00,VWS V14.01,2013-06-11 08:16:00,
2013-06-11 04:17:00,79.2,67.3,30.15,East,100,3.1,3.1,67,0.00,,---,0.00,VWS V15.00,2013-06-11 08:17:00,
2013-06-11 04:18:00,79.2,67.3,30.15,East,100,2.7,3.1,67,0.00,,---,0.00,VWS V15.00,2013-06-11 08:18:00,
2013-06-11 04:19:00,79.2,67.3,30.15,ESE,103,2.7,2.7,67,0.00,,---,0.00,VWS V15.00,2013-06-11 08:19:00,
2013-06-11 04:20:00,79.2,67.3,30.15,ENE,78,2.7,2.7,67,0.00,,---,0.00,VWS V15.00,2013-06-11 08:20:00,
2013-06-11 04:21:00,79.0,67.5,30.15,SE,130,2.7,4.0,68,0.00,,---,0.00,VWS V14.01,2013-06-11 08:21:00,
2013-06-11 04:22:00,79.2,67.3,30.15,ESE,114,2.2,3.6,67,0.00,,---,0.00,VWS V15.00,2013-06-11 08:22:00,
2013-06-11 04:23:00,79.2,67.3,30.15,ESE,114,0.0,2.2,67,0.00,,---,0.00,VWS V15.00,2013-06-11 08:23:00,
2013-06-11 04:24:00,79.2,67.3,30.15,ESE,115,0.0,0.0,67,0.00,,---,0.00,VWS V15.00,2013-06-11 08:24:00,
2013-06-11 04:25:00,79.2,67.3,30.15,ESE,115,0.0,0.0,67,0.00,,---,0.00,VWS V15.00,2013-06-11 08:25:00,
2013-06-11 04:26:00,79.2,66.8,30.15,SE,128,3.1,3.1,66,0.00,,---,0.00,VWS V14.01,2013-06-11 08:26:00,
2013-06-11 04:27:00,79.2,67.3,30.15,ESE,112,0.0,0.0,67,0.00,,---,0.00,VWS V15.00,2013-06-11 08:27:00,
2013-06-11 04:28:00,79.2,67.7,30.15,ESE,107,0.0,0.0,68,0.00,,---,0.00,VWS V15.00,2013-06-11 08:28:00,
2013-06-11 04:29:00,79.2,67.7,30.15,East,83,2.7,2.7,68,0.00,,---,0.00,VWS V15.00,2013-06-11 08:29:00,
2013-06-11 04:30:00,79.2,67.7,30.15,East,83,0.0,2.7,68,0.00,,---,0.00,VWS V15.00,2013-06-11 08:30:00,
2013-06-11 04:31:00,79.3,66.1,30.15,SE,138,3.1,3.1,64,0.00,,---,0.00,VWS V14.01,2013-06-11 08:31:00,
2013-06-11 04:32:00,79.0,67.5,30.15,ENE,72,2.7,3.6,68,0.00,,---,0.00,VWS V15.00,2013-06-11 08:32:00,
2013-06-11 04:33:00,79.0,67.5,30.15,East,79,0.0,2.7,68,0.00,,---,0.00,VWS V15.00,2013-06-11 08:33:00,
2013-06-11 04:34:00,79.0,67.5,30.15,ESE,115,0.0,0.0,68,0.00,,---,0.00,VWS V15.00,2013-06-11 08:34:00,
2013-06-11 04:35:00,79.2,68.1,30.15,NNE,17,0.0,0.0,69,0.00,,---,0.00,VWS V15.00,2013-06-11 08:35:00,
2013-06-11 04:36:00,79.5,66.3,30.15,ESE,116,2.7,5.4,64,0.00,,---,0.00,VWS V14.01,2013-06-11 08:36:00,
2013-06-11 04:37:00,79.2,68.1,30.15,East,90,2.7,2.7,69,0.00,,---,0.00,VWS V15.00,2013-06-11 08:37:00,
2013-06-11 04:38:00,79.2,68.1,30.15,East,93,0.0,2.7,69,0.00,,---,0.00,VWS V15.00,2013-06-11 08:38:00,
2013-06-11 04:39:00,79.2,68.1,30.15,East,93,0.0,0.0,69,0.00,,---,0.00,VWS V15.00,2013-06-11 08:39:00,
2013-06-11 04:40:00,79.0,67.5,30.15,East,93,0.0,0.0,68,0.00,,---,0.00,VWS V15.00,2013-06-11 08:40:00,
2013-06-11 04:41:00,79.5,65.8,30.15,SE,134,2.7,2.7,63,0.00,,---,0.00,VWS V14.01,2013-06-11 08:41:00,
2013-06-11 04:42:00,79.0,67.5,30.15,ENE,78,3.1,3.1,68,0.00,,---,0.00,VWS V15.00,2013-06-11 08:42:00,
2013-06-11 04:43:00,79.0,67.5,30.15,ENE,78,3.1,3.1,68,0.00,,---,0.00,VWS V15.00,2013-06-11 08:43:00,
2013-06-11 04:44:00,79.0,67.5,30.15,East,92,0.0,3.1,68,0.00,,---,0.00,VWS V15.00,2013-06-11 08:44:00,
2013-06-11 04:45:00,79.0,67.5,30.15,SE,144,4.0,4.0,68,0.00,,---,0.00,VWS V15.00,2013-06-11 08:45:00,
2013-06-11 04:46:00,79.5,66.3,30.15,SSE,154,4.0,4.0,64,0.00,,---,0.00,VWS V14.01,2013-06-11 08:46:00,
2013-06-11 04:47:00,79.0,67.5,30.15,SE,144,4.0,4.0,68,0.00,,---,0.00,VWS V15.00,2013-06-11 08:47:00,
2013-06-11 04:48:00,79.2,67.7,30.15,SE,141,0.0,4.0,68,0.00,,---,0.00,VWS V15.00,2013-06-11 08:48:00,
2013-06-11 04:49:00,79.2,67.7,30.15,SE,141,0.0,0.0,68,0.00,,---,0.00,VWS V15.00,2013-06-11 08:49:00,
2013-06-11 04:50:00,79.2,67.7,30.15,SE,141,0.0,0.0,68,0.00,,---,0.00,VWS V15.00,2013-06-11 08:50:00,
2013-06-11 04:51:00,79.5,66.3,30.15,SE,124,4.0,4.0,64,0.00,,---,0.00,VWS V14.01,2013-06-11 08:51:00,
2013-06-11 04:52:00,79.2,67.7,30.15,East,99,0.0,0.0,68,0.00,,---,0.00,VWS V15.00,2013-06-11 08:52:00,
2013-06-11 04:53:00,79.2,67.7,30.15,East,94,0.0,0.0,68,0.00,,---,0.00,VWS V15.00,2013-06-11 08:53:00,
2013-06-11 04:54:00,79.2,67.3,30.15,East,94,0.0,0.0,67,0.00,,---,0.00,VWS V15.00,2013-06-11 08:54:00,
2013-06-11 04:55:00,79.2,67.3,30.15,East,92,0.0,0.0,67,0.00,,---,0.00,VWS V15.00,2013-06-11 08:55:00,
2013-06-11 04:56:00,79.3,66.1,30.15,SSE,153,3.6,3.6,64,0.00,,---,0.00,VWS V14.01,2013-06-11 08:56:00,
2013-06-11 04:57:00,79.2,67.3,30.15,East,92,0.0,0.0,67,0.00,,---,0.00,VWS V15.00,2013-06-11 08:57:00,
2013-06-11 04:58:00,79.2,67.3,30.15,East,92,0.0,0.0,67,0.00,,---,0.00,VWS V15.00,2013-06-11 08:58:00,
2013-06-11 04:59:00,79.2,67.3,30.15,ESE,119,3.1,3.1,67,0.00,,---,0.00,VWS V15.00,2013-06-11 08:59:00,
2013-06-11 05:00:00,79.2,67.3,30.15,ESE,119,3.1,3.1,67,0.00,,---,0.00,VWS V15.00,2013-06-11 09:00:00,
2013-06-11 05:01:00,79.2,67.3,30.15,East,89,0.0,3.1,67,0.00,,---,0.00,VWS V15.00,2013-06-11 09:01:00,
2013-06-11 05:02:00,79.3,66.1,30.15,ESE,107,0.0,4.0,64,0.00,,---,0.00,VWS V14.01,2013-06-11 09:02:00,
2013-06-11 05:03:00,79.2,67.3,30.15,NE,54,2.7,3.1,67,0.00,,---,0.00,VWS V15.00,2013-06-11 09:03:00,
2013-06-11 05:04:00,79.2,67.3,30.15,NE,54,2.7,2.7,67,0.00,,---,0.00,VWS V15.00,2013-06-11 09:04:00,
2013-06-11 05:05:00,79.2,67.3,30.15,East,81,0.0,2.7,67,0.00,,---,0.00,VWS V15.00,2013-06-11 09:05:00,
2013-06-11 05:06:00,79.2,67.3,30.15,East,95,0.0,0.0,67,0.00,,---,0.00,VWS V15.00,2013-06-11 09:06:00,
2013-06-11 05:07:00,79.0,66.2,30.15,NE,51,2.7,2.7,65,0.00,,---,0.00,VWS V14.01,2013-06-11 09:07:00,
2013-06-11 05:08:00,79.2,67.3,30.15,ESE,119,0.0,0.0,67,0.00,,---,0.00,VWS V15.00,2013-06-11 09:08:00,
2013-06-11 05:09:00,79.2,67.3,30.15,SE,133,0.0,0.0,67,0.00,,---,0.00,VWS V15.00,2013-06-11 09:09:00,
2013-06-11 05:10:00,79.2,67.3,30.15,SE,127,0.0,0.0,67,0.00,,---,0.00,VWS V15.00,2013-06-11 09:10:00,
2013-06-11 05:11:00,79.2,67.3,30.15,SE,127,0.0,0.0,67,0.00,,---,0.00,VWS V15.00,2013-06-11 09:11:00,
2013-06-11 05:12:00,78.8,66.9,30.15,ESE,118,0.0,0.0,67,0.00,,---,0.00,VWS V14.01,2013-06-11 09:12:00,
2013-06-11 05:13:00,79.0,67.1,30.15,ESE,120,4.9,4.9,67,0.00,,---,0.00,VWS V15.00,2013-06-11 09:13:00,
2013-06-11 05:14:00,79.0,67.5,30.15,ESE,120,4.9,4.9,68,0.00,,---,0.00,VWS V15.00,2013-06-11 09:14:00,
2013-06-11 05:15:00,79.0,67.5,30.15,ENE,75,2.7,4.9,68,0.00,,---,0.00,VWS V15.00,2013-06-11 09:15:00,
2013-06-11 05:16:00,79.0,67.5,30.15,ESE,121,3.1,3.1,68,0.00,,---,0.00,VWS V15.00,2013-06-11 09:16:00,
2013-06-11 05:17:00,78.8,66.9,30.15,ESE,109,0.0,0.0,67,0.00,,---,0.00,VWS V14.01,2013-06-11 09:17:00,
2013-06-11 05:18:00,79.0,67.5,30.15,East,96,0.0,0.0,68,0.00,,---,0.00,VWS V15.00,2013-06-11 09:18:00,
2013-06-11 05:19:00,79.0,67.5,30.15,SE,125,3.6,4.0,68,0.00,,---,0.00,VWS V15.00,2013-06-11 09:19:00,
2013-06-11 05:20:00,79.0,67.5,30.15,ESE,113,4.0,4.0,68,0.00,,---,0.00,VWS V15.00,2013-06-11 09:20:00,
2013-06-11 05:21:00,79.0,67.5,30.15,SE,130,2.7,4.0,68,0.00,,---,0.00,VWS V15.00,2013-06-11 09:21:00,
2013-06-11 05:22:00,78.4,67.0,30.15,East,92,0.0,0.0,68,0.00,,---,0.00,VWS V14.01,2013-06-11 09:22:00,
2013-06-11 05:23:00,79.2,67.7,30.15,SE,128,3.6,3.6,68,0.00,,---,0.00,VWS V15.00,2013-06-11 09:23:00,
2013-06-11 05:24:00,79.2,67.3,30.15,ESE,119,2.7,3.6,67,0.00,,---,0.00,VWS V15.00,2013-06-11 09:24:00,
2013-06-11 05:25:00,79.2,67.3,30.15,ESE,106,4.0,5.4,67,0.00,,---,0.00,VWS V15.00,2013-06-11 09:25:00,
2013-06-11 05:26:00,79.2,66.8,30.15,SE,128,3.1,4.0,66,0.00,,---,0.00,VWS V15.00,2013-06-11 09:26:00,
2013-06-11 05:27:00,78.4,67.0,30.15,East,92,0.0,0.0,68,0.00,,---,0.00,VWS V14.01,2013-06-11 09:27:00,
2013-06-11 05:28:00,79.2,66.8,30.15,East,93,6.3,6.3,66,0.00,,---,0.00,VWS V15.00,2013-06-11 09:28:00,
2013-06-11 05:29:00,79.2,66.8,30.15,East,93,6.3,6.3,66,0.00,,---,0.00,VWS V15.00,2013-06-11 09:29:00,
2013-06-11 05:30:00,79.2,66.8,30.15,East,93,6.3,6.3,66,0.00,,---,0.00,VWS V15.00,2013-06-11 09:30:00,
2013-06-11 05:31:00,79.3,66.6,30.15,ESE,110,3.1,6.3,65,0.00,,---,0.00,VWS V15.00,2013-06-11 09:31:00,
2013-06-11 05:32:00,78.3,67.3,30.15,East,92,0.0,0.0,69,0.00,,---,0.00,VWS V14.01,2013-06-11 09:32:00,
2013-06-11 05:33:00,79.3,66.1,30.15,East,99,4.0,4.0,64,0.00,,---,0.00,VWS V15.00,2013-06-11 09:33:00,
2013-06-11 05:34:00,79.3,66.1,30.15,East,98,4.9,4.9,64,0.00,,---,0.00,VWS V15.00,2013-06-11 09:34:00,
2013-06-11 05:35:00,79.5,66.3,30.15,East,98,4.9,4.9,64,0.00,,---,0.00,VWS V15.00,2013-06-11 09:35:00,
2013-06-11 05:36:00,79.5,66.3,30.15,ESE,103,5.4,5.4,64,0.00,,---,0.00,VWS V15.00,2013-06-11 09:36:00,
2013-06-11 05:37:00,77.9,66.9,30.15,East,92,0.0,0.0,69,0.00,,---,0.00,VWS V14.01,2013-06-11 09:37:00,
2013-06-11 05:38:00,79.5,66.3,30.15,SE,127,3.6,3.6,64,0.00,,---,0.00,VWS V15.00,2013-06-11 09:38:00,
2013-06-11 05:39:00,79.5,66.3,30.15,ESE,123,3.1,3.6,64,0.00,,---,0.00,VWS V15.00,2013-06-11 09:39:00,
2013-06-11 05:40:00,79.5,66.3,30.15,East,99,0.0,3.1,64,0.00,,---,0.00,VWS V15.00,2013-06-11 09:40:00,
2013-06-11 05:41:00,79.5,65.8,30.15,SE,134,2.7,7.6,63,0.00,,---,0.00,VWS V15.00,2013-06-11 09:41:00,
2013-06-11 05:42:00,77.9,66.9,30.15,East,92,0.0,0.0,69,0.00,,---,0.00,VWS V14.01,2013-06-11 09:42:00,
2013-06-11 05:43:00,79.5,65.8,30.15,ESE,118,2.2,2.7,63,0.00,,---,0.00,VWS V15.00,2013-06-11 09:43:00,
2013-06-11 05:44:00,79.5,65.8,30.15,East,94,3.6,3.6,63,0.00,,---,0.00,VWS V15.00,2013-06-11 09:44:00,
2013-06-11 05:45:00,79.5,65.8,30.15,NE,56,3.6,3.6,63,0.00,,---,0.00,VWS V15.00,2013-06-11 09:45:00,
2013-06-11 05:46:00,79.5,66.3,30.15,SSE,154,4.0,4.0,64,0.00,,---,0.00,VWS V15.00,2013-06-11 09:46:00,
2013-06-11 05:47:00,77.5,67.4,30.15,East,92,0.0,0.0,71,0.00,,---,0.00,VWS V14.01,2013-06-11 09:47:00,
2013-06-11 05:48:00,79.5,66.3,30.15,SE,128,5.8,5.8,64,0.00,,---,0.00,VWS V15.00,2013-06-11 09:48:00,
2013-06-11 05:49:00,79.5,66.3,30.15,SE,139,3.6,5.8,64,0.00,,---,0.00,VWS V15.00,2013-06-11 09:49:00,
2013-06-11 05:50:00,79.5,66.3,30.15,East,87,3.1,3.6,64,0.00,,---,0.00,VWS V15.00,2013-06-11 09:50:00,
2013-06-11 05:51:00,79.5,66.3,30.15,SSE,156,4.0,4.0,64,0.00,,---,0.00,VWS V15.00,2013-06-11 09:51:00,
2013-06-11 05:52:00,77.5,67.4,30.15,East,92,0.0,0.0,71,0.00,,---,0.00,VWS V14.01,2013-06-11 09:52:00,
2013-06-11 05:53:00,79.5,66.3,30.15,SE,139,6.3,6.3,64,0.00,,---,0.00,VWS V15.00,2013-06-11 09:53:00,
2013-06-11 05:54:00,79.3,66.1,30.15,ESE,107,3.6,6.3,64,0.00,,---,0.00,VWS V15.00,2013-06-11 09:54:00,
2013-06-11 05:55:00,79.3,66.1,30.15,SE,128,4.0,4.0,64,0.00,,---,0.00,VWS V15.00,2013-06-11 09:55:00,
2013-06-11 05:56:00,79.3,66.1,30.15,SSE,153,3.6,4.0,64,0.00,,---,0.00,VWS V15.00,2013-06-11 09:56:00,
2013-06-11 05:57:00,77.2,67.5,30.15,East,92,0.0,0.0,72,0.00,,---,0.00,VWS V14.01,2013-06-11 09:57:00,
2013-06-11 05:58:00,79.3,66.1,30.15,ESE,111,3.6,3.6,64,0.00,,---,0.00,VWS V15.00,2013-06-11 09:58:00,
2013-06-11 05:59:00,79.3,66.1,30.15,SE,129,3.1,3.6,64,0.00,,---,0.00,VWS V15.00,2013-06-11 09:59:00,
2013-06-11 06:00:00,79.3,66.1,30.15,ESE,114,2.7,3.1,64,0.00,,---,0.00,VWS V15.00,2013-06-11 10:00:00,
2013-06-11 06:01:00,79.3,66.1,30.15,SE,129,3.6,4.9,64,0.00,,---,0.00,VWS V15.00,2013-06-11 10:01:00,
2013-06-11 06:02:00,77.2,67.9,30.15,East,92,0.0,0.0,73,0.00,,---,0.00,VWS V14.01,2013-06-11 10:02:00,
2013-06-11 06:03:00,79.3,66.1,30.15,ESE,107,0.0,0.0,64,0.00,,---,0.00,VWS V15.00,2013-06-11 10:03:00,
2013-06-11 06:04:00,79.2,65.9,30.15,SE,129,0.0,0.0,64,0.00,,---,0.00,VWS V15.00,2013-06-11 10:04:00,
2013-06-11 06:05:00,79.2,65.9,30.15,East,85,0.0,0.0,64,0.00,,---,0.00,VWS V15.00,2013-06-11 10:05:00,
2013-06-11 06:06:00,79.2,66.4,30.15,ESE,108,0.0,0.0,65,0.00,,---,0.00,VWS V15.00,2013-06-11 10:06:00,
2013-06-11 06:07:00,77.2,68.3,30.15,East,92,0.0,0.0,74,0.00,,---,0.00,VWS V14.01,2013-06-11 10:07:00,
2013-06-11 06:08:00,79.0,66.2,30.15,East,90,2.7,2.7,65,0.00,,---,0.00,VWS V15.00,2013-06-11 10:08:00,
2013-06-11 06:09:00,79.0,66.2,30.15,ESE,114,5.4,5.4,65,0.00,,---,0.00,VWS V15.00,2013-06-11 10:09:00,
2013-06-11 06:10:00,79.0,66.2,30.15,ESE,117,3.6,5.4,65,0.00,,---,0.00,VWS V15.00,2013-06-11 10:10:00,
2013-06-11 06:11:00,79.0,66.2,30.15,ESE,118,0.0,3.6,65,0.00,,---,0.00,VWS V15.00,2013-06-11 10:11:00,
2013-06-11 06:12:00,77.2,68.3,30.15,ESE,117,0.0,0.0,74,0.00,,---,0.00,VWS V14.01,2013-06-11 10:12:00,
2013-06-11 06:13:00,78.8,66.9,30.15,East,98,3.1,3.1,67,0.00,,---,0.00,VWS V15.00,2013-06-11 10:13:00,
2013-06-11 06:14:00,78.8,66.9,30.15,East,98,3.1,3.1,67,0.00,,---,0.00,VWS V15.00,2013-06-11 10:14:00,
2013-06-11 06:15:00,78.8,66.9,30.15,ESE,109,0.0,3.1,67,0.00,,---,0.00,VWS V15.00,2013-06-11 10:15:00,
2013-06-11 06:16:00,78.8,66.9,30.15,ESE,109,0.0,0.0,67,0.00,,---,0.00,VWS V15.00,2013-06-11 10:16:00,
2013-06-11 06:17:00,77.2,69.4,30.15,ESE,117,0.0,0.0,77,0.00,,---,0.00,VWS V14.01,2013-06-11 10:17:00,
2013-06-11 06:18:00,78.6,66.8,30.15,ESE,109,0.0,0.0,67,0.00,,---,0.00,VWS V15.00,2013-06-11 10:18:00,
2013-06-11 06:19:00,78.6,67.2,30.15,ESE,109,0.0,0.0,68,0.00,,---,0.00,VWS V15.00,2013-06-11 10:19:00,
2013-06-11 06:20:00,78.6,67.2,30.15,East,92,0.0,0.0,68,0.00,,---,0.00,VWS V15.00,2013-06-11 10:20:00,
2013-06-11 06:21:00,78.6,67.2,30.15,East,92,0.0,0.0,68,0.00,,---,0.00,VWS V15.00,2013-06-11 10:21:00,
2013-06-11 06:22:00,78.4,67.0,30.15,East,92,0.0,0.0,68,0.00,,---,0.00,VWS V15.00,2013-06-11 10:22:00,
2013-06-11 06:23:00,77.2,69.8,30.15,ESE,117,0.0,0.0,78,0.00,,---,0.00,VWS V14.01,2013-06-11 10:23:00,
2013-06-11 06:24:00,78.4,67.0,30.15,East,92,0.0,0.0,68,0.00,,---,0.00,VWS V15.00,2013-06-11 10:24:00,
2013-06-11 06:25:00,78.4,67.0,30.15,East,92,0.0,0.0,68,0.00,,---,0.00,VWS V15.00,2013-06-11 10:25:00,
2013-06-11 06:26:00,78.4,67.0,30.15,East,92,0.0,0.0,68,0.00,,---,0.00,VWS V15.00,2013-06-11 10:26:00,
2013-06-11 06:27:00,78.4,67.0,30.15,East,92,0.0,0.0,68,0.00,,---,0.00,VWS V15.00,2013-06-11 10:27:00,
2013-06-11 06:28:00,77.2,69.8,30.15,ESE,118,0.0,0.0,78,0.00,,---,0.00,VWS V14.01,2013-06-11 10:28:00,
2013-06-11 06:29:00,78.3,67.3,30.15,East,92,0.0,0.0,69,0.00,,---,0.00,VWS V15.00,2013-06-11 10:29:00,
2013-06-11 06:30:00,78.3,67.3,30.15,East,92,0.0,0.0,69,0.00,,---,0.00,VWS V15.00,2013-06-11 10:30:00,
2013-06-11 06:31:00,78.3,67.3,30.15,East,92,0.0,0.0,69,0.00,,---,0.00,VWS V15.00,2013-06-11 10:31:00,
2013-06-11 06:32:00,78.3,67.3,30.15,East,92,0.0,0.0,69,0.00,,---,0.00,VWS V15.00,2013-06-11 10:32:00,
2013-06-11 06:33:00,77.0,69.6,30.15,SE,138,0.0,0.0,78,0.00,,---,0.00,VWS V14.01,2013-06-11 10:33:00,
2013-06-11 06:34:00,77.9,66.9,30.15,East,92,0.0,0.0,69,0.00,,---,0.00,VWS V15.00,2013-06-11 10:34:00,
2013-06-11 06:35:00,77.9,66.9,30.15,East,92,0.0,0.0,69,0.00,,---,0.00,VWS V15.00,2013-06-11 10:35:00,
2013-06-11 06:36:00,77.9,66.9,30.15,East,92,0.0,0.0,69,0.00,,---,0.00,VWS V15.00,2013-06-11 10:36:00,
2013-06-11 06:37:00,77.9,66.9,30.15,East,92,0.0,0.0,69,0.00,,---,0.00,VWS V15.00,2013-06-11 10:37:00,
2013-06-11 06:38:00,77.0,69.6,30.15,SE,138,0.0,0.0,78,0.00,,---,0.00,VWS V14.01,2013-06-11 10:38:00,
2013-06-11 06:39:00,77.9,66.9,30.15,East,92,0.0,0.0,69,0.00,,---,0.00,VWS V15.00,2013-06-11 10:39:00,
2013-06-11 06:40:00,77.9,66.9,30.15,East,92,0.0,0.0,69,0.00,,---,0.00,VWS V15.00,2013-06-11 10:40:00,
2013-06-11 06:41:00,77.9,66.9,30.15,East,92,0.0,0.0,69,0.00,,---,0.00,VWS V15.00,2013-06-11 10:41:00,
2013-06-11 06:42:00,77.9,66.9,30.15,East,92,0.0,0.0,69,0.00,,---,0.00,VWS V15.00,2013-06-11 10:42:00,
2013-06-11 06:43:00,76.8,69.8,30.15,SE,138,0.0,0.0,79,0.00,,---,0.00,VWS V14.01,2013-06-11 10:43:00,
2013-06-11 06:44:00,77.7,67.2,30.15,East,92,0.0,0.0,70,0.00,,---,0.00,VWS V15.00,2013-06-11 10:44:00,
2013-06-11 06:45:00,77.7,67.2,30.15,East,92,0.0,0.0,70,0.00,,---,0.00,VWS V15.00,2013-06-11 10:45:00,
2013-06-11 06:46:00,77.7,67.2,30.15,East,92,0.0,0.0,70,0.00,,---,0.00,VWS V15.00,2013-06-11 10:46:00,
2013-06-11 06:47:00,77.5,67.4,30.15,East,92,0.0,0.0,71,0.00,,---,0.00,VWS V15.00,2013-06-11 10:47:00,
2013-06-11 06:48:00,76.8,69.8,30.15,SE,138,0.0,0.0,79,0.00,,---,0.00,VWS V14.01,2013-06-11 10:48:00,
2013-06-11 06:49:00,77.5,67.4,30.15,East,92,0.0,0.0,71,0.00,,---,0.00,VWS V15.00,2013-06-11 10:49:00,
2013-06-11 06:50:00,77.5,67.4,30.15,East,92,0.0,0.0,71,0.00,,---,0.00,VWS V15.00,2013-06-11 10:50:00,
2013-06-11 06:51:00,77.5,67.4,30.15,East,92,0.0,0.0,71,0.00,,---,0.00,VWS V15.00,2013-06-11 10:51:00,
2013-06-11 06:52:00,77.5,67.4,30.15,East,92,0.0,0.0,71,0.00,,---,0.00,VWS V15.00,2013-06-11 10:52:00,
2013-06-11 06:53:00,76.8,69.8,30.15,SE,138,0.0,0.0,79,0.00,,---,0.00,VWS V14.01,2013-06-11 10:53:00,
2013-06-11 06:54:00,77.5,67.4,30.15,East,92,0.0,0.0,71,0.00,,---,0.00,VWS V15.00,2013-06-11 10:54:00,
2013-06-11 06:55:00,77.5,67.4,30.15,East,92,0.0,0.0,71,0.00,,---,0.00,VWS V15.00,2013-06-11 10:55:00,
2013-06-11 06:56:00,77.5,67.4,30.15,East,92,0.0,0.0,71,0.00,,---,0.00,VWS V15.00,2013-06-11 10:56:00,
2013-06-11 06:57:00,77.2,67.5,30.15,East,92,0.0,0.0,72,0.00,,---,0.00,VWS V15.00,2013-06-11 10:57:00,
2013-06-11 06:58:00,76.8,70.2,30.18,SE,138,0.0,0.0,80,0.00,,---,0.00,VWS V14.01,2013-06-11 10:58:00,
2013-06-11 06:59:00,77.2,67.5,30.15,East,92,0.0,0.0,72,0.00,,---,0.00,VWS V15.00,2013-06-11 10:59:00,
2013-06-11 07:00:00,77.2,67.9,30.15,East,92,0.0,0.0,73,0.00,,---,0.00,VWS V15.00,2013-06-11 11:00:00,
2013-06-11 07:01:00,77.2,67.9,30.15,East,92,0.0,0.0,73,0.00,,---,0.00,VWS V15.00,2013-06-11 11:01:00,
2013-06-11 07:02:00,77.2,67.9,30.15,East,92,0.0,0.0,73,0.00,,---,0.00,VWS V15.00,2013-06-11 11:02:00,
2013-06-11 07:03:00,77.2,70.5,30.18,SE,138,0.0,0.0,80,0.00,,---,0.00,VWS V14.01,2013-06-11 11:03:00,
2013-06-11 07:04:00,77.2,68.3,30.15,East,92,0.0,0.0,74,0.00,,---,0.00,VWS V15.00,2013-06-11 11:04:00,
2013-06-11 07:05:00,77.2,68.3,30.15,East,92,0.0,0.0,74,0.00,,---,0.00,VWS V15.00,2013-06-11 11:05:00,
2013-06-11 07:06:00,77.2,68.3,30.15,East,92,0.0,0.0,74,0.00,,---,0.00,VWS V15.00,2013-06-11 11:06:00,
2013-06-11 07:07:00,77.2,68.3,30.15,East,92,0.0,0.0,74,0.00,,---,0.00,VWS V15.00,2013-06-11 11:07:00,
2013-06-11 07:08:00,77.5,70.9,30.18,SE,138,0.0,0.0,80,0.00,,---,0.00,VWS V14.01,2013-06-11 11:08:00,
2013-06-11 07:09:00,77.2,68.3,30.15,East,92,0.0,0.0,74,0.00,,---,0.00,VWS V15.00,2013-06-11 11:09:00,
2013-06-11 07:10:00,77.2,68.3,30.15,East,92,0.0,0.0,74,0.00,,---,0.00,VWS V15.00,2013-06-11 11:10:00,
2013-06-11 07:11:00,77.2,68.3,30.15,SE,127,0.0,0.0,74,0.00,,---,0.00,VWS V15.00,2013-06-11 11:11:00,
2013-06-11 07:12:00,77.2,68.3,30.15,ESE,117,0.0,0.0,74,0.00,,---,0.00,VWS V15.00,2013-06-11 11:12:00,
2013-06-11 07:13:00,78.1,71.8,30.18,SE,138,0.0,0.0,81,0.00,,---,0.00,VWS V14.01,2013-06-11 11:13:00,
2013-06-11 07:14:00,77.2,69.4,30.15,ESE,117,0.0,0.0,77,0.00,,---,0.00,VWS V15.00,2013-06-11 11:14:00,
2013-06-11 07:15:00,77.2,69.4,30.15,ESE,117,0.0,0.0,77,0.00,,---,0.00,VWS V15.00,2013-06-11 11:15:00,
2013-06-11 07:16:00,77.2,69.4,30.15,ESE,118,0.0,0.0,77,0.00,,---,0.00,VWS V15.00,2013-06-11 11:16:00,
2013-06-11 07:17:00,77.2,69.4,30.15,ESE,117,0.0,0.0,77,0.00,,---,0.00,VWS V15.00,2013-06-11 11:17:00,
2013-06-11 07:18:00,78.8,72.5,30.18,SE,138,0.0,0.0,81,0.00,,---,0.00,VWS V14.01,2013-06-11 11:18:00,
2013-06-11 07:19:00,77.2,69.4,30.15,ESE,118,0.0,0.0,77,0.00,,---,0.00,VWS V15.00,2013-06-11 11:19:00,
2013-06-11 07:20:00,77.2,69.4,30.15,ESE,118,0.0,0.0,77,0.00,,---,0.00,VWS V15.00,2013-06-11 11:20:00,
2013-06-11 07:21:00,77.2,69.4,30.15,ESE,118,0.0,0.0,77,0.00,,---,0.00,VWS V15.00,2013-06-11 11:21:00,
2013-06-11 07:22:00,77.2,69.8,30.15,ESE,118,0.0,0.0,78,0.00,,---,0.00,VWS V15.00,2013-06-11 11:22:00,
2013-06-11 07:23:00,79.5,72.8,30.18,SE,138,0.0,0.0,80,0.00,,---,0.00,VWS V14.01,2013-06-11 11:23:00,
2013-06-11 07:24:00,77.2,69.8,30.15,ESE,118,0.0,0.0,78,0.00,,---,0.00,VWS V15.00,2013-06-11 11:24:00,
2013-06-11 07:25:00,77.2,69.8,30.15,ESE,118,0.0,0.0,78,0.00,,---,0.00,VWS V15.00,2013-06-11 11:25:00,
2013-06-11 07:26:00,77.2,69.8,30.15,ESE,117,0.0,0.0,78,0.00,,---,0.00,VWS V15.00,2013-06-11 11:26:00,
2013-06-11 07:27:00,77.2,69.8,30.15,ESE,117,0.0,0.0,78,0.00,,---,0.00,VWS V15.00,2013-06-11 11:27:00,
2013-06-11 07:28:00,80.4,73.3,30.18,SE,138,0.0,0.0,79,0.00,,---,0.00,VWS V14.01,2013-06-11 11:28:00,
2013-06-11 07:29:00,77.2,69.8,30.15,SE,138,0.0,0.0,78,0.00,,---,0.00,VWS V15.00,2013-06-11 11:29:00,
2013-06-11 07:30:00,77.2,69.8,30.15,SE,138,0.0,0.0,78,0.00,,---,0.00,VWS V15.00,2013-06-11 11:30:00,
2013-06-11 07:31:00,77.0,69.6,30.15,SE,138,0.0,0.0,78,0.00,,---,0.00,VWS V15.00,2013-06-11 11:31:00,
2013-06-11 07:32:00,77.0,69.6,30.15,SE,138,0.0,0.0,78,0.00,,---,0.00,VWS V15.00,2013-06-11 11:32:00,
2013-06-11 07:33:00,81.0,73.1,30.18,SE,138,0.0,0.0,77,0.00,,---,0.00,VWS V14.01,2013-06-11 11:33:00,
2013-06-11 07:34:00,77.0,69.6,30.15,SE,138,0.0,0.0,78,0.00,,---,0.00,VWS V15.00,2013-06-11 11:34:00,
2013-06-11 07:35:00,77.0,69.6,30.15,SE,138,0.0,0.0,78,0.00,,---,0.00,VWS V15.00,2013-06-11 11:35:00,
2013-06-11 07:36:00,77.0,69.6,30.15,SE,138,0.0,0.0,78,0.00,,---,0.00,VWS V15.00,2013-06-11 11:36:00,
2013-06-11 07:37:00,77.0,69.6,30.15,SE,138,0.0,0.0,78,0.00,,---,0.00,VWS V15.00,2013-06-11 11:37:00,
2013-06-11 07:38:00,81.3,68.9,30.18,SE,138,0.0,0.0,66,0.00,,---,0.00,VWS V14.01,2013-06-11 11:38:00,
2013-06-11 07:39:00,77.0,69.6,30.15,SE,138,0.0,0.0,78,0.00,,---,0.00,VWS V15.00,2013-06-11 11:39:00,
2013-06-11 07:40:00,77.0,69.6,30.15,SE,138,0.0,0.0,78,0.00,,---,0.00,VWS V15.00,2013-06-11 11:40:00,
2013-06-11 07:41:00,76.8,69.8,30.15,SE,138,0.0,0.0,79,0.00,,---,0.00,VWS V15.00,2013-06-11 11:41:00,
2013-06-11 07:42:00,76.8,69.8,30.15,SE,138,0.0,0.0,79,0.00,,---,0.00,VWS V15.00,2013-06-11 11:42:00,
2013-06-11 07:43:00,76.8,69.8,30.15,SE,138,0.0,0.0,79,0.00,,---,0.00,VWS V15.00,2013-06-11 11:43:00,
2013-06-11 07:44:00,81.9,68.5,30.18,SE,131,0.0,0.0,64,0.00,,---,0.00,VWS V14.01,2013-06-11 11:44:00,
2013-06-11 07:45:00,76.8,69.8,30.15,SE,138,0.0,0.0,79,0.00,,---,0.00,VWS V15.00,2013-06-11 11:45:00,
2013-06-11 07:46:00,76.8,69.8,30.15,SE,138,0.0,0.0,79,0.00,,---,0.00,VWS V15.00,2013-06-11 11:46:00,
2013-06-11 07:47:00,76.8,69.8,30.15,SE,138,0.0,0.0,79,0.00,,---,0.00,VWS V15.00,2013-06-11 11:47:00,
2013-06-11 07:48:00,76.8,69.8,30.15,SE,138,0.0,0.0,79,0.00,,---,0.00,VWS V15.00,2013-06-11 11:48:00,
2013-06-11 07:49:00,81.9,68.5,30.18,SE,131,0.0,0.0,64,0.00,,---,0.00,VWS V14.01,2013-06-11 11:49:00,
2013-06-11 07:50:00,76.8,69.8,30.15,SE,138,0.0,0.0,79,0.00,,---,0.00,VWS V15.00,2013-06-11 11:50:00,
2013-06-11 07:51:00,76.8,69.8,30.15,SE,138,0.0,0.0,79,0.00,,---,0.00,VWS V15.00,2013-06-11 11:51:00,
2013-06-11 07:52:00,76.8,69.8,30.15,SE,138,0.0,0.0,79,0.00,,---,0.00,VWS V15.00,2013-06-11 11:52:00,
2013-06-11 07:53:00,76.8,69.8,30.15,SE,138,0.0,0.0,79,0.00,,---,0.00,VWS V15.00,2013-06-11 11:53:00,
2013-06-11 07:54:00,81.3,60.9,30.18,SE,130,0.0,0.0,50,0.00,,---,0.00,VWS V14.01,2013-06-11 11:54:00,
2013-06-11 07:55:00,76.8,69.8,30.15,SE,138,0.0,0.0,79,0.00,,---,0.00,VWS V15.00,2013-06-11 11:55:00,
2013-06-11 07:56:00,76.8,70.2,30.15,SE,138,0.0,0.0,80,0.00,,---,0.00,VWS V15.00,2013-06-11 11:56:00,
2013-06-11 07:57:00,76.8,70.2,30.18,SE,138,0.0,0.0,80,0.00,,---,0.00,VWS V15.00,2013-06-11 11:57:00,
2013-06-11 07:58:00,76.8,70.2,30.18,SE,138,0.0,0.0,80,0.00,,---,0.00,VWS V15.00,2013-06-11 11:58:00,
2013-06-11 07:59:00,81.1,61.9,30.18,SE,130,0.0,0.0,52,0.00,,---,0.00,VWS V14.01,2013-06-11 11:59:00,
2013-06-11 08:00:00,76.8,70.2,30.18,SE,138,0.0,0.0,80,0.00,,---,0.00,VWS V15.00,2013-06-11 12:00:00,
2013-06-11 08:01:00,76.8,70.2,30.18,SE,138,0.0,0.0,80,0.00,,---,0.00,VWS V15.00,2013-06-11 12:01:00,
2013-06-11 08:02:00,76.8,70.2,30.18,SE,138,0.0,0.0,80,0.00,,---,0.00,VWS V15.00,2013-06-11 12:02:00,
2013-06-11 08:03:00,77.2,70.5,30.18,SE,138,0.0,0.0,80,0.00,,---,0.00,VWS V15.00,2013-06-11 12:03:00,
2013-06-11 08:04:00,81.0,62.8,30.18,SE,130,0.0,0.0,54,0.00,,---,0.00,VWS V14.01,2013-06-11 12:04:00,
2013-06-11 08:05:00,77.2,70.5,30.18,SE,138,0.0,0.0,80,0.00,,---,0.00,VWS V15.00,2013-06-11 12:05:00,
2013-06-11 08:06:00,77.4,70.7,30.18,SE,138,0.0,0.0,80,0.00,,---,0.00,VWS V15.00,2013-06-11 12:06:00,
2013-06-11 08:07:00,77.4,70.7,30.18,SE,138,0.0,0.0,80,0.00,,---,0.00,VWS V15.00,2013-06-11 12:07:00,
2013-06-11 08:08:00,77.5,70.9,30.18,SE,138,0.0,0.0,80,0.00,,---,0.00,VWS V15.00,2013-06-11 12:08:00,
2013-06-11 08:09:00,81.0,62.8,30.18,SE,130,0.0,0.0,54,0.00,,---,0.00,VWS V14.01,2013-06-11 12:09:00,
2013-06-11 08:10:00,77.9,71.6,30.18,SE,138,0.0,0.0,81,0.00,,---,0.00,VWS V15.00,2013-06-11 12:10:00,
2013-06-11 08:11:00,77.9,71.6,30.18,SE,138,0.0,0.0,81,0.00,,---,0.00,VWS V15.00,2013-06-11 12:11:00,
2013-06-11 08:12:00,78.1,71.8,30.18,SE,138,0.0,0.0,81,0.00,,---,0.00,VWS V15.00,2013-06-11 12:12:00,
2013-06-11 08:13:00,78.1,71.8,30.18,SE,138,0.0,0.0,81,0.00,,---,0.00,VWS V15.00,2013-06-11 12:13:00,
2013-06-11 08:14:00,80.8,63.6,30.18,East,91,0.0,0.0,56,0.00,,---,0.00,VWS V14.01,2013-06-11 12:14:00,
2013-06-11 08:15:00,78.6,72.3,30.18,SE,138,0.0,0.0,81,0.00,,---,0.00,VWS V15.00,2013-06-11 12:15:00,
2013-06-11 08:16:00,78.8,72.5,30.18,SE,138,0.0,0.0,81,0.00,,---,0.00,VWS V15.00,2013-06-11 12:16:00,
2013-06-11 08:17:00,78.8,72.5,30.18,SE,138,0.0,0.0,81,0.00,,---,0.00,VWS V15.00,2013-06-11 12:17:00,
2013-06-11 08:18:00,78.8,72.5,30.18,SE,138,0.0,0.0,81,0.00,,---,0.00,VWS V15.00,2013-06-11 12:18:00,
2013-06-11 08:19:00,80.8,64.1,30.18,East,91,0.0,0.0,57,0.00,,---,0.00,VWS V14.01,2013-06-11 12:19:00,
2013-06-11 08:20:00,78.8,72.5,30.18,SE,138,0.0,0.0,81,0.00,,---,0.00,VWS V15.00,2013-06-11 12:20:00,
2013-06-11 08:21:00,79.3,72.6,30.18,SE,138,0.0,0.0,80,0.00,,---,0.00,VWS V15.00,2013-06-11 12:21:00,
2013-06-11 08:22:00,79.5,72.8,30.18,SE,138,0.0,0.0,80,0.00,,---,0.00,VWS V15.00,2013-06-11 12:22:00,
2013-06-11 08:23:00,79.5,72.8,30.18,SE,138,0.0,0.0,80,0.00,,---,0.00,VWS V15.00,2013-06-11 12:23:00,
2013-06-11 08:24:00,80.8,63.6,30.18,East,91,0.0,0.0,56,0.00,,---,0.00,VWS V14.01,2013-06-11 12:24:00,
2013-06-11 08:25:00,79.5,72.8,30.18,SE,138,0.0,0.0,80,0.00,,---,0.00,VWS V15.00,2013-06-11 12:25:00,
2013-06-11 08:26:00,79.5,72.8,30.18,SE,138,0.0,0.0,80,0.00,,---,0.00,VWS V15.00,2013-06-11 12:26:00,
2013-06-11 08:27:00,80.2,73.1,30.18,SE,138,0.0,0.0,79,0.00,,---,0.00,VWS V15.00,2013-06-11 12:27:00,
2013-06-11 08:28:00,80.4,73.3,30.18,SE,138,0.0,0.0,79,0.00,,---,0.00,VWS V15.00,2013-06-11 12:28:00,
2013-06-11 08:29:00,81.7,64.0,30.18,East,91,0.0,0.0,55,0.00,,---,0.00,VWS V14.01,2013-06-11 12:29:00,
2013-06-11 08:30:00,80.8,73.7,30.18,SE,138,0.0,0.0,79,0.00,,---,0.00,VWS V15.00,2013-06-11 12:30:00,
2013-06-11 08:31:00,80.8,73.3,30.18,SE,138,0.0,0.0,78,0.00,,---,0.00,VWS V15.00,2013-06-11 12:31:00,
2013-06-11 08:32:00,81.0,73.1,30.18,SE,138,0.0,0.0,77,0.00,,---,0.00,VWS V15.00,2013-06-11 12:32:00,
2013-06-11 08:33:00,81.0,73.1,30.18,SE,138,0.0,0.0,77,0.00,,---,0.00,VWS V15.00,2013-06-11 12:33:00,
2013-06-11 08:34:00,83.8,62.1,30.18,East,91,0.0,0.0,48,0.00,,---,0.00,VWS V14.01,2013-06-11 12:34:00,
2013-06-11 08:35:00,81.1,72.9,30.18,SE,137,0.0,0.0,76,0.00,,---,0.00,VWS V15.00,2013-06-11 12:35:00,
2013-06-11 08:36:00,81.3,72.6,30.18,SE,138,0.0,0.0,75,0.00,,---,0.00,VWS V15.00,2013-06-11 12:36:00,
2013-06-11 08:37:00,81.3,72.6,30.18,SE,138,0.0,0.0,75,0.00,,---,0.00,VWS V15.00,2013-06-11 12:37:00,
2013-06-11 08:38:00,81.3,72.6,30.18,SE,138,0.0,0.0,75,0.00,,---,0.00,VWS V15.00,2013-06-11 12:38:00,
2013-06-11 08:39:00,85.1,58.1,30.18,East,90,0.0,0.0,40,0.00,,---,0.00,VWS V14.01,2013-06-11 12:39:00,
2013-06-11 08:40:00,81.3,68.9,30.18,SE,138,0.0,0.0,66,0.00,,---,0.00,VWS V15.00,2013-06-11 12:40:00,
2013-06-11 08:41:00,81.9,68.5,30.18,SE,138,0.0,0.0,64,0.00,,---,0.00,VWS V15.00,2013-06-11 12:41:00,
2013-06-11 08:42:00,81.9,68.5,30.18,SE,138,0.0,0.0,64,0.00,,---,0.00,VWS V15.00,2013-06-11 12:42:00,
2013-06-11 08:43:00,81.9,68.5,30.18,SE,131,0.0,0.0,64,0.00,,---,0.00,VWS V15.00,2013-06-11 12:43:00,
2013-06-11 08:44:00,86.5,58.7,30.18,East,91,0.0,0.0,39,0.00,,---,0.00,VWS V14.01,2013-06-11 12:44:00,
2013-06-11 08:45:00,81.9,68.5,30.18,SE,131,0.0,0.0,64,0.00,,---,0.00,VWS V15.00,2013-06-11 12:45:00,
2013-06-11 08:46:00,81.9,68.5,30.18,SE,131,0.0,0.0,64,0.00,,---,0.00,VWS V15.00,2013-06-11 12:46:00,
2013-06-11 08:47:00,81.9,68.5,30.18,SE,131,0.0,0.0,64,0.00,,---,0.00,VWS V15.00,2013-06-11 12:47:00,
2013-06-11 08:48:00,81.9,68.5,30.18,SE,131,0.0,0.0,64,0.00,,---,0.00,VWS V15.00,2013-06-11 12:48:00,
2013-06-11 08:49:00,86.4,58.5,30.18,SE,141,0.0,0.0,39,0.00,,---,0.00,VWS V14.01,2013-06-11 12:49:00,
2013-06-11 08:50:00,81.9,62.0,30.18,SE,131,0.0,0.0,51,0.00,,---,0.00,VWS V15.00,2013-06-11 12:50:00,
2013-06-11 08:51:00,81.5,61.1,30.18,SE,131,0.0,0.0,50,0.00,,---,0.00,VWS V15.00,2013-06-11 12:51:00,
2013-06-11 08:52:00,81.5,61.1,30.18,SE,131,0.0,0.0,50,0.00,,---,0.00,VWS V15.00,2013-06-11 12:52:00,
2013-06-11 08:53:00,81.3,60.9,30.18,SE,130,0.0,0.0,50,0.00,,---,0.00,VWS V15.00,2013-06-11 12:53:00,
2013-06-11 08:54:00,85.1,57.4,30.18,NE,41,0.0,0.0,39,0.00,,---,0.00,VWS V14.01,2013-06-11 12:54:00,
2013-06-11 08:55:00,81.0,61.2,30.18,SE,130,0.0,0.0,51,0.00,,---,0.00,VWS V15.00,2013-06-11 12:55:00,
2013-06-11 08:56:00,81.0,61.7,30.18,SE,130,0.0,0.0,52,0.00,,---,0.00,VWS V15.00,2013-06-11 12:56:00,
2013-06-11 08:57:00,81.0,61.7,30.18,SE,130,0.0,0.0,52,0.00,,---,0.00,VWS V15.00,2013-06-11 12:57:00,
2013-06-11 08:58:00,81.1,61.9,30.18,SE,130,0.0,0.0,52,0.00,,---,0.00,VWS V15.00,2013-06-11 12:58:00,
2013-06-11 08:59:00,81.1,61.9,30.18,SE,130,0.0,0.0,52,0.00,,---,0.00,VWS V15.00,2013-06-11 12:59:00,
2013-06-11 09:00:00,83.5,58.7,30.18,ESE,120,0.0,0.0,43,0.00,,---,0.00,VWS V14.01,2013-06-11 13:00:00,
2013-06-11 09:01:00,81.1,62.9,30.18,SE,130,0.0,0.0,54,0.00,,---,0.00,VWS V15.00,2013-06-11 13:01:00,
2013-06-11 09:02:00,81.1,62.9,30.18,SE,130,0.0,0.0,54,0.00,,---,0.00,VWS V15.00,2013-06-11 13:02:00,
2013-06-11 09:03:00,81.0,62.8,30.18,SE,130,0.0,0.0,54,0.00,,---,0.00,VWS V15.00,2013-06-11 13:03:00,
2013-06-11 09:04:00,81.0,62.8,30.18,SE,130,0.0,0.0,54,0.00,,---,0.00,VWS V15.00,2013-06-11 13:04:00,
2013-06-11 09:05:00,82.8,58.0,30.18,ESE,104,0.0,0.0,43,0.00,,---,0.00,VWS V14.01,2013-06-11 13:05:00,
2013-06-11 09:06:00,81.0,62.8,30.18,SE,130,0.0,0.0,54,0.00,,---,0.00,VWS V15.00,2013-06-11 13:06:00,
2013-06-11 09:07:00,81.0,62.8,30.18,SE,130,0.0,0.0,54,0.00,,---,0.00,VWS V15.00,2013-06-11 13:07:00,
2013-06-11 09:08:00,81.0,62.8,30.18,SE,130,0.0,0.0,54,0.00,,---,0.00,VWS V15.00,2013-06-11 13:08:00,
2013-06-11 09:09:00,81.0,62.8,30.18,SE,130,0.0,0.0,54,0.00,,---,0.00,VWS V15.00,2013-06-11 13:09:00,
2013-06-11 09:10:00,82.6,59.1,30.18,NE,56,0.0,0.0,45,0.00,,---,0.00,VWS V14.01,2013-06-11 13:10:00,
2013-06-11 09:11:00,80.8,63.1,30.18,East,91,0.0,0.0,55,0.00,,---,0.00,VWS V15.00,2013-06-11 13:11:00,
2013-06-11 09:12:00,80.8,63.1,30.18,East,91,0.0,0.0,55,0.00,,---,0.00,VWS V15.00,2013-06-11 13:12:00,
2013-06-11 09:13:00,80.8,63.6,30.18,East,91,0.0,0.0,56,0.00,,---,0.00,VWS V15.00,2013-06-11 13:13:00,
2013-06-11 09:14:00,80.8,63.6,30.18,East,91,0.0,0.0,56,0.00,,---,0.00,VWS V15.00,2013-06-11 13:14:00,
2013-06-11 09:15:00,82.4,59.0,30.18,SE,137,0.0,0.0,45,0.00,,---,0.00,VWS V14.01,2013-06-11 13:15:00,
2013-06-11 09:16:00,80.8,63.6,30.18,East,91,0.0,0.0,56,0.00,,---,0.00,VWS V15.00,2013-06-11 13:16:00,
2013-06-11 09:17:00,80.8,63.6,30.18,East,91,0.0,0.0,56,0.00,,---,0.00,VWS V15.00,2013-06-11 13:17:00,
2013-06-11 09:18:00,80.8,63.6,30.18,East,91,0.0,0.0,56,0.00,,---,0.00,VWS V15.00,2013-06-11 13:18:00,
2013-06-11 09:19:00,80.8,64.1,30.18,East,91,0.0,0.0,57,0.00,,---,0.00,VWS V15.00,2013-06-11 13:19:00,
2013-06-11 09:20:00,82.2,58.8,30.18,ESE,119,4.9,5.4,45,0.00,,---,0.00,VWS V14.01,2013-06-11 13:20:00,
2013-06-11 09:21:00,80.8,64.1,30.18,East,91,0.0,0.0,57,0.00,,---,0.00,VWS V15.00,2013-06-11 13:21:00,
2013-06-11 09:22:00,80.8,64.1,30.18,East,91,0.0,0.0,57,0.00,,---,0.00,VWS V15.00,2013-06-11 13:22:00,
2013-06-11 09:23:00,80.8,64.1,30.18,East,91,0.0,0.0,57,0.00,,---,0.00,VWS V15.00,2013-06-11 13:23:00,
2013-06-11 09:24:00,80.8,63.6,30.18,East,91,0.0,0.0,56,0.00,,---,0.00,VWS V15.00,2013-06-11 13:24:00,
2013-06-11 09:25:00,82.8,58.7,30.18,SE,143,5.8,5.8,44,0.00,,---,0.00,VWS V14.01,2013-06-11 13:25:00,
2013-06-11 09:26:00,80.8,64.1,30.18,East,91,0.0,0.0,57,0.00,,---,0.00,VWS V15.00,2013-06-11 13:26:00,
2013-06-11 09:27:00,80.8,64.1,30.18,East,91,0.0,0.0,57,0.00,,---,0.00,VWS V15.00,2013-06-11 13:27:00,
2013-06-11 09:28:00,80.8,64.1,30.18,East,91,0.0,0.0,57,0.00,,---,0.00,VWS V15.00,2013-06-11 13:28:00,
2013-06-11 09:29:00,81.7,64.0,30.18,East,91,0.0,0.0,55,0.00,,---,0.00,VWS V15.00,2013-06-11 13:29:00,
2013-06-11 09:30:00,82.9,58.2,30.18,SE,144,0.0,0.0,43,0.00,,---,0.00,VWS V14.01,2013-06-11 13:30:00,
2013-06-11 09:31:00,81.7,64.0,30.18,East,91,0.0,0.0,55,0.00,,---,0.00,VWS V15.00,2013-06-11 13:31:00,
2013-06-11 09:32:00,82.4,62.5,30.18,East,91,0.0,0.0,51,0.00,,---,0.00,VWS V15.00,2013-06-11 13:32:00,
2013-06-11 09:33:00,82.4,62.5,30.18,East,91,0.0,0.0,51,0.00,,---,0.00,VWS V15.00,2013-06-11 13:33:00,
2013-06-11 09:34:00,82.4,62.5,30.18,East,91,0.0,0.0,51,0.00,,---,0.00,VWS V15.00,2013-06-11 13:34:00,
2013-06-11 09:35:00,83.1,59.0,30.18,ESE,103,0.0,0.0,44,0.00,,---,0.00,VWS V14.01,2013-06-11 13:35:00,
2013-06-11 09:36:00,83.8,62.1,30.18,East,91,0.0,0.0,48,0.00,,---,0.00,VWS V15.00,2013-06-11 13:36:00,
2013-06-11 09:37:00,83.8,62.1,30.18,East,91,0.0,0.0,48,0.00,,---,0.00,VWS V15.00,2013-06-11 13:37:00,
2013-06-11 09:38:00,84.9,58.6,30.18,East,91,0.0,0.0,41,0.00,,---,0.00,VWS V15.00,2013-06-11 13:38:00,
2013-06-11 09:39:00,85.1,58.1,30.18,East,90,0.0,0.0,40,0.00,,---,0.00,VWS V15.00,2013-06-11 13:39:00,
2013-06-11 09:40:00,82.9,58.8,30.18,North,5,0.0,0.0,44,0.00,,---,0.00,VWS V14.01,2013-06-11 13:40:00,
2013-06-11 09:41:00,85.6,59.3,30.18,East,90,0.0,0.0,41,0.00,,---,0.00,VWS V15.00,2013-06-11 13:41:00,
2013-06-11 09:42:00,85.6,59.3,30.18,East,91,0.0,0.0,41,0.00,,---,0.00,VWS V15.00,2013-06-11 13:42:00,
2013-06-11 09:43:00,86.2,58.3,30.18,East,91,0.0,0.0,39,0.00,,---,0.00,VWS V15.00,2013-06-11 13:43:00,
2013-06-11 09:44:00,86.2,58.3,30.18,East,91,0.0,0.0,39,0.00,,---,0.00,VWS V15.00,2013-06-11 13:44:00,
2013-06-11 09:45:00,82.9,58.8,30.18,SE,133,2.7,2.7,44,0.00,,---,0.00,VWS V14.01,2013-06-11 13:45:00,
2013-06-11 09:46:00,86.7,58.1,30.18,East,91,0.0,0.0,38,0.00,,---,0.00,VWS V15.00,2013-06-11 13:46:00,
2013-06-11 09:47:00,86.4,58.5,30.18,East,91,0.0,0.0,39,0.00,,---,0.00,VWS V15.00,2013-06-11 13:47:00,
2013-06-11 09:48:00,86.4,58.5,30.18,ENE,77,0.0,0.0,39,0.00,,---,0.00,VWS V15.00,2013-06-11 13:48:00,
2013-06-11 09:49:00,86.4,58.5,30.18,South,169,0.0,0.0,39,0.00,,---,0.00,VWS V15.00,2013-06-11 13:49:00,
2013-06-11 09:50:00,82.4,57.7,30.18,SSE,157,4.5,4.5,43,0.00,,---,0.00,VWS V14.01,2013-06-11 13:50:00,
2013-06-11 09:51:00,86.4,58.5,30.18,East,101,0.0,0.0,39,0.00,,---,0.00,VWS V15.00,2013-06-11 13:51:00,
2013-06-11 09:52:00,85.5,57.7,30.18,East,88,0.0,0.0,39,0.00,,---,0.00,VWS V15.00,2013-06-11 13:52:00,
2013-06-11 09:53:00,85.1,57.4,30.18,East,86,0.0,0.0,39,0.00,,---,0.00,VWS V15.00,2013-06-11 13:53:00,
2013-06-11 09:54:00,85.1,57.4,30.18,ENE,65,0.0,0.0,39,0.00,,---,0.00,VWS V15.00,2013-06-11 13:54:00,
2013-06-11 09:55:00,82.4,58.3,30.18,SSE,165,2.7,2.7,44,0.00,,---,0.00,VWS V14.01,2013-06-11 13:55:00,
2013-06-11 09:56:00,84.2,57.3,30.18,ENE,77,0.0,0.0,40,0.00,,---,0.00,VWS V15.00,2013-06-11 13:56:00,
2013-06-11 09:57:00,84.2,57.3,30.18,ENE,77,0.0,0.0,40,0.00,,---,0.00,VWS V15.00,2013-06-11 13:57:00,
2013-06-11 09:58:00,84.2,57.3,30.18,South,178,0.0,0.0,40,0.00,,---,0.00,VWS V15.00,2013-06-11 13:58:00,
2013-06-11 09:59:00,83.5,58.7,30.18,ESE,120,0.0,0.0,43,0.00,,---,0.00,VWS V15.00,2013-06-11 13:59:00,
2013-06-11 10:00:00,82.2,58.2,30.18,ESE,119,2.7,3.6,44,0.00,,---,0.00,VWS V14.01,2013-06-11 14:00:00,
2013-06-11 10:01:00,83.3,59.1,30.18,ESE,120,0.0,0.0,44,0.00,,---,0.00,VWS V15.00,2013-06-11 14:01:00,
2013-06-11 10:02:00,83.3,59.1,30.18,ENE,57,0.0,0.0,44,0.00,,---,0.00,VWS V15.00,2013-06-11 14:02:00,
2013-06-11 10:03:00,82.8,58.0,30.18,ENE,70,0.0,0.0,43,0.00,,---,0.00,VWS V15.00,2013-06-11 14:03:00,
2013-06-11 10:04:00,82.8,58.0,30.18,ESE,106,0.0,0.0,43,0.00,,---,0.00,VWS V15.00,2013-06-11 14:04:00,
2013-06-11 10:05:00,82.4,57.7,30.21,ESE,106,0.0,0.0,43,0.00,,---,0.00,VWS V14.01,2013-06-11 14:05:00,
2013-06-11 10:06:00,82.6,58.5,30.18,ENE,66,0.0,0.0,44,0.00,,---,0.00,VWS V15.00,2013-06-11 14:06:00,
2013-06-11 10:07:00,82.6,59.1,30.18,East,89,0.0,0.0,45,0.00,,---,0.00,VWS V15.00,2013-06-11 14:07:00,
2013-06-11 10:08:00,82.6,59.1,30.18,East,89,0.0,0.0,45,0.00,,---,0.00,VWS V15.00,2013-06-11 14:08:00,
2013-06-11 10:09:00,82.6,59.1,30.18,East,79,0.0,0.0,45,0.00,,---,0.00,VWS V15.00,2013-06-11 14:09:00,
2013-06-11 10:10:00,82.8,56.7,30.21,ENE,75,0.0,0.0,41,0.00,,---,0.00,VWS V14.01,2013-06-11 14:10:00,
2013-06-11 10:11:00,82.4,59.0,30.18,ESE,116,0.0,0.0,45,0.00,,---,0.00,VWS V15.00,2013-06-11 14:11:00,
2013-06-11 10:12:00,82.4,59.0,30.18,ESE,116,0.0,0.0,45,0.00,,---,0.00,VWS V15.00,2013-06-11 14:12:00,
2013-06-11 10:13:00,82.4,59.0,30.18,East,98,0.0,0.0,45,0.00,,---,0.00,VWS V15.00,2013-06-11 14:13:00,
2013-06-11 10:14:00,82.4,59.0,30.18,SE,138,0.0,0.0,45,0.00,,---,0.00,VWS V15.00,2013-06-11 14:14:00,
2013-06-11 10:15:00,82.4,59.0,30.18,SE,137,0.0,0.0,45,0.00,,---,0.00,VWS V15.00,2013-06-11 14:15:00,
2013-06-11 10:16:00,82.9,56.2,30.21,ESE,102,3.6,4.9,40,0.00,,---,0.00,VWS V14.01,2013-06-11 14:16:00,
2013-06-11 10:17:00,82.2,59.4,30.18,East,93,0.0,0.0,46,0.00,,---,0.00,VWS V15.00,2013-06-11 14:17:00,
2013-06-11 10:18:00,82.2,59.4,30.18,SE,138,3.6,5.4,46,0.00,,---,0.00,VWS V15.00,2013-06-11 14:18:00,
2013-06-11 10:19:00,82.2,59.4,30.18,ESE,123,5.4,5.4,46,0.00,,---,0.00,VWS V15.00,2013-06-11 14:19:00,
2013-06-11 10:20:00,82.2,58.8,30.18,ESE,119,4.9,5.4,45,0.00,,---,0.00,VWS V15.00,2013-06-11 14:20:00,
2013-06-11 10:21:00,83.1,56.3,30.21,East,84,3.6,3.6,40,0.00,,---,0.00,VWS V14.01,2013-06-11 14:21:00,
2013-06-11 10:22:00,82.4,59.0,30.18,SE,126,3.6,3.6,45,0.00,,---,0.00,VWS V15.00,2013-06-11 14:22:00,
2013-06-11 10:23:00,82.4,59.0,30.18,East,91,5.8,5.8,45,0.00,,---,0.00,VWS V15.00,2013-06-11 14:23:00,
2013-06-11 10:24:00,82.4,59.0,30.18,SE,143,5.8,5.8,45,0.00,,---,0.00,VWS V15.00,2013-06-11 14:24:00,
2013-06-11 10:25:00,82.8,58.7,30.18,SE,143,5.8,5.8,44,0.00,,---,0.00,VWS V15.00,2013-06-11 14:25:00,
2013-06-11 10:26:00,83.1,56.3,30.21,SE,141,4.0,4.0,40,0.00,,---,0.00,VWS V14.01,2013-06-11 14:26:00,
2013-06-11 10:27:00,82.8,58.0,30.18,ESE,108,3.1,3.1,43,0.00,,---,0.00,VWS V15.00,2013-06-11 14:27:00,
2013-06-11 10:28:00,82.8,58.0,30.18,NE,56,2.7,3.1,43,0.00,,---,0.00,VWS V15.00,2013-06-11 14:28:00,
2013-06-11 10:29:00,82.8,58.0,30.18,NE,56,2.7,2.7,43,0.00,,---,0.00,VWS V15.00,2013-06-11 14:29:00,
2013-06-11 10:30:00,82.9,58.2,30.18,SE,144,0.0,2.7,43,0.00,,---,0.00,VWS V15.00,2013-06-11 14:30:00,
2013-06-11 10:31:00,83.5,58.0,30.21,SSE,159,0.0,0.0,42,0.00,,---,0.00,VWS V14.01,2013-06-11 14:31:00,
2013-06-11 10:32:00,82.9,58.2,30.18,ENE,66,2.7,4.0,43,0.00,,---,0.00,VWS V15.00,2013-06-11 14:32:00,
2013-06-11 10:33:00,83.1,58.3,30.18,ENE,65,0.0,2.7,43,0.00,,---,0.00,VWS V15.00,2013-06-11 14:33:00,
2013-06-11 10:34:00,83.1,58.3,30.18,ESE,103,3.1,3.1,43,0.00,,---,0.00,VWS V15.00,2013-06-11 14:34:00,
2013-06-11 10:35:00,83.1,59.0,30.18,ESE,103,0.0,3.1,44,0.00,,---,0.00,VWS V15.00,2013-06-11 14:35:00,
2013-06-11 10:36:00,83.3,58.5,30.21,SW,226,0.0,0.0,43,0.00,,---,0.00,VWS V14.01,2013-06-11 14:36:00,
2013-06-11 10:37:00,83.1,59.0,30.18,ESE,103,0.0,0.0,44,0.00,,---,0.00,VWS V15.00,2013-06-11 14:37:00,
2013-06-11 10:38:00,82.9,58.8,30.18,ESE,103,0.0,0.0,44,0.00,,---,0.00,VWS V15.00,2013-06-11 14:38:00,
2013-06-11 10:39:00,82.9,58.8,30.18,ESE,103,0.0,0.0,44,0.00,,---,0.00,VWS V15.00,2013-06-11 14:39:00,
2013-06-11 10:40:00,82.9,58.8,30.18,North,5,0.0,0.0,44,0.00,,---,0.00,VWS V15.00,2013-06-11 14:40:00,
2013-06-11 10:41:00,82.9,56.2,30.21,SE,125,7.6,7.6,40,0.00,,---,0.00,VWS V14.01,2013-06-11 14:41:00,
2013-06-11 10:42:00,82.9,58.8,30.18,SE,125,3.6,3.6,44,0.00,,---,0.00,VWS V15.00,2013-06-11 14:42:00,
2013-06-11 10:43:00,82.9,58.8,30.18,SSE,150,5.4,5.4,44,0.00,,---,0.00,VWS V15.00,2013-06-11 14:43:00,
2013-06-11 10:44:00,82.9,58.8,30.18,ESE,117,5.4,5.8,44,0.00,,---,0.00,VWS V15.00,2013-06-11 14:44:00,
2013-06-11 10:45:00,82.9,58.8,30.18,SE,133,2.7,5.4,44,0.00,,---,0.00,VWS V15.00,2013-06-11 14:45:00,
2013-06-11 10:46:00,82.2,56.9,30.21,SSE,151,5.4,5.4,42,0.00,,---,0.00,VWS V14.01,2013-06-11 14:46:00,
2013-06-11 10:47:00,82.4,57.0,30.18,SE,126,3.1,3.6,42,0.00,,---,0.00,VWS V15.00,2013-06-11 14:47:00,
2013-06-11 10:48:00,82.4,57.0,30.18,East,97,4.0,4.0,42,0.00,,---,0.00,VWS V15.00,2013-06-11 14:48:00,
2013-06-11 10:49:00,82.4,57.0,30.18,East,97,4.0,4.0,42,0.00,,---,0.00,VWS V15.00,2013-06-11 14:49:00,
2013-06-11 10:50:00,82.4,57.0,30.18,SSE,157,4.5,4.5,42,0.00,,---,0.00,VWS V15.00,2013-06-11 14:50:00,
2013-06-11 10:51:00,79.3,63.3,30.21,South,171,4.5,4.5,58,0.00,,---,0.00,VWS V14.01,2013-06-11 14:51:00,
2013-06-11 10:52:00,82.2,57.5,30.18,ESE,114,4.0,4.5,43,0.00,,---,0.00,VWS V15.00,2013-06-11 14:52:00,
2013-06-11 10:53:00,82.2,57.5,30.18,ESE,114,4.0,4.0,43,0.00,,---,0.00,VWS V15.00,2013-06-11 14:53:00,
2013-06-11 10:54:00,82.4,57.7,30.18,SSW,197,3.6,4.0,43,0.00,,---,0.00,VWS V15.00,2013-06-11 14:54:00,
2013-06-11 10:55:00,82.4,57.7,30.18,SSE,165,2.7,3.6,43,0.00,,---,0.00,VWS V15.00,2013-06-11 14:55:00,
2013-06-11 10:56:00,77.4,67.6,30.21,South,181,0.0,0.0,72,0.31,,---,0.31,VWS V14.01,2013-06-11 14:56:00,
2013-06-11 10:57:00,82.4,58.3,30.18,ESE,118,3.1,3.1,44,0.00,,---,0.00,VWS V15.00,2013-06-11 14:57:00,
2013-06-11 10:58:00,82.4,58.3,30.18,ESE,122,4.0,4.0,44,0.00,,---,0.00,VWS V15.00,2013-06-11 14:58:00,
2013-06-11 10:59:00,82.2,58.2,30.18,ESE,107,3.6,4.0,44,0.00,,---,0.00,VWS V15.00,2013-06-11 14:59:00,
2013-06-11 11:00:00,82.2,58.2,30.18,ESE,107,3.6,3.6,44,0.00,,---,0.00,VWS V15.00,2013-06-11 15:00:00,
2013-06-11 11:01:00,77.0,69.6,30.21,South,178,4.0,4.0,78,0.31,,---,0.31,VWS V14.01,2013-06-11 15:01:00,
2013-06-11 11:02:00,82.4,57.7,30.18,ESE,119,2.7,2.7,43,0.00,,---,0.00,VWS V15.00,2013-06-11 15:02:00,
2013-06-11 11:03:00,82.4,57.7,30.18,ESE,105,2.2,3.1,43,0.00,,---,0.00,VWS V15.00,2013-06-11 15:03:00,
2013-06-11 11:04:00,82.4,57.7,30.21,ESE,105,2.2,2.2,43,0.00,,---,0.00,VWS V15.00,2013-06-11 15:04:00,
2013-06-11 11:05:00,82.4,57.7,30.21,ESE,106,0.0,2.2,43,0.00,,---,0.00,VWS V15.00,2013-06-11 15:05:00,
2013-06-11 11:06:00,82.4,57.7,30.21,ESE,117,2.2,2.2,43,0.00,,---,0.00,VWS V15.00,2013-06-11 15:06:00,
2013-06-11 11:07:00,77.0,70.0,30.21,SW,222,0.0,0.0,79,0.51,,---,0.51,VWS V14.01,2013-06-11 15:07:00,
2013-06-11 11:08:00,82.4,57.7,30.21,ESE,114,3.6,3.6,43,0.00,,---,0.00,VWS V15.00,2013-06-11 15:08:00,
2013-06-11 11:09:00,82.4,57.7,30.21,ESE,117,3.6,3.6,43,0.00,,---,0.00,VWS V15.00,2013-06-11 15:09:00,
2013-06-11 11:10:00,82.8,56.7,30.21,SE,138,0.0,3.6,41,0.00,,---,0.00,VWS V15.00,2013-06-11 15:10:00,
2013-06-11 11:11:00,82.8,56.7,30.21,SE,124,4.5,4.5,41,0.00,,---,0.00,VWS V15.00,2013-06-11 15:11:00,
2013-06-11 11:12:00,77.5,70.9,30.21,West,260,0.0,0.0,80,0.55,,---,0.55,VWS V14.01,2013-06-11 15:12:00,
2013-06-11 11:13:00,82.9,56.8,30.21,SE,124,4.5,4.5,41,0.00,,---,0.00,VWS V15.00,2013-06-11 15:13:00,
2013-06-11 11:14:00,83.1,57.0,30.21,SSE,148,2.7,4.5,41,0.00,,---,0.00,VWS V15.00,2013-06-11 15:14:00,
2013-06-11 11:15:00,82.9,56.2,30.21,SE,140,4.9,4.9,40,0.00,,---,0.00,VWS V15.00,2013-06-11 15:15:00,
2013-06-11 11:16:00,83.1,56.3,30.21,SE,124,3.6,4.9,40,0.00,,---,0.00,VWS V15.00,2013-06-11 15:16:00,
2013-06-11 11:17:00,77.7,71.4,30.21,SSE,164,0.0,0.0,81,0.55,,---,0.55,VWS V14.01,2013-06-11 15:17:00,
2013-06-11 11:18:00,83.1,56.3,30.21,ESE,113,4.9,4.9,40,0.00,,---,0.00,VWS V15.00,2013-06-11 15:18:00,
2013-06-11 11:19:00,83.1,56.3,30.21,ESE,123,5.8,5.8,40,0.00,,---,0.00,VWS V15.00,2013-06-11 15:19:00,
2013-06-11 11:20:00,83.1,56.3,30.21,South,173,0.0,5.8,40,0.00,,---,0.00,VWS V15.00,2013-06-11 15:20:00,
2013-06-11 11:21:00,83.1,56.3,30.21,East,84,3.6,3.6,40,0.00,,---,0.00,VWS V15.00,2013-06-11 15:21:00,
2013-06-11 11:22:00,78.4,72.5,30.21,South,178,0.0,0.0,82,0.55,,---,0.55,VWS V14.01,2013-06-11 15:22:00,
2013-06-11 11:23:00,83.1,56.3,30.21,ESE,112,3.1,3.1,40,0.00,,---,0.00,VWS V15.00,2013-06-11 15:23:00,
2013-06-11 11:24:00,83.1,56.3,30.21,ESE,112,3.1,3.1,40,0.00,,---,0.00,VWS V15.00,2013-06-11 15:24:00,
2013-06-11 11:25:00,83.1,56.3,30.21,South,169,4.0,5.4,40,0.00,,---,0.00,VWS V15.00,2013-06-11 15:25:00,
2013-06-11 11:26:00,83.1,56.3,30.21,SE,141,4.0,4.0,40,0.00,,---,0.00,VWS V15.00,2013-06-11 15:26:00,
2013-06-11 11:27:00,79.3,73.7,30.21,SW,224,0.0,0.0,83,0.55,,---,0.55,VWS V14.01,2013-06-11 15:27:00,
2013-06-11 11:28:00,83.3,56.5,30.21,SE,146,0.0,4.0,40,0.00,,---,0.00,VWS V15.00,2013-06-11 15:28:00,
2013-06-11 11:29:00,83.3,57.2,30.21,SE,146,0.0,0.0,41,0.00,,---,0.00,VWS V15.00,2013-06-11 15:29:00,
2013-06-11 11:30:00,83.3,57.2,30.21,SSE,159,0.0,0.0,41,0.00,,---,0.00,VWS V15.00,2013-06-11 15:30:00,
2013-06-11 11:31:00,83.5,58.0,30.21,SSE,159,0.0,0.0,42,0.00,,---,0.00,VWS V15.00,2013-06-11 15:31:00,
2013-06-11 11:32:00,79.7,73.7,30.21,WSW,240,6.7,6.7,82,0.55,,---,0.55,VWS V14.01,2013-06-11 15:32:00,
2013-06-11 11:33:00,83.5,58.0,30.21,SW,225,0.0,0.0,42,0.00,,---,0.00,VWS V15.00,2013-06-11 15:33:00,
2013-06-11 11:34:00,83.5,58.0,30.21,SW,226,0.0,0.0,42,0.00,,---,0.00,VWS V15.00,2013-06-11 15:34:00,
2013-06-11 11:35:00,83.5,58.0,30.21,SW,226,0.0,0.0,42,0.00,,---,0.00,VWS V15.00,2013-06-11 15:35:00,
2013-06-11 11:36:00,83.3,58.5,30.21,SW,226,0.0,0.0,43,0.00,,---,0.00,VWS V15.00,2013-06-11 15:36:00,
2013-06-11 11:37:00,79.9,72.4,30.21,SW,228,2.7,4.0,78,0.55,,---,0.55,VWS V14.01,2013-06-11 15:37:00,
2013-06-11 11:38:00,83.3,57.8,30.21,SW,226,0.0,0.0,42,0.00,,---,0.00,VWS V15.00,2013-06-11 15:38:00,
2013-06-11 11:39:00,82.9,56.2,30.21,SE,125,7.6,7.6,40,0.00,,---,0.00,VWS V15.00,2013-06-11 15:39:00,
2013-06-11 11:40:00,82.9,56.2,30.21,SE,125,7.6,7.6,40,0.00,,---,0.00,VWS V15.00,2013-06-11 15:40:00,
2013-06-11 11:41:00,82.9,56.2,30.21,SE,125,7.6,7.6,40,0.00,,---,0.00,VWS V15.00,2013-06-11 15:41:00,
2013-06-11 11:42:00,79.2,71.3,30.21,SW,229,3.6,3.6,77,0.55,,---,0.55,VWS V14.01,2013-06-11 15:42:00,
2013-06-11 11:43:00,82.2,56.9,30.21,SE,139,5.4,5.4,42,0.00,,---,0.00,VWS V15.00,2013-06-11 15:43:00,
2013-06-11 11:44:00,82.2,56.9,30.21,SE,138,3.6,5.4,42,0.00,,---,0.00,VWS V15.00,2013-06-11 15:44:00,
2013-06-11 11:45:00,82.2,56.9,30.21,SE,144,4.9,6.7,42,0.00,,---,0.00,VWS V15.00,2013-06-11 15:45:00,
2013-06-11 11:46:00,82.2,56.9,30.21,SSE,151,5.4,5.4,42,0.00,,---,0.00,VWS V15.00,2013-06-11 15:46:00,
2013-06-11 11:47:00,77.4,66.8,30.21,WSW,252,2.2,2.2,70,0.55,,---,0.55,VWS V14.01,2013-06-11 15:47:00,
2013-06-11 11:48:00,81.1,59.0,30.21,SSE,151,5.4,5.4,47,0.00,,---,0.00,VWS V15.00,2013-06-11 15:48:00,
2013-06-11 11:49:00,79.3,63.3,30.21,SSE,151,5.4,5.4,58,0.00,,---,0.00,VWS V15.00,2013-06-11 15:49:00,
2013-06-11 11:50:00,79.3,63.3,30.21,South,171,4.5,5.4,58,0.00,,---,0.00,VWS V15.00,2013-06-11 15:50:00,
2013-06-11 11:51:00,79.3,63.3,30.21,South,171,4.5,4.5,58,0.00,,---,0.00,VWS V15.00,2013-06-11 15:51:00,
2013-06-11 11:52:00,77.4,68.4,30.21,WSW,240,0.0,0.0,74,0.24,,---,0.55,VWS V14.01,2013-06-11 15:52:00,
2013-06-11 11:53:00,77.9,66.5,30.21,SSE,162,0.0,4.5,68,0.31,,---,0.31,VWS V15.00,2013-06-11 15:53:00,
2013-06-11 11:54:00,77.9,66.5,30.21,South,181,0.0,0.0,68,0.31,,---,0.31,VWS V15.00,2013-06-11 15:54:00,
2013-06-11 11:55:00,77.9,66.5,30.21,South,181,0.0,0.0,68,0.31,,---,0.31,VWS V15.00,2013-06-11 15:55:00,
2013-06-11 11:56:00,77.9,66.5,30.21,South,181,0.0,0.0,68,0.31,,---,0.31,VWS V15.00,2013-06-11 15:56:00,
2013-06-11 11:57:00,77.5,69.4,30.21,WSW,240,0.0,0.0,76,0.24,,---,0.55,VWS V14.01,2013-06-11 15:57:00,
2013-06-11 11:58:00,77.2,68.7,30.21,South,186,2.7,2.7,75,0.31,,---,0.31,VWS V15.00,2013-06-11 15:58:00,
2013-06-11 11:59:00,77.2,68.7,30.21,South,178,4.0,4.0,75,0.31,,---,0.31,VWS V15.00,2013-06-11 15:59:00,
2013-06-11 12:00:00,77.0,69.2,30.21,South,178,4.0,4.0,77,0.31,,---,0.31,VWS V15.00,2013-06-11 16:00:00,
2013-06-11 12:01:00,77.0,69.2,30.21,South,178,4.0,4.0,77,0.31,,---,0.31,VWS V15.00,2013-06-11 16:01:00,
2013-06-11 12:02:00,77.9,70.1,30.21,WSW,240,0.0,0.0,77,0.24,,---,0.55,VWS V14.01,2013-06-11 16:02:00,
2013-06-11 12:03:00,77.0,70.0,30.21,SW,224,0.0,0.0,79,0.31,,---,0.31,VWS V15.00,2013-06-11 16:03:00,
2013-06-11 12:04:00,77.0,70.0,30.21,SW,222,0.0,0.0,79,0.31,,---,0.31,VWS V15.00,2013-06-11 16:04:00,
2013-06-11 12:05:00,77.0,70.0,30.21,SW,222,0.0,0.0,79,0.31,,---,0.31,VWS V15.00,2013-06-11 16:05:00,
2013-06-11 12:06:00,77.0,70.0,30.21,SW,222,0.0,0.0,79,0.51,,---,0.51,VWS V15.00,2013-06-11 16:06:00,
2013-06-11 12:07:00,77.0,70.0,30.21,SW,222,0.0,0.0,79,0.51,,---,0.51,VWS V15.00,2013-06-11 16:07:00,
2013-06-11 12:08:00,78.6,69.7,30.21,WSW,240,0.0,0.0,74,0.04,,---,0.55,VWS V14.01,2013-06-11 16:08:00,
2013-06-11 12:09:00,77.2,70.5,30.21,SW,220,0.0,0.0,80,0.51,,---,0.51,VWS V15.00,2013-06-11 16:09:00,
2013-06-11 12:10:00,77.2,70.5,30.21,West,260,0.0,0.0,80,0.51,,---,0.51,VWS V15.00,2013-06-11 16:10:00,
2013-06-11 12:11:00,77.4,70.7,30.21,West,260,0.0,0.0,80,0.51,,---,0.51,VWS V15.00,2013-06-11 16:11:00,
2013-06-11 12:12:00,77.5,70.9,30.21,West,260,0.0,0.0,80,0.55,,---,0.55,VWS V15.00,2013-06-11 16:12:00,
2013-06-11 12:13:00,79.5,68.9,30.21,WSW,241,0.0,0.0,70,0.00,,---,0.55,VWS V14.01,2013-06-11 16:13:00,
2013-06-11 12:14:00,77.5,70.9,30.21,South,180,0.0,0.0,80,0.55,,---,0.55,VWS V15.00,2013-06-11 16:14:00,
2013-06-11 12:15:00,77.5,70.9,30.21,SSE,164,0.0,0.0,80,0.55,,---,0.55,VWS V15.00,2013-06-11 16:15:00,
2013-06-11 12:16:00,77.5,70.9,30.21,SSE,164,0.0,0.0,80,0.55,,---,0.55,VWS V15.00,2013-06-11 16:16:00,
2013-06-11 12:17:00,77.7,71.4,30.21,SSE,164,0.0,0.0,81,0.55,,---,0.55,VWS V15.00,2013-06-11 16:17:00,
2013-06-11 12:18:00,80.2,69.6,30.18,WSW,241,0.0,0.0,70,0.00,,---,0.55,VWS V14.01,2013-06-11 16:18:00,
2013-06-11 12:19:00,77.9,71.6,30.21,South,178,0.0,0.0,81,0.55,,---,0.55,VWS V15.00,2013-06-11 16:19:00,
2013-06-11 12:20:00,77.9,71.6,30.21,South,178,0.0,0.0,81,0.55,,---,0.55,VWS V15.00,2013-06-11 16:20:00,
2013-06-11 12:21:00,77.9,71.6,30.21,South,178,0.0,0.0,81,0.55,,---,0.55,VWS V15.00,2013-06-11 16:21:00,
2013-06-11 12:22:00,78.4,72.5,30.21,South,178,0.0,0.0,82,0.55,,---,0.55,VWS V15.00,2013-06-11 16:22:00,
2013-06-11 12:23:00,81.0,68.1,30.18,SW,234,0.0,0.0,65,0.00,,---,0.55,VWS V14.01,2013-06-11 16:23:00,
2013-06-11 12:24:00,79.0,73.0,30.21,South,184,0.0,0.0,82,0.55,,---,0.55,VWS V15.00,2013-06-11 16:24:00,
2013-06-11 12:25:00,79.0,73.0,30.21,WSW,241,0.0,0.0,82,0.55,,---,0.55,VWS V15.00,2013-06-11 16:25:00,
2013-06-11 12:26:00,79.3,73.7,30.21,SW,224,0.0,0.0,83,0.55,,---,0.55,VWS V15.00,2013-06-11 16:26:00,
2013-06-11 12:27:00,79.5,73.9,30.21,SW,229,0.0,0.0,83,0.55,,---,0.55,VWS V15.00,2013-06-11 16:27:00,
2013-06-11 12:28:00,81.5,68.6,30.18,SW,234,0.0,0.0,65,0.00,,---,0.55,VWS V14.01,2013-06-11 16:28:00,
2013-06-11 12:29:00,79.5,73.9,30.21,SW,229,0.0,0.0,83,0.55,,---,0.55,VWS V15.00,2013-06-11 16:29:00,
2013-06-11 12:30:00,79.5,73.9,30.21,WSW,253,4.5,4.5,83,0.55,,---,0.55,VWS V15.00,2013-06-11 16:30:00,
2013-06-11 12:31:00,79.7,73.7,30.21,WSW,246,4.0,4.5,82,0.55,,---,0.55,VWS V15.00,2013-06-11 16:31:00,
2013-06-11 12:32:00,79.7,73.7,30.21,WSW,246,0.0,4.0,82,0.55,,---,0.55,VWS V15.00,2013-06-11 16:32:00,
2013-06-11 12:33:00,82.6,68.7,30.18,SW,216,0.0,0.0,63,0.00,,---,0.55,VWS V14.01,2013-06-11 16:33:00,
2013-06-11 12:34:00,79.7,73.7,30.21,SW,229,0.0,5.8,82,0.55,,---,0.55,VWS V15.00,2013-06-11 16:34:00,
2013-06-11 12:35:00,79.7,73.7,30.21,SW,229,0.0,0.0,82,0.55,,---,0.55,VWS V15.00,2013-06-11 16:35:00,
2013-06-11 12:36:00,79.7,73.7,30.21,SW,229,4.0,4.0,82,0.55,,---,0.55,VWS V15.00,2013-06-11 16:36:00,
2013-06-11 12:37:00,79.9,72.4,30.21,SW,229,4.0,4.0,78,0.55,,---,0.55,VWS V15.00,2013-06-11 16:37:00,
2013-06-11 12:38:00,83.8,66.0,30.18,SSW,199,0.0,0.0,55,0.00,,---,0.55,VWS V14.01,2013-06-11 16:38:00,
2013-06-11 12:39:00,79.9,72.4,30.21,WSW,254,2.2,5.4,78,0.55,,---,0.55,VWS V15.00,2013-06-11 16:39:00,
2013-06-11 12:40:00,79.2,71.3,30.21,WSW,254,0.0,2.2,77,0.55,,---,0.55,VWS V15.00,2013-06-11 16:40:00,
2013-06-11 12:41:00,79.2,71.3,30.24,WSW,241,3.1,5.4,77,0.55,,---,0.55,VWS V15.00,2013-06-11 16:41:00,
2013-06-11 12:42:00,79.2,71.3,30.21,WSW,241,3.1,3.1,77,0.55,,---,0.55,VWS V15.00,2013-06-11 16:42:00,
2013-06-11 12:43:00,85.1,65.0,30.18,WSW,249,4.5,4.5,51,0.00,,---,0.55,VWS V14.01,2013-06-11 16:43:00,
2013-06-11 12:44:00,77.9,67.3,30.21,SW,227,3.1,5.4,70,0.55,,---,0.55,VWS V15.00,2013-06-11 16:44:00,
2013-06-11 12:45:00,77.9,67.3,30.21,WSW,256,0.0,3.1,70,0.55,,---,0.55,VWS V15.00,2013-06-11 16:45:00,
2013-06-11 12:46:00,77.5,67.4,30.21,WSW,256,0.0,0.0,71,0.55,,---,0.55,VWS V15.00,2013-06-11 16:46:00,
2013-06-11 12:47:00,77.4,66.8,30.21,WSW,252,2.2,2.2,70,0.55,,---,0.55,VWS V15.00,2013-06-11 16:47:00,
2013-06-11 12:48:00,86.2,59.0,30.18,West,263,0.0,0.0,40,0.00,,---,0.55,VWS V14.01,2013-06-11 16:48:00,
2013-06-11 12:49:00,77.2,67.1,30.21,WSW,241,2.7,2.7,71,0.55,,---,0.55,VWS V15.00,2013-06-11 16:49:00,
2013-06-11 12:50:00,77.2,67.5,30.21,WSW,240,0.0,2.7,72,0.55,,---,0.55,VWS V15.00,2013-06-11 16:50:00,
2013-06-11 12:51:00,77.2,67.5,30.21,WSW,240,0.0,0.0,72,0.55,,---,0.55,VWS V15.00,2013-06-11 16:51:00,
2013-06-11 12:52:00,77.4,68.4,30.21,WSW,240,0.0,0.0,74,0.55,,---,0.55,VWS V15.00,2013-06-11 16:52:00,
2013-06-11 12:53:00,85.6,59.3,30.18,SSE,166,0.0,0.0,41,0.00,,---,0.55,VWS V14.01,2013-06-11 16:53:00,
2013-06-11 12:54:00,77.4,68.8,30.21,WSW,240,0.0,0.0,75,0.24,,---,0.55,VWS V15.00,2013-06-11 16:54:00,
2013-06-11 12:55:00,77.4,68.8,30.21,WSW,240,0.0,0.0,75,0.24,,---,0.55,VWS V15.00,2013-06-11 16:55:00,
2013-06-11 12:56:00,77.4,68.8,30.21,WSW,240,0.0,0.0,75,0.24,,---,0.55,VWS V15.00,2013-06-11 16:56:00,
2013-06-11 12:57:00,77.4,69.2,30.21,WSW,240,0.0,0.0,76,0.24,,---,0.55,VWS V15.00,2013-06-11 16:57:00,
2013-06-11 12:58:00,85.5,60.4,30.18,SE,135,0.0,0.0,43,0.00,,---,0.55,VWS V14.01,2013-06-11 16:58:00,
2013-06-11 12:59:00,77.5,69.4,30.21,WSW,240,0.0,0.0,76,0.24,,---,0.55,VWS V15.00,2013-06-11 16:59:00,
2013-06-11 13:00:00,77.7,69.6,30.21,WSW,240,0.0,0.0,76,0.24,,---,0.55,VWS V15.00,2013-06-11 17:00:00,
2013-06-11 13:01:00,77.7,69.9,30.21,WSW,240,0.0,0.0,77,0.24,,---,0.55,VWS V15.00,2013-06-11 17:01:00,
2013-06-11 13:02:00,77.9,70.1,30.21,WSW,240,0.0,0.0,77,0.24,,---,0.55,VWS V15.00,2013-06-11 17:02:00,
2013-06-11 13:03:00,85.1,58.1,30.18,SSE,159,0.0,0.0,40,0.00,,---,0.55,VWS V14.01,2013-06-11 17:03:00,
2013-06-11 13:04:00,77.9,70.1,30.21,WSW,240,0.0,0.0,77,0.24,,---,0.55,VWS V15.00,2013-06-11 17:04:00,
2013-06-11 13:05:00,78.4,71.0,30.21,WSW,240,0.0,0.0,78,0.24,,---,0.55,VWS V15.00,2013-06-11 17:05:00,
2013-06-11 13:06:00,78.4,71.0,30.21,WSW,240,0.0,0.0,78,0.24,,---,0.55,VWS V15.00,2013-06-11 17:06:00,
2013-06-11 13:07:00,78.4,71.0,30.21,WSW,240,0.0,0.0,78,0.04,,---,0.55,VWS V15.00,2013-06-11 17:07:00,
2013-06-11 13:08:00,78.8,69.4,30.21,WSW,240,0.0,0.0,73,0.04,,---,0.55,VWS V15.00,2013-06-11 17:08:00,
2013-06-11 13:09:00,85.5,60.4,30.18,SE,142,0.0,0.0,43,0.00,,---,0.55,VWS V14.01,2013-06-11 17:09:00,
2013-06-11 13:10:00,79.0,69.2,30.21,WSW,241,0.0,0.0,72,0.04,,---,0.55,VWS V15.00,2013-06-11 17:10:00,
2013-06-11 13:11:00,79.3,69.1,30.21,WSW,240,0.0,0.0,71,0.04,,---,0.55,VWS V15.00,2013-06-11 17:11:00,
2013-06-11 13:12:00,79.5,68.9,30.21,WSW,240,0.0,0.0,70,0.04,,---,0.55,VWS V15.00,2013-06-11 17:12:00,
2013-06-11 13:13:00,79.5,68.9,30.21,WSW,241,0.0,0.0,70,0.00,,---,0.55,VWS V15.00,2013-06-11 17:13:00,
2013-06-11 13:14:00,86.5,58.7,30.18,SSE,152,0.0,0.0,39,0.00,,---,0.55,VWS V14.01,2013-06-11 17:14:00,
2013-06-11 13:15:00,79.9,69.2,30.21,WSW,240,0.0,0.0,70,0.00,,---,0.55,VWS V15.00,2013-06-11 17:15:00,
2013-06-11 13:16:00,80.2,69.6,30.18,WSW,241,0.0,0.0,70,0.00,,---,0.55,VWS V15.00,2013-06-11 17:16:00,
2013-06-11 13:17:00,80.2,69.6,30.18,WSW,240,0.0,0.0,70,0.00,,---,0.55,VWS V15.00,2013-06-11 17:17:00,
2013-06-11 13:18:00,80.2,69.6,30.18,WSW,241,0.0,0.0,70,0.00,,---,0.55,VWS V15.00,2013-06-11 17:18:00,
2013-06-11 13:19:00,87.6,55.8,30.18,SSE,161,3.1,4.0,34,0.00,,---,0.55,VWS V14.01,2013-06-11 17:19:00,
2013-06-11 13:20:00,80.8,68.4,30.18,SW,234,2.7,2.7,66,0.00,,---,0.55,VWS V15.00,2013-06-11 17:20:00,
2013-06-11 13:21:00,80.8,68.4,30.18,SW,234,0.0,2.7,66,0.00,,---,0.55,VWS V15.00,2013-06-11 17:21:00,
2013-06-11 13:22:00,81.0,68.1,30.18,SW,234,0.0,0.0,65,0.00,,---,0.55,VWS V15.00,2013-06-11 17:22:00,
2013-06-11 13:23:00,81.0,68.1,30.18,SW,234,0.0,0.0,65,0.00,,---,0.55,VWS V15.00,2013-06-11 17:23:00,
2013-06-11 13:24:00,89.1,55.4,30.18,SSE,156,4.5,4.5,32,0.00,,---,0.55,VWS V14.01,2013-06-11 17:24:00,
2013-06-11 13:25:00,81.3,68.4,30.18,SW,234,0.0,0.0,65,0.00,,---,0.55,VWS V15.00,2013-06-11 17:25:00,
2013-06-11 13:26:00,81.5,68.6,30.18,SW,234,0.0,0.0,65,0.00,,---,0.55,VWS V15.00,2013-06-11 17:26:00,
2013-06-11 13:27:00,81.5,68.6,30.18,SW,234,0.0,0.0,65,0.00,,---,0.55,VWS V15.00,2013-06-11 17:27:00,
2013-06-11 13:28:00,81.5,68.6,30.18,SW,234,0.0,0.0,65,0.00,,---,0.55,VWS V15.00,2013-06-11 17:28:00,
2013-06-11 13:29:00,90.3,56.5,30.18,South,171,0.0,3.6,32,0.00,,---,0.55,VWS V14.01,2013-06-11 17:29:00,
2013-06-11 13:30:00,82.0,69.6,30.18,SW,234,0.0,0.0,66,0.00,,---,0.55,VWS V15.00,2013-06-11 17:30:00,
2013-06-11 13:31:00,82.4,69.0,30.18,SW,234,0.0,0.0,64,0.00,,---,0.55,VWS V15.00,2013-06-11 17:31:00,
2013-06-11 13:32:00,82.4,68.6,30.18,SW,216,0.0,0.0,63,0.00,,---,0.55,VWS V15.00,2013-06-11 17:32:00,
2013-06-11 13:33:00,82.6,68.7,30.18,SW,216,0.0,0.0,63,0.00,,---,0.55,VWS V15.00,2013-06-11 17:33:00,
2013-06-11 13:34:00,90.7,54.1,30.18,South,181,0.0,2.2,29,0.00,,---,0.55,VWS V14.01,2013-06-11 17:34:00,
2013-06-11 13:35:00,82.9,67.6,30.18,SSW,199,0.0,0.0,60,0.00,,---,0.55,VWS V15.00,2013-06-11 17:35:00,
2013-06-11 13:36:00,83.3,68.0,30.18,SSW,199,0.0,0.0,60,0.00,,---,0.55,VWS V15.00,2013-06-11 17:36:00,
2013-06-11 13:37:00,83.3,67.0,30.18,SSW,199,0.0,0.0,58,0.00,,---,0.55,VWS V15.00,2013-06-11 17:37:00,
2013-06-11 13:38:00,83.8,66.0,30.18,SSW,199,0.0,0.0,55,0.00,,---,0.55,VWS V15.00,2013-06-11 17:38:00,
2013-06-11 13:39:00,89.8,53.3,30.18,SSE,167,0.0,3.6,29,0.00,,---,0.55,VWS V14.01,2013-06-11 17:39:00,
2013-06-11 13:40:00,84.6,67.2,30.18,SSW,200,0.0,0.0,56,0.00,,---,0.55,VWS V15.00,2013-06-11 17:40:00,
2013-06-11 13:41:00,84.7,65.7,30.18,SSW,203,0.0,0.0,53,0.00,,---,0.55,VWS V15.00,2013-06-11 17:41:00,
2013-06-11 13:42:00,85.1,65.0,30.18,SW,227,2.2,4.0,51,0.00,,---,0.55,VWS V15.00,2013-06-11 17:42:00,
2013-06-11 13:43:00,85.1,65.0,30.18,WSW,249,4.5,4.5,51,0.00,,---,0.55,VWS V15.00,2013-06-11 17:43:00,
2013-06-11 13:44:00,88.9,52.5,30.18,East,100,0.0,4.0,29,0.00,,---,0.55,VWS V14.01,2013-06-11 17:44:00,
2013-06-11 13:45:00,86.0,65.2,30.18,West,281,0.0,4.5,50,0.00,,---,0.55,VWS V15.00,2013-06-11 17:45:00,
2013-06-11 13:46:00,86.0,65.2,30.18,West,260,0.0,0.0,50,0.00,,---,0.55,VWS V15.00,2013-06-11 17:46:00,
2013-06-11 13:47:00,86.2,61.7,30.18,West,259,0.0,0.0,44,0.00,,---,0.55,VWS V15.00,2013-06-11 17:47:00,
2013-06-11 13:48:00,86.2,62.4,30.18,West,259,0.0,0.0,45,0.00,,---,0.55,VWS V15.00,2013-06-11 17:48:00,
2013-06-11 13:49:00,88.9,51.6,30.18,South,176,5.8,5.8,28,0.00,,---,0.55,VWS V14.01,2013-06-11 17:49:00,
2013-06-11 13:50:00,86.0,57.5,30.18,West,264,3.1,3.1,38,0.00,,---,0.55,VWS V15.00,2013-06-11 17:50:00,
2013-06-11 13:51:00,86.0,58.9,30.18,West,264,3.1,3.1,40,0.00,,---,0.55,VWS V15.00,2013-06-11 17:51:00,
2013-06-11 13:52:00,85.8,59.4,30.18,SSE,166,0.0,3.1,41,0.00,,---,0.55,VWS V15.00,2013-06-11 17:52:00,
2013-06-11 13:53:00,85.8,60.1,30.18,SSE,166,0.0,0.0,42,0.00,,---,0.55,VWS V15.00,2013-06-11 17:53:00,
2013-06-11 13:54:00,88.7,51.4,30.18,SW,216,0.0,3.1,28,0.00,,---,0.55,VWS V14.01,2013-06-11 17:54:00,
2013-06-11 13:55:00,85.6,59.3,30.18,SE,135,2.2,4.0,41,0.00,,---,0.55,VWS V15.00,2013-06-11 17:55:00,
2013-06-11 13:56:00,85.5,59.1,30.18,SE,135,0.0,2.2,41,0.00,,---,0.55,VWS V15.00,2013-06-11 17:56:00,
2013-06-11 13:57:00,85.5,60.4,30.18,SE,135,0.0,0.0,43,0.00,,---,0.55,VWS V15.00,2013-06-11 17:57:00,
2013-06-11 13:58:00,85.3,59.6,30.18,SE,135,0.0,0.0,42,0.00,,---,0.55,VWS V15.00,2013-06-11 17:58:00,
2013-06-11 13:59:00,88.3,52.1,30.18,SSW,196,0.0,0.0,29,0.00,,---,0.55,VWS V14.01,2013-06-11 17:59:00,
2013-06-11 14:00:00,85.3,59.6,30.18,SE,135,0.0,0.0,42,0.00,,---,0.55,VWS V15.00,2013-06-11 18:00:00,
2013-06-11 14:01:00,85.3,60.3,30.18,SE,135,0.0,0.0,43,0.00,,---,0.55,VWS V15.00,2013-06-11 18:01:00,
2013-06-11 14:02:00,85.1,58.1,30.18,SSE,158,2.2,3.1,40,0.00,,---,0.55,VWS V15.00,2013-06-11 18:02:00,
2013-06-11 14:03:00,85.1,57.4,30.18,SSE,159,0.0,2.2,39,0.00,,---,0.55,VWS V15.00,2013-06-11 18:03:00,
2013-06-11 14:04:00,88.2,51.0,30.18,SW,217,2.7,4.0,28,0.00,,---,0.55,VWS V14.01,2013-06-11 18:04:00,
2013-06-11 14:05:00,85.3,58.9,30.18,South,181,0.0,0.0,41,0.00,,---,0.55,VWS V15.00,2013-06-11 18:05:00,
2013-06-11 14:06:00,85.3,58.9,30.18,South,181,0.0,0.0,41,0.00,,---,0.55,VWS V15.00,2013-06-11 18:06:00,
2013-06-11 14:07:00,85.5,60.4,30.18,South,181,0.0,0.0,43,0.00,,---,0.55,VWS V15.00,2013-06-11 18:07:00,
2013-06-11 14:08:00,85.5,60.4,30.18,South,181,0.0,0.0,43,0.00,,---,0.55,VWS V15.00,2013-06-11 18:08:00,
2013-06-11 14:09:00,88.2,51.0,30.18,SSW,203,2.2,2.2,28,0.00,,---,0.55,VWS V14.01,2013-06-11 18:09:00,
2013-06-11 14:10:00,85.6,61.2,30.18,SE,142,0.0,0.0,44,0.00,,---,0.55,VWS V15.00,2013-06-11 18:10:00,
2013-06-11 14:11:00,85.8,58.7,30.18,SE,142,0.0,0.0,40,0.00,,---,0.55,VWS V15.00,2013-06-11 18:11:00,
2013-06-11 14:12:00,86.0,59.6,30.18,SSE,150,0.0,0.0,41,0.00,,---,0.55,VWS V15.00,2013-06-11 18:12:00,
2013-06-11 14:13:00,86.4,59.9,30.18,SSE,152,0.0,0.0,41,0.00,,---,0.55,VWS V15.00,2013-06-11 18:13:00,
2013-06-11 14:14:00,88.5,48.2,30.18,SW,221,0.0,0.0,25,0.00,,---,0.00,VWS V14.01,2013-06-11 18:14:00,
2013-06-11 14:15:00,86.7,58.1,30.18,East,93,2.2,2.2,38,0.00,,---,0.55,VWS V15.00,2013-06-11 18:15:00,
2013-06-11 14:16:00,86.9,58.3,30.18,SSE,168,0.0,2.7,38,0.00,,---,0.55,VWS V15.00,2013-06-11 18:16:00,
2013-06-11 14:17:00,86.9,58.3,30.18,South,182,0.0,3.1,38,0.00,,---,0.55,VWS V15.00,2013-06-11 18:17:00,
2013-06-11 14:18:00,87.6,55.8,30.18,South,178,3.1,3.1,34,0.00,,---,0.55,VWS V15.00,2013-06-11 18:18:00,
2013-06-11 14:19:00,88.9,48.5,30.18,SSW,202,0.0,2.7,25,0.00,,---,0.55,VWS V14.01,2013-06-11 18:19:00,
2013-06-11 14:20:00,88.0,56.1,30.18,SSE,161,3.1,3.1,34,0.00,,---,0.55,VWS V15.00,2013-06-11 18:20:00,
2013-06-11 14:21:00,88.0,56.1,30.18,SE,137,3.6,3.6,34,0.00,,---,0.55,VWS V15.00,2013-06-11 18:21:00,
2013-06-11 14:22:00,88.5,55.8,30.18,SSE,161,4.0,4.0,33,0.00,,---,0.55,VWS V15.00,2013-06-11 18:22:00,
2013-06-11 14:23:00,88.9,56.9,30.18,SSE,167,2.2,4.0,34,0.00,,---,0.55,VWS V15.00,2013-06-11 18:23:00,
2013-06-11 14:24:00,88.9,56.9,30.18,South,173,3.6,3.6,34,0.00,,---,0.55,VWS V15.00,2013-06-11 18:24:00,
2013-06-11 14:25:00,89.4,49.0,30.18,South,187,3.1,3.1,25,0.00,,---,0.55,VWS V14.01,2013-06-11 18:25:00,
2013-06-11 14:26:00,89.4,54.8,30.18,ENE,75,3.6,4.0,31,0.00,,---,0.55,VWS V15.00,2013-06-11 18:26:00,
2013-06-11 14:27:00,89.6,53.2,30.18,ESE,117,3.1,5.8,29,0.00,,---,0.55,VWS V15.00,2013-06-11 18:27:00,
2013-06-11 14:28:00,89.6,53.2,30.18,SE,144,3.6,4.0,29,0.00,,---,0.55,VWS V15.00,2013-06-11 18:28:00,
2013-06-11 14:29:00,89.6,53.2,30.18,South,186,3.6,3.6,29,0.00,,---,0.55,VWS V15.00,2013-06-11 18:29:00,
2013-06-11 14:30:00,89.4,45.6,30.15,SSE,162,3.1,3.1,22,0.00,,---,0.55,VWS V14.01,2013-06-11 18:30:00,
2013-06-11 14:31:00,90.3,56.5,30.18,SSE,158,0.0,0.0,32,0.00,,---,0.55,VWS V15.00,2013-06-11 18:31:00,
2013-06-11 14:32:00,90.7,55.9,30.18,SSW,210,0.0,0.0,31,0.00,,---,0.55,VWS V15.00,2013-06-11 18:32:00,
2013-06-11 14:33:00,90.7,54.1,30.18,South,169,4.0,4.0,29,0.00,,---,0.55,VWS V15.00,2013-06-11 18:33:00,
2013-06-11 14:34:00,90.7,54.1,30.18,SE,145,2.2,4.0,29,0.00,,---,0.55,VWS V15.00,2013-06-11 18:34:00,
2013-06-11 14:35:00,89.6,46.9,30.15,South,183,4.0,4.0,23,0.00,,---,0.55,VWS V14.01,2013-06-11 18:35:00,
2013-06-11 14:36:00,90.7,55.0,30.18,SSW,195,2.7,2.7,30,0.00,,---,0.55,VWS V15.00,2013-06-11 18:36:00,
2013-06-11 14:37:00,90.7,54.1,30.18,SSE,166,2.7,2.7,29,0.00,,---,0.55,VWS V15.00,2013-06-11 18:37:00,
2013-06-11 14:38:00,90.1,52.7,30.18,South,185,4.0,4.9,28,0.00,,---,0.55,VWS V15.00,2013-06-11 18:38:00,
2013-06-11 14:39:00,90.0,53.5,30.18,SSE,155,0.0,4.0,29,0.00,,---,0.55,VWS V15.00,2013-06-11 18:39:00,
2013-06-11 14:40:00,90.1,49.6,30.15,SE,145,4.9,4.9,25,0.00,,---,0.55,VWS V14.01,2013-06-11 18:40:00,
2013-06-11 14:41:00,89.6,54.1,30.18,SSE,158,0.0,0.0,30,0.00,,---,0.55,VWS V15.00,2013-06-11 18:41:00,
2013-06-11 14:42:00,89.2,53.8,30.18,SE,133,3.1,3.1,30,0.00,,---,0.55,VWS V15.00,2013-06-11 18:42:00,
2013-06-11 14:43:00,89.2,53.8,30.18,SSE,165,3.6,3.6,30,0.00,,---,0.55,VWS V15.00,2013-06-11 18:43:00,
2013-06-11 14:44:00,88.9,52.5,30.18,South,181,4.0,4.0,29,0.00,,---,0.55,VWS V15.00,2013-06-11 18:44:00,
2013-06-11 14:45:00,90.3,48.7,30.15,South,171,3.6,5.8,24,0.00,,---,0.55,VWS V14.01,2013-06-11 18:45:00,
2013-06-11 14:46:00,88.9,54.4,30.18,SW,219,0.0,0.0,31,0.00,,---,0.55,VWS V15.00,2013-06-11 18:46:00,
2013-06-11 14:47:00,89.1,54.5,30.18,SW,217,0.0,0.0,31,0.00,,---,0.55,VWS V15.00,2013-06-11 18:47:00,
2013-06-11 14:48:00,88.9,53.5,30.18,SSE,150,3.6,3.6,30,0.00,,---,0.55,VWS V15.00,2013-06-11 18:48:00,
2013-06-11 14:49:00,89.1,52.7,30.18,SSE,155,2.7,5.4,29,0.00,,---,0.55,VWS V15.00,2013-06-11 18:49:00,
2013-06-11 14:50:00,91.0,45.7,30.15,SE,144,4.5,8.1,21,0.00,,---,0.55,VWS V14.01,2013-06-11 18:50:00,
2013-06-11 14:51:00,88.9,51.6,30.18,SSE,153,4.9,6.7,28,0.00,,---,0.55,VWS V15.00,2013-06-11 18:51:00,
2013-06-11 14:52:00,88.9,51.6,30.18,South,170,4.0,4.9,28,0.00,,---,0.55,VWS V15.00,2013-06-11 18:52:00,
2013-06-11 14:53:00,88.7,51.4,30.18,SSE,155,4.0,5.8,28,0.00,,---,0.55,VWS V15.00,2013-06-11 18:53:00,
2013-06-11 14:54:00,88.7,51.4,30.18,SW,216,3.1,4.0,28,0.00,,---,0.55,VWS V15.00,2013-06-11 18:54:00,
2013-06-11 14:55:00,90.7,44.1,30.15,SE,132,8.1,8.1,20,0.00,,---,0.55,VWS V14.01,2013-06-11 18:55:00,
2013-06-11 14:56:00,88.5,51.3,30.18,West,259,2.7,2.7,28,0.00,,---,0.55,VWS V15.00,2013-06-11 18:56:00,
2013-06-11 14:57:00,88.5,51.3,30.18,West,262,0.0,2.7,28,0.00,,---,0.55,VWS V15.00,2013-06-11 18:57:00,
2013-06-11 14:58:00,88.5,51.3,30.18,WSW,258,0.0,0.0,28,0.00,,---,0.55,VWS V15.00,2013-06-11 18:58:00,
2013-06-11 14:59:00,88.5,53.2,30.18,WSW,258,0.0,0.0,30,0.00,,---,0.55,VWS V15.00,2013-06-11 18:59:00,
2013-06-11 15:00:00,90.5,45.3,30.15,South,176,7.6,7.6,21,0.00,,---,0.55,VWS V14.01,2013-06-11 19:00:00,
2013-06-11 15:01:00,88.3,52.1,30.18,SW,224,2.7,3.1,29,0.00,,---,0.55,VWS V15.00,2013-06-11 19:01:00,
2013-06-11 15:02:00,88.3,52.1,30.18,SW,216,2.2,2.7,29,0.00,,---,0.55,VWS V15.00,2013-06-11 19:02:00,
2013-06-11 15:03:00,88.3,52.1,30.18,SSE,166,5.8,5.8,29,0.00,,---,0.55,VWS V15.00,2013-06-11 19:03:00,
2013-06-11 15:04:00,88.2,51.0,30.18,ESE,117,3.1,5.8,28,0.00,,---,0.55,VWS V15.00,2013-06-11 19:04:00,
2013-06-11 15:05:00,90.5,44.0,30.15,South,169,4.0,4.0,20,0.00,,---,0.55,VWS V14.01,2013-06-11 19:05:00,
2013-06-11 15:06:00,88.2,51.0,30.18,SSE,152,2.7,2.7,28,0.00,,---,0.55,VWS V15.00,2013-06-11 19:06:00,
2013-06-11 15:07:00,88.3,51.1,30.18,SSW,201,2.2,2.7,28,0.00,,---,0.55,VWS V15.00,2013-06-11 19:07:00,
2013-06-11 15:08:00,88.2,51.0,30.18,SSW,201,2.2,2.2,28,0.00,,---,0.55,VWS V15.00,2013-06-11 19:08:00,
2013-06-11 15:09:00,88.2,51.0,30.18,SSE,153,0.0,2.2,28,0.00,,---,0.55,VWS V15.00,2013-06-11 19:09:00,
2013-06-11 15:10:00,90.7,46.7,30.15,SSE,156,3.6,3.6,22,0.00,,---,0.55,VWS V14.01,2013-06-11 19:10:00,
2013-06-11 15:11:00,88.3,52.1,30.18,WSW,248,0.0,2.2,29,0.00,,---,0.55,VWS V15.00,2013-06-11 19:11:00,
2013-06-11 15:12:00,88.3,52.1,30.18,South,171,0.0,0.0,29,0.00,,---,0.55,VWS V15.00,2013-06-11 19:12:00,
2013-06-11 15:13:00,88.5,51.3,30.18,SW,230,3.6,3.6,28,0.00,,---,0.55,VWS V15.00,2013-06-11 19:13:00,
2013-06-11 15:14:00,88.5,51.3,30.18,SW,221,0.0,3.6,28,0.00,,---,0.55,VWS V15.00,2013-06-11 19:14:00,
2013-06-11 15:15:00,91.4,46.0,30.15,SE,133,4.9,5.4,21,0.00,,---,0.55,VWS V14.01,2013-06-11 19:15:00,
2013-06-11 15:16:00,88.5,48.2,30.18,South,186,3.1,3.1,25,0.00,,---,0.55,VWS V15.00,2013-06-11 19:16:00,
2013-06-11 15:17:00,88.7,47.3,30.18,South,188,2.7,3.6,24,0.00,,---,0.55,VWS V15.00,2013-06-11 19:17:00,
2013-06-11 15:18:00,88.7,50.5,30.18,SSE,153,0.0,2.7,27,0.00,,---,0.55,VWS V15.00,2013-06-11 19:18:00,
2013-06-11 15:19:00,88.7,45.0,30.18,SW,216,2.7,2.7,22,0.00,,---,0.55,VWS V15.00,2013-06-11 19:19:00,
2013-06-11 15:20:00,88.9,48.5,30.18,SSW,202,0.0,2.7,25,0.00,,---,0.55,VWS V15.00,2013-06-11 19:20:00,
2013-06-11 15:21:00,91.8,46.3,30.15,SE,124,4.9,4.9,21,0.00,,---,0.55,VWS V14.01,2013-06-11 19:21:00,
2013-06-11 15:22:00,88.9,46.3,30.18,SSE,153,2.7,2.7,23,0.00,,---,0.55,VWS V15.00,2013-06-11 19:22:00,
2013-06-11 15:23:00,89.1,47.6,30.18,SSE,153,0.0,2.7,24,0.00,,---,0.55,VWS V15.00,2013-06-11 19:23:00,
2013-06-11 15:24:00,89.2,48.8,30.18,South,187,0.0,2.2,25,0.00,,---,0.55,VWS V15.00,2013-06-11 19:24:00,
2013-06-11 15:25:00,89.4,49.0,30.18,South,187,3.1,3.1,25,0.00,,---,0.55,VWS V15.00,2013-06-11 19:25:00,
2013-06-11 15:26:00,92.3,48.0,30.15,SSE,159,2.7,2.7,22,0.00,,---,0.55,VWS V14.01,2013-06-11 19:26:00,
2013-06-11 15:27:00,89.4,46.8,30.15,SSE,154,2.7,2.7,23,0.00,,---,0.55,VWS V15.00,2013-06-11 19:27:00,
2013-06-11 15:28:00,89.4,45.6,30.15,SSE,161,6.3,6.3,22,0.00,,---,0.55,VWS V15.00,2013-06-11 19:28:00,
2013-06-11 15:29:00,89.6,45.8,30.15,SSE,162,3.1,6.3,22,0.00,,---,0.55,VWS V15.00,2013-06-11 19:29:00,
2013-06-11 15:30:00,89.4,45.6,30.15,SSE,162,3.1,3.1,22,0.00,,---,0.55,VWS V15.00,2013-06-11 19:30:00,
2013-06-11 15:31:00,91.6,47.4,30.15,South,179,3.1,3.1,22,0.00,,---,0.55,VWS V14.01,2013-06-11 19:31:00,
2013-06-11 15:32:00,89.4,47.9,30.15,East,86,6.3,6.3,24,0.00,,---,0.55,VWS V15.00,2013-06-11 19:32:00,
2013-06-11 15:33:00,89.6,48.1,30.15,SSE,155,4.9,6.3,24,0.00,,---,0.55,VWS V15.00,2013-06-11 19:33:00,
2013-06-11 15:34:00,89.6,46.9,30.15,South,172,4.0,6.3,23,0.00,,---,0.55,VWS V15.00,2013-06-11 19:34:00,
2013-06-11 15:35:00,89.8,50.4,30.15,ESE,105,4.9,4.9,26,0.00,,---,0.55,VWS V15.00,2013-06-11 19:35:00,
2013-06-11 15:36:00,91.8,48.7,30.15,South,170,3.1,3.1,23,0.00,,---,0.55,VWS V14.01,2013-06-11 19:36:00,
2013-06-11 15:37:00,89.8,49.3,30.15,SSE,156,0.0,2.2,25,0.00,,---,0.55,VWS V15.00,2013-06-11 19:37:00,
2013-06-11 15:38:00,90.0,47.2,30.15,SE,146,0.0,3.1,23,0.00,,---,0.55,VWS V15.00,2013-06-11 19:38:00,
2013-06-11 15:39:00,90.0,47.2,30.15,SE,146,0.0,0.0,23,0.00,,---,0.55,VWS V15.00,2013-06-11 19:39:00,
2013-06-11 15:40:00,90.1,49.6,30.15,SE,145,4.9,4.9,25,0.00,,---,0.55,VWS V15.00,2013-06-11 19:40:00,
2013-06-11 15:41:00,91.8,47.5,30.15,SSW,198,4.0,4.0,22,0.00,,---,0.55,VWS V14.01,2013-06-11 19:41:00,
2013-06-11 15:42:00,90.3,49.8,30.15,ESE,122,11.0,11.0,25,0.00,,---,0.55,VWS V15.00,2013-06-11 19:42:00,
2013-06-11 15:43:00,90.3,48.7,30.15,ESE,111,8.7,11.0,24,0.00,,---,0.55,VWS V15.00,2013-06-11 19:43:00,
2013-06-11 15:44:00,90.3,48.7,30.15,South,183,5.8,8.7,24,0.00,,---,0.55,VWS V15.00,2013-06-11 19:44:00,
2013-06-11 15:45:00,90.3,48.7,30.15,South,171,3.6,5.8,24,0.00,,---,0.55,VWS V15.00,2013-06-11 19:45:00,
2013-06-11 15:46:00,91.8,46.3,30.15,SSE,155,4.9,4.9,21,0.00,,---,0.55,VWS V14.01,2013-06-11 19:46:00,
2013-06-11 15:47:00,90.7,47.8,30.15,SSE,168,3.6,4.0,23,0.00,,---,0.55,VWS V15.00,2013-06-11 19:47:00,
2013-06-11 15:48:00,90.7,47.8,30.15,WSW,239,4.0,4.0,23,0.00,,---,0.55,VWS V15.00,2013-06-11 19:48:00,
2013-06-11 15:49:00,90.7,47.8,30.15,South,179,8.1,8.1,23,0.00,,---,0.55,VWS V15.00,2013-06-11 19:49:00,
2013-06-11 15:50:00,91.0,45.7,30.15,SE,144,4.5,8.1,21,0.00,,---,0.55,VWS V15.00,2013-06-11 19:50:00,
2013-06-11 15:51:00,92.1,49.0,30.15,SSW,194,2.2,2.2,23,0.00,,---,0.55,VWS V14.01,2013-06-11 19:51:00,
2013-06-11 15:52:00,91.0,48.1,30.15,SW,227,4.9,4.9,23,0.00,,---,0.55,VWS V15.00,2013-06-11 19:52:00,
2013-06-11 15:53:00,90.9,45.6,30.15,South,172,5.8,5.8,21,0.00,,---,0.55,VWS V15.00,2013-06-11 19:53:00,
2013-06-11 15:54:00,90.9,45.6,30.15,ESE,114,4.9,5.8,21,0.00,,---,0.55,VWS V15.00,2013-06-11 19:54:00,
2013-06-11 15:55:00,90.9,45.6,30.15,SE,144,4.0,8.3,21,0.00,,---,0.55,VWS V15.00,2013-06-11 19:55:00,
2013-06-11 15:56:00,91.8,47.5,30.15,SE,132,4.0,6.3,22,0.00,,---,0.55,VWS V14.01,2013-06-11 19:56:00,
2013-06-11 15:57:00,90.7,44.1,30.15,SE,131,7.2,8.1,20,0.00,,---,0.55,VWS V15.00,2013-06-11 19:57:00,
2013-06-11 15:58:00,90.5,47.7,30.15,SE,134,4.0,7.6,23,0.00,,---,0.55,VWS V15.00,2013-06-11 19:58:00,
2013-06-11 15:59:00,90.5,46.5,30.15,ESE,104,6.3,6.3,22,0.00,,---,0.55,VWS V15.00,2013-06-11 19:59:00,
2013-06-11 16:01:00,90.1,46.2,30.15,SE,138,4.9,4.9,22,0.00,,---,0.55,VWS V14.01,2013-06-11 20:01:00,
2013-06-11 16:02:00,90.7,45.4,30.15,SSE,162,6.3,7.6,21,0.00,,---,0.55,VWS V15.00,2013-06-11 20:02:00,
2013-06-11 16:03:00,90.5,44.0,30.15,ESE,102,8.3,8.3,20,0.00,,---,0.55,VWS V15.00,2013-06-11 20:03:00,
2013-06-11 16:04:00,90.5,44.0,30.15,SE,133,4.0,8.3,20,0.00,,---,0.55,VWS V15.00,2013-06-11 20:04:00,
2013-06-11 16:05:00,90.5,44.0,30.15,South,169,4.0,4.0,20,0.00,,---,0.55,VWS V15.00,2013-06-11 20:05:00,
2013-06-11 16:06:00,88.5,48.2,30.15,SE,138,5.4,5.4,25,0.00,,---,0.55,VWS V14.01,2013-06-11 20:06:00,
2013-06-11 16:07:00,90.5,44.0,30.15,SSE,155,3.6,5.4,20,0.00,,---,0.55,VWS V15.00,2013-06-11 20:07:00,
2013-06-11 16:08:00,90.3,45.1,30.15,SSE,163,3.1,3.6,21,0.00,,---,0.55,VWS V15.00,2013-06-11 20:08:00,
2013-06-11 16:09:00,90.5,45.3,30.15,SE,143,3.6,3.6,21,0.00,,---,0.55,VWS V15.00,2013-06-11 20:09:00,
2013-06-11 16:10:00,90.7,46.7,30.15,SSE,156,3.6,5.4,22,0.00,,---,0.55,VWS V15.00,2013-06-11 20:10:00,
2013-06-11 16:11:00,90.7,46.7,30.15,SSE,156,3.6,3.6,22,0.00,,---,0.55,VWS V15.00,2013-06-11 20:11:00,
2013-06-11 16:12:00,88.0,49.8,30.15,South,179,5.4,5.4,27,0.00,,---,0.55,VWS V14.01,2013-06-11 20:12:00,
2013-06-11 16:13:00,90.9,48.0,30.15,ESE,120,5.4,6.3,23,0.00,,---,0.55,VWS V15.00,2013-06-11 20:13:00,
2013-06-11 16:14:00,90.9,48.0,30.15,East,80,5.4,5.4,23,0.00,,---,0.55,VWS V15.00,2013-06-11 20:14:00,
2013-06-11 16:15:00,91.2,45.9,30.15,SE,137,5.4,5.4,21,0.00,,---,0.55,VWS V15.00,2013-06-11 20:15:00,
2013-06-11 16:16:00,91.4,46.0,30.15,SE,133,4.9,5.4,21,0.00,,---,0.55,VWS V15.00,2013-06-11 20:16:00,
2013-06-11 16:17:00,88.2,51.0,30.15,ESE,104,5.4,5.4,28,0.00,,---,0.55,VWS V14.01,2013-06-11 20:17:00,
2013-06-11 16:18:00,91.6,49.7,30.15,South,171,2.2,4.0,24,0.00,,---,0.55,VWS V15.00,2013-06-11 20:18:00,
2013-06-11 16:19:00,91.8,48.7,30.15,NW,319,3.6,3.6,23,0.00,,---,0.55,VWS V15.00,2013-06-11 20:19:00,
2013-06-11 16:20:00,91.8,46.3,30.15,SSE,159,3.1,3.6,21,0.00,,---,0.55,VWS V15.00,2013-06-11 20:20:00,
2013-06-11 16:21:00,91.8,46.3,30.15,SE,124,4.9,4.9,21,0.00,,---,0.55,VWS V15.00,2013-06-11 20:21:00,
2013-06-11 16:22:00,88.5,51.3,30.15,East,87,3.6,3.6,28,0.00,,---,0.55,VWS V14.01,2013-06-11 20:22:00,
2013-06-11 16:23:00,91.9,47.7,30.15,SE,141,3.1,4.0,22,0.00,,---,0.55,VWS V15.00,2013-06-11 20:23:00,
2013-06-11 16:24:00,92.1,47.8,30.15,SSE,162,4.0,5.8,22,0.00,,---,0.55,VWS V15.00,2013-06-11 20:24:00,
2013-06-11 16:25:00,92.1,46.6,30.15,SSW,197,2.7,4.0,21,0.00,,---,0.55,VWS V15.00,2013-06-11 20:25:00,
2013-06-11 16:26:00,92.3,48.0,30.15,SSE,159,2.7,2.7,22,0.00,,---,0.55,VWS V15.00,2013-06-11 20:26:00,
2013-06-11 16:27:00,88.5,51.3,30.15,ESE,114,4.0,4.0,28,0.00,,---,0.55,VWS V14.01,2013-06-11 20:27:00,
2013-06-11 16:28:00,91.9,46.5,30.15,South,180,3.1,3.1,21,0.00,,---,0.55,VWS V15.00,2013-06-11 20:28:00,
2013-06-11 16:29:00,91.8,46.3,30.15,SSE,153,4.0,6.3,21,0.00,,---,0.55,VWS V15.00,2013-06-11 20:29:00,
2013-06-11 16:30:00,91.8,47.5,30.15,SW,222,5.4,5.4,22,0.00,,---,0.55,VWS V15.00,2013-06-11 20:30:00,
2013-06-11 16:31:00,91.6,47.4,30.15,South,179,3.1,5.8,22,0.00,,---,0.55,VWS V15.00,2013-06-11 20:31:00,
2013-06-11 16:32:00,88.3,51.1,30.15,SE,128,4.0,6.3,28,0.00,,---,0.55,VWS V14.01,2013-06-11 20:32:00,
2013-06-11 16:33:00,91.6,47.4,30.15,SSW,196,3.1,8.3,22,0.00,,---,0.55,VWS V15.00,2013-06-11 20:33:00,
2013-06-11 16:34:00,91.6,47.4,30.15,ESE,106,2.2,3.1,22,0.00,,---,0.55,VWS V15.00,2013-06-11 20:34:00,
2013-06-11 16:35:00,91.4,44.7,30.15,ENE,76,2.2,3.6,20,0.00,,---,0.55,VWS V15.00,2013-06-11 20:35:00,
2013-06-11 16:36:00,91.8,48.7,30.15,South,170,3.1,3.6,23,0.00,,---,0.55,VWS V15.00,2013-06-11 20:36:00,
2013-06-11 16:37:00,88.2,51.9,30.15,East,90,5.8,5.8,29,0.00,,---,0.55,VWS V14.01,2013-06-11 20:37:00,
2013-06-11 16:38:00,91.8,46.3,30.15,SSE,152,3.1,3.6,21,0.00,,---,0.55,VWS V15.00,2013-06-11 20:38:00,
2013-06-11 16:39:00,91.8,46.3,30.15,East,91,2.7,3.1,21,0.00,,---,0.55,VWS V15.00,2013-06-11 20:39:00,
2013-06-11 16:40:00,91.8,48.7,30.15,South,181,3.1,3.1,23,0.00,,---,0.55,VWS V15.00,2013-06-11 20:40:00,
2013-06-11 16:41:00,91.8,47.5,30.15,SSW,198,4.0,4.0,22,0.00,,---,0.55,VWS V15.00,2013-06-11 20:41:00,
2013-06-11 16:42:00,87.6,51.5,30.12,SE,132,3.6,3.6,29,0.00,,---,0.55,VWS V14.01,2013-06-11 20:42:00,
2013-06-11 16:43:00,91.8,46.3,30.15,SE,141,6.3,6.3,21,0.00,,---,0.55,VWS V15.00,2013-06-11 20:43:00,
2013-06-11 16:44:00,91.9,45.2,30.15,SE,138,3.6,6.3,20,0.00,,---,0.55,VWS V15.00,2013-06-11 20:44:00,
2013-06-11 16:45:00,91.8,46.3,30.15,SSE,168,4.0,5.8,21,0.00,,---,0.55,VWS V15.00,2013-06-11 20:45:00,
2013-06-11 16:46:00,91.8,46.3,30.15,SSE,155,4.9,4.9,21,0.00,,---,0.55,VWS V15.00,2013-06-11 20:46:00,
2013-06-11 16:47:00,87.4,52.2,30.12,ESE,117,3.1,3.1,30,0.00,,---,0.55,VWS V14.01,2013-06-11 20:47:00,
2013-06-11 16:48:00,91.9,51.1,30.15,SE,137,4.0,4.0,25,0.00,,---,0.55,VWS V15.00,2013-06-11 20:48:00,
2013-06-11 16:49:00,91.9,47.7,30.15,East,94,0.0,4.0,22,0.00,,---,0.55,VWS V15.00,2013-06-11 20:49:00,
2013-06-11 16:50:00,91.8,46.3,30.15,South,174,5.8,5.8,21,0.00,,---,0.55,VWS V15.00,2013-06-11 20:50:00,
2013-06-11 16:51:00,92.1,49.0,30.15,SSW,194,2.2,5.8,23,0.00,,---,0.55,VWS V15.00,2013-06-11 20:51:00,
2013-06-11 16:52:00,87.1,51.9,30.12,ESE,120,8.7,8.7,30,0.00,,---,0.55,VWS V14.01,2013-06-11 20:52:00,
2013-06-11 16:53:00,92.1,49.0,30.15,East,92,3.1,5.4,23,0.00,,---,0.55,VWS V15.00,2013-06-11 20:53:00,
2013-06-11 16:54:00,91.9,47.7,30.15,SSE,147,8.3,8.3,22,0.00,,---,0.55,VWS V15.00,2013-06-11 20:54:00,
2013-06-11 16:55:00,91.9,46.5,30.15,SE,125,8.1,8.3,21,0.00,,---,0.55,VWS V15.00,2013-06-11 20:55:00,
2013-06-11 16:56:00,91.9,47.7,30.15,ESE,110,6.3,8.1,22,0.00,,---,0.55,VWS V15.00,2013-06-11 20:56:00,
2013-06-11 16:57:00,86.9,51.8,30.12,ENE,69,5.4,5.4,30,0.00,,---,0.55,VWS V14.01,2013-06-11 20:57:00,
2013-06-11 16:58:00,90.9,46.8,30.15,ENE,68,0.0,3.6,22,0.00,,---,0.55,VWS V15.00,2013-06-11 20:58:00,
2013-06-11 16:59:00,90.5,46.5,30.15,SE,138,4.9,4.9,22,0.00,,---,0.55,VWS V15.00,2013-06-11 20:59:00,
2013-06-11 17:00:00,90.3,46.3,30.15,SE,138,4.9,4.9,22,0.00,,---,0.55,VWS V15.00,2013-06-11 21:00:00,
2013-06-11 17:01:00,90.1,46.2,30.15,SE,138,4.9,4.9,22,0.00,,---,0.55,VWS V15.00,2013-06-11 21:01:00,
2013-06-11 17:02:00,86.9,53.5,30.12,ESE,108,2.7,3.1,32,0.00,,---,0.55,VWS V14.01,2013-06-11 21:02:00,
2013-06-11 17:03:00,89.6,48.1,30.15,East,81,3.6,4.9,24,0.00,,---,0.55,VWS V15.00,2013-06-11 21:03:00,
2013-06-11 17:04:00,88.9,47.5,30.15,East,81,3.6,3.6,24,0.00,,---,0.55,VWS V15.00,2013-06-11 21:04:00,
2013-06-11 17:05:00,88.9,47.5,30.15,SE,130,2.7,3.6,24,0.00,,---,0.55,VWS V15.00,2013-06-11 21:05:00,
2013-06-11 17:06:00,88.5,48.2,30.15,SE,130,2.7,2.7,25,0.00,,---,0.55,VWS V15.00,2013-06-11 21:06:00,
2013-06-11 17:07:00,86.9,51.8,30.12,ESE,122,5.4,5.4,30,0.00,,---,0.55,VWS V14.01,2013-06-11 21:07:00,
2013-06-11 17:08:00,88.2,47.9,30.15,ESE,104,2.7,5.4,25,0.00,,---,0.55,VWS V15.00,2013-06-11 21:08:00,
2013-06-11 17:09:00,88.2,49.0,30.15,ESE,117,3.1,5.8,26,0.00,,---,0.55,VWS V15.00,2013-06-11 21:09:00,
2013-06-11 17:10:00,88.2,49.0,30.15,SE,124,4.0,5.4,26,0.00,,---,0.55,VWS V15.00,2013-06-11 21:10:00,
2013-06-11 17:11:00,88.0,49.8,30.15,South,184,3.1,5.4,27,0.00,,---,0.55,VWS V15.00,2013-06-11 21:11:00,
2013-06-11 17:12:00,86.9,52.7,30.12,SSE,156,4.9,4.9,31,0.00,,---,0.55,VWS V14.01,2013-06-11 21:12:00,
2013-06-11 17:13:00,88.0,49.8,30.15,SSE,156,3.6,5.4,27,0.00,,---,0.55,VWS V15.00,2013-06-11 21:13:00,
2013-06-11 17:14:00,88.0,49.8,30.15,SSE,156,3.6,3.6,27,0.00,,---,0.55,VWS V15.00,2013-06-11 21:14:00,
2013-06-11 17:15:00,88.0,49.8,30.15,South,181,3.6,3.6,27,0.00,,---,0.55,VWS V15.00,2013-06-11 21:15:00,
2013-06-11 17:16:00,88.2,50.0,30.15,SSE,164,5.4,5.4,27,0.00,,---,0.55,VWS V15.00,2013-06-11 21:16:00,
2013-06-11 17:17:00,86.5,52.3,30.12,ENE,64,5.8,6.3,31,0.00,,---,0.55,VWS V14.01,2013-06-11 21:17:00,
2013-06-11 17:18:00,88.2,51.0,30.15,ESE,117,3.1,5.4,28,0.00,,---,0.55,VWS V15.00,2013-06-11 21:18:00,
2013-06-11 17:19:00,88.2,50.0,30.15,ESE,119,4.9,4.9,27,0.00,,---,0.55,VWS V15.00,2013-06-11 21:19:00,
2013-06-11 17:20:00,88.2,50.0,30.15,East,80,2.7,4.9,27,0.00,,---,0.55,VWS V15.00,2013-06-11 21:20:00,
2013-06-11 17:21:00,88.3,51.1,30.15,ESE,103,3.6,3.6,28,0.00,,---,0.55,VWS V15.00,2013-06-11 21:21:00,
2013-06-11 17:22:00,86.5,51.5,30.12,ENE,73,5.4,5.4,30,0.00,,---,0.55,VWS V14.01,2013-06-11 21:22:00,
2013-06-11 17:23:00,88.5,51.3,30.15,East,94,3.6,4.0,28,0.00,,---,0.55,VWS V15.00,2013-06-11 21:23:00,
2013-06-11 17:24:00,88.5,51.3,30.15,ESE,111,5.4,5.4,28,0.00,,---,0.55,VWS V15.00,2013-06-11 21:24:00,
2013-06-11 17:25:00,88.5,51.3,30.15,ESE,111,5.4,5.4,28,0.00,,---,0.55,VWS V15.00,2013-06-11 21:25:00,
2013-06-11 17:26:00,88.5,51.3,30.15,SE,140,3.1,5.8,28,0.00,,---,0.55,VWS V15.00,2013-06-11 21:26:00,
2013-06-11 17:27:00,86.7,52.5,30.12,SE,136,4.9,6.3,31,0.00,,---,0.55,VWS V14.01,2013-06-11 21:27:00,
2013-06-11 17:28:00,88.7,51.4,30.15,ESE,114,4.0,4.0,28,0.00,,---,0.55,VWS V15.00,2013-06-11 21:28:00,
2013-06-11 17:29:00,88.7,51.4,30.15,SE,126,6.3,6.3,28,0.00,,---,0.55,VWS V15.00,2013-06-11 21:29:00,
2013-06-11 17:30:00,88.7,50.5,30.15,East,98,4.0,6.3,27,0.00,,---,0.55,VWS V15.00,2013-06-11 21:30:00,
2013-06-11 17:31:00,88.3,51.1,30.15,ENE,58,5.4,5.4,28,0.00,,---,0.55,VWS V15.00,2013-06-11 21:31:00,
2013-06-11 17:32:00,86.5,51.5,30.12,NE,50,3.6,5.8,30,0.00,,---,0.55,VWS V14.01,2013-06-11 21:32:00,
2013-06-11 17:33:00,88.3,51.1,30.15,ESE,116,4.0,4.0,28,0.00,,---,0.55,VWS V15.00,2013-06-11 21:33:00,
2013-06-11 17:34:00,88.3,51.1,30.15,ESE,118,5.4,5.4,28,0.00,,---,0.55,VWS V15.00,2013-06-11 21:34:00,
2013-06-11 17:35:00,88.3,51.1,30.15,East,95,8.1,8.1,28,0.00,,---,0.55,VWS V15.00,2013-06-11 21:35:00,
2013-06-11 17:36:00,88.2,51.0,30.15,ENE,62,5.8,8.1,28,0.00,,---,0.55,VWS V15.00,2013-06-11 21:36:00,
2013-06-11 17:37:00,86.4,52.2,30.12,ESE,102,5.4,5.4,31,0.00,,---,0.55,VWS V14.01,2013-06-11 21:37:00,
2013-06-11 17:38:00,88.2,51.9,30.15,ESE,104,7.6,7.6,29,0.00,,---,0.55,VWS V15.00,2013-06-11 21:38:00,
2013-06-11 17:39:00,88.0,50.8,30.15,SE,146,5.4,7.6,28,0.00,,---,0.55,VWS V15.00,2013-06-11 21:39:00,
2013-06-11 17:40:00,87.8,51.6,30.15,SE,137,5.4,5.8,29,0.00,,---,0.55,VWS V15.00,2013-06-11 21:40:00,
2013-06-11 17:41:00,87.8,51.6,30.15,East,92,2.7,5.8,29,0.00,,---,0.55,VWS V15.00,2013-06-11 21:41:00,
2013-06-11 17:42:00,86.5,52.3,30.12,ESE,123,5.8,5.8,31,0.00,,---,0.55,VWS V14.01,2013-06-11 21:42:00,
2013-06-11 17:43:00,87.6,52.4,30.12,SE,132,3.6,3.6,30,0.00,,---,0.55,VWS V15.00,2013-06-11 21:43:00,
2013-06-11 17:44:00,87.6,52.4,30.12,SE,135,3.1,3.6,30,0.00,,---,0.55,VWS V15.00,2013-06-11 21:44:00,
2013-06-11 17:45:00,87.6,52.4,30.12,ESE,121,3.1,3.1,30,0.00,,---,0.55,VWS V15.00,2013-06-11 21:45:00,
2013-06-11 17:46:00,87.6,51.5,30.12,ESE,103,3.6,5.4,29,0.00,,---,0.55,VWS V15.00,2013-06-11 21:46:00,
2013-06-11 17:47:00,86.4,51.3,30.12,SE,125,7.2,7.6,30,0.00,,---,0.55,VWS V14.01,2013-06-11 21:47:00,
2013-06-11 17:48:00,87.3,52.1,30.12,East,85,4.9,5.8,30,0.00,,---,0.55,VWS V15.00,2013-06-11 21:48:00,
2013-06-11 17:49:00,87.3,52.1,30.12,SSE,149,4.0,4.9,30,0.00,,---,0.55,VWS V15.00,2013-06-11 21:49:00,
2013-06-11 17:50:00,87.3,52.1,30.12,ESE,113,5.4,5.8,30,0.00,,---,0.55,VWS V15.00,2013-06-11 21:50:00,
2013-06-11 17:51:00,87.1,51.9,30.12,ESE,120,8.7,8.7,30,0.00,,---,0.55,VWS V15.00,2013-06-11 21:51:00,
2013-06-11 17:52:00,86.7,51.6,30.12,East,85,5.8,5.8,30,0.00,,---,0.55,VWS V14.01,2013-06-11 21:52:00,
2013-06-11 17:53:00,87.1,52.8,30.12,ESE,104,4.0,8.7,31,0.00,,---,0.55,VWS V15.00,2013-06-11 21:53:00,
2013-06-11 17:54:00,87.1,51.9,30.12,ESE,123,2.7,4.0,30,0.00,,---,0.55,VWS V15.00,2013-06-11 21:54:00,
2013-06-11 17:55:00,87.1,51.9,30.12,ENE,77,4.9,5.4,30,0.00,,---,0.55,VWS V15.00,2013-06-11 21:55:00,
2013-06-11 17:56:00,87.1,51.9,30.12,ESE,115,4.0,5.4,30,0.00,,---,0.55,VWS V15.00,2013-06-11 21:56:00,
2013-06-11 17:57:00,86.5,51.5,30.12,East,99,2.7,2.7,30,0.00,,---,0.55,VWS V14.01,2013-06-11 21:57:00,
2013-06-11 17:58:00,86.9,51.8,30.12,ESE,107,5.4,5.4,30,0.00,,---,0.55,VWS V15.00,2013-06-11 21:58:00,
2013-06-11 17:59:00,86.9,51.8,30.12,ESE,119,4.5,5.4,30,0.00,,---,0.55,VWS V15.00,2013-06-11 21:59:00,
2013-06-11 18:00:00,86.9,51.8,30.12,South,171,6.3,6.3,30,0.00,,---,0.55,VWS V15.00,2013-06-11 22:00:00,
2013-06-11 18:01:00,86.7,52.5,30.12,East,96,4.0,6.3,31,0.00,,---,0.55,VWS V15.00,2013-06-11 22:01:00,
2013-06-11 18:02:00,85.8,51.7,30.15,SSE,149,3.6,3.6,31,0.00,,---,0.55,VWS V14.01,2013-06-11 22:02:00,
2013-06-11 18:03:00,86.9,53.5,30.12,SSE,153,6.3,6.3,32,0.00,,---,0.55,VWS V15.00,2013-06-11 22:03:00,
2013-06-11 18:04:00,86.9,51.8,30.12,SE,130,4.9,6.3,30,0.00,,---,0.55,VWS V15.00,2013-06-11 22:04:00,
2013-06-11 18:05:00,86.7,52.5,30.12,SE,130,4.9,4.9,31,0.00,,---,0.55,VWS V15.00,2013-06-11 22:05:00,
2013-06-11 18:06:00,86.9,51.8,30.12,East,84,5.8,6.3,30,0.00,,---,0.55,VWS V15.00,2013-06-11 22:06:00,
2013-06-11 18:07:00,86.9,51.8,30.12,East,96,3.6,5.8,30,0.00,,---,0.55,VWS V15.00,2013-06-11 22:07:00,
2013-06-11 18:08:00,85.5,52.3,30.15,SSE,149,3.6,3.6,32,0.00,,---,0.55,VWS V14.01,2013-06-11 22:08:00,
2013-06-11 18:09:00,86.9,51.8,30.12,South,179,6.3,6.3,30,0.00,,---,0.55,VWS V15.00,2013-06-11 22:09:00,
2013-06-11 18:10:00,86.9,51.8,30.12,South,179,6.3,6.3,30,0.00,,---,0.55,VWS V15.00,2013-06-11 22:10:00,
2013-06-11 18:11:00,86.9,51.8,30.12,SSE,156,7.6,7.6,30,0.00,,---,0.55,VWS V15.00,2013-06-11 22:11:00,
2013-06-11 18:12:00,86.9,51.8,30.12,SSE,156,4.9,7.6,30,0.00,,---,0.55,VWS V15.00,2013-06-11 22:12:00,
2013-06-11 18:13:00,85.5,52.3,30.15,SSE,149,3.6,3.6,32,0.00,,---,0.55,VWS V14.01,2013-06-11 22:13:00,
2013-06-11 18:14:00,87.1,52.8,30.12,East,87,4.9,4.9,31,0.00,,---,0.55,VWS V15.00,2013-06-11 22:14:00,
2013-06-11 18:15:00,86.7,52.5,30.12,ESE,120,6.3,7.6,31,0.00,,---,0.55,VWS V15.00,2013-06-11 22:15:00,
2013-06-11 18:16:00,86.9,52.7,30.12,ENE,72,3.6,6.3,31,0.00,,---,0.55,VWS V15.00,2013-06-11 22:16:00,
2013-06-11 18:17:00,86.7,52.5,30.12,East,94,6.3,6.3,31,0.00,,---,0.55,VWS V15.00,2013-06-11 22:17:00,
2013-06-11 18:18:00,84.7,52.5,30.15,SSE,149,3.6,3.6,33,0.00,,---,0.55,VWS V14.01,2013-06-11 22:18:00,
2013-06-11 18:19:00,86.5,52.3,30.12,East,98,5.4,5.8,31,0.00,,---,0.55,VWS V15.00,2013-06-11 22:19:00,
2013-06-11 18:20:00,86.7,52.5,30.12,ENE,60,6.3,6.3,31,0.00,,---,0.55,VWS V15.00,2013-06-11 22:20:00,
2013-06-11 18:21:00,86.5,51.5,30.12,ESE,114,5.4,8.3,30,0.00,,---,0.55,VWS V15.00,2013-06-11 22:21:00,
2013-06-11 18:22:00,86.5,51.5,30.12,ENE,73,5.4,5.4,30,0.00,,---,0.55,VWS V15.00,2013-06-11 22:22:00,
2013-06-11 18:23:00,84.2,55.1,30.15,East,93,4.0,4.0,37,0.00,,---,0.55,VWS V14.01,2013-06-11 22:23:00,
2013-06-11 18:24:00,86.5,51.5,30.12,ESE,113,5.8,6.3,30,0.00,,---,0.55,VWS V15.00,2013-06-11 22:24:00,
2013-06-11 18:25:00,86.5,51.5,30.12,ESE,109,4.0,8.7,30,0.00,,---,0.55,VWS V15.00,2013-06-11 22:25:00,
2013-06-11 18:26:00,86.7,51.6,30.12,ESE,121,5.4,5.4,30,0.00,,---,0.55,VWS V15.00,2013-06-11 22:26:00,
2013-06-11 18:27:00,86.7,52.5,30.12,ENE,76,6.3,6.3,31,0.00,,---,0.55,VWS V15.00,2013-06-11 22:27:00,
2013-06-11 18:28:00,84.0,56.4,30.15,NE,51,5.4,5.4,39,0.00,,---,0.55,VWS V14.01,2013-06-11 22:28:00,
2013-06-11 18:29:00,86.5,52.3,30.12,ENE,64,2.7,2.7,31,0.00,,---,0.55,VWS V15.00,2013-06-11 22:29:00,
2013-06-11 18:30:00,86.5,52.3,30.12,ENE,76,4.9,4.9,31,0.00,,---,0.55,VWS V15.00,2013-06-11 22:30:00,
2013-06-11 18:31:00,86.5,52.3,30.12,ESE,108,3.1,4.9,31,0.00,,---,0.55,VWS V15.00,2013-06-11 22:31:00,
2013-06-11 18:32:00,86.7,51.6,30.12,East,95,5.8,5.8,30,0.00,,---,0.55,VWS V15.00,2013-06-11 22:32:00,
2013-06-11 18:33:00,83.5,54.5,30.15,ENE,64,2.7,2.7,37,0.00,,---,0.55,VWS V14.01,2013-06-11 22:33:00,
2013-06-11 18:34:00,86.5,52.3,30.12,ENE,73,3.6,3.6,31,0.00,,---,0.55,VWS V15.00,2013-06-11 22:34:00,
2013-06-11 18:35:00,86.2,51.2,30.12,ESE,112,8.1,8.1,30,0.00,,---,0.55,VWS V15.00,2013-06-11 22:35:00,
2013-06-11 18:36:00,86.5,52.3,30.12,East,100,3.6,8.1,31,0.00,,---,0.55,VWS V15.00,2013-06-11 22:36:00,
2013-06-11 18:37:00,86.4,52.2,30.12,SE,143,3.6,5.8,31,0.00,,---,0.55,VWS V15.00,2013-06-11 22:37:00,
2013-06-11 18:38:00,83.3,55.1,30.15,East,79,2.7,3.6,38,0.00,,---,0.55,VWS V14.01,2013-06-11 22:38:00,
2013-06-11 18:39:00,86.4,51.3,30.12,ENE,71,3.6,3.6,30,0.00,,---,0.55,VWS V15.00,2013-06-11 22:39:00,
2013-06-11 18:40:00,86.4,52.2,30.12,ESE,108,3.6,3.6,31,0.00,,---,0.55,VWS V15.00,2013-06-11 22:40:00,
2013-06-11 18:42:00,86.4,51.3,30.12,ESE,123,5.8,5.8,30,0.00,,---,0.55,VWS V15.00,2013-06-11 22:42:00,
2013-06-11 18:43:00,83.3,56.5,30.15,East,88,3.1,4.0,40,0.00,,---,0.55,VWS V14.01,2013-06-11 22:43:00,
2013-06-11 18:44:00,86.0,51.0,30.12,East,83,5.8,5.8,30,0.00,,---,0.55,VWS V15.00,2013-06-11 22:44:00,
2013-06-11 18:45:00,86.2,52.9,30.12,SE,139,3.1,5.8,32,0.00,,---,0.55,VWS V15.00,2013-06-11 22:45:00,
2013-06-11 18:46:00,86.4,51.3,30.12,East,85,4.0,6.3,30,0.00,,---,0.55,VWS V15.00,2013-06-11 22:46:00,
2013-06-11 18:47:00,86.4,52.2,30.12,East,94,7.6,7.6,31,0.00,,---,0.55,VWS V15.00,2013-06-11 22:47:00,
2013-06-11 18:48:00,83.1,56.3,30.15,East,90,0.0,0.0,40,0.00,,---,0.55,VWS V14.01,2013-06-11 22:48:00,
2013-06-11 18:49:00,86.5,52.3,30.12,East,90,5.8,7.2,31,0.00,,---,0.55,VWS V15.00,2013-06-11 22:49:00,
2013-06-11 18:50:00,86.5,52.3,30.12,ENE,65,3.1,5.8,31,0.00,,---,0.55,VWS V15.00,2013-06-11 22:50:00,
2013-06-11 18:51:00,86.5,51.5,30.12,ESE,102,4.9,4.9,30,0.00,,---,0.55,VWS V15.00,2013-06-11 22:51:00,
2013-06-11 18:52:00,86.5,51.5,30.12,ESE,102,4.9,4.9,30,0.00,,---,0.55,VWS V15.00,2013-06-11 22:52:00,
2013-06-11 18:53:00,82.9,55.5,30.15,East,100,3.1,3.1,39,0.00,,---,0.55,VWS V14.01,2013-06-11 22:53:00,
2013-06-11 18:54:00,86.5,51.5,30.12,SSE,160,6.3,6.3,30,0.00,,---,0.55,VWS V15.00,2013-06-11 22:54:00,
2013-06-11 18:55:00,86.5,51.5,30.12,East,88,7.6,7.6,30,0.00,,---,0.55,VWS V15.00,2013-06-11 22:55:00,
2013-06-11 18:56:00,86.5,51.5,30.12,SE,134,3.6,7.6,30,0.00,,---,0.55,VWS V15.00,2013-06-11 22:56:00,
2013-06-11 18:57:00,86.5,51.5,30.12,East,99,2.7,3.6,30,0.00,,---,0.55,VWS V15.00,2013-06-11 22:57:00,
2013-06-11 18:58:00,82.9,55.5,30.15,SE,137,2.7,3.6,39,0.00,,---,0.55,VWS V14.01,2013-06-11 22:58:00,
2013-06-11 18:59:00,86.0,51.9,30.12,East,91,5.4,6.3,31,0.00,,---,0.55,VWS V15.00,2013-06-11 22:59:00,
2013-06-11 19:00:00,85.8,51.7,30.15,ESE,104,3.6,5.4,31,0.00,,---,0.55,VWS V15.00,2013-06-11 23:00:00,
2013-06-11 19:01:00,85.8,51.7,30.15,SSE,149,3.6,7.6,31,0.00,,---,0.55,VWS V15.00,2013-06-11 23:01:00,
2013-06-11 19:02:00,85.8,51.7,30.15,SSE,149,3.6,3.6,31,0.00,,---,0.55,VWS V15.00,2013-06-11 23:02:00,
2013-06-11 19:03:00,82.9,55.5,30.15,East,79,3.6,3.6,39,0.00,,---,0.55,VWS V14.01,2013-06-11 23:03:00,
2013-06-11 19:04:00,85.8,51.7,30.15,SSE,149,3.6,3.6,31,0.00,,---,0.55,VWS V15.00,2013-06-11 23:04:00,
2013-06-11 19:05:00,85.8,51.7,30.15,SSE,149,3.6,3.6,31,0.00,,---,0.55,VWS V15.00,2013-06-11 23:05:00,
2013-06-11 19:06:00,85.8,51.7,30.15,SSE,149,3.6,3.6,31,0.00,,---,0.55,VWS V15.00,2013-06-11 23:06:00,
2013-06-11 19:07:00,85.6,52.4,30.15,SSE,149,3.6,3.6,32,0.00,,---,0.55,VWS V15.00,2013-06-11 23:07:00,
2013-06-11 19:08:00,82.8,55.3,30.15,ENE,69,4.9,4.9,39,0.00,,---,0.55,VWS V14.01,2013-06-11 23:08:00,
2013-06-11 19:09:00,85.5,52.3,30.15,SSE,149,3.6,3.6,32,0.00,,---,0.55,VWS V15.00,2013-06-11 23:09:00,
2013-06-11 19:10:00,85.5,52.3,30.15,SSE,149,3.6,3.6,32,0.00,,---,0.55,VWS V15.00,2013-06-11 23:10:00,
2013-06-11 19:11:00,85.5,52.3,30.15,SSE,149,3.6,3.6,32,0.00,,---,0.55,VWS V15.00,2013-06-11 23:11:00,
2013-06-11 19:12:00,85.5,52.3,30.15,SSE,149,3.6,3.6,32,0.00,,---,0.55,VWS V15.00,2013-06-11 23:12:00,
2013-06-11 19:13:00,82.6,55.1,30.15,NE,51,3.6,3.6,39,0.00,,---,0.55,VWS V14.01,2013-06-11 23:13:00,
2013-06-11 19:14:00,85.5,52.3,30.15,SSE,149,3.6,3.6,32,0.00,,---,0.55,VWS V15.00,2013-06-11 23:14:00,
2013-06-11 19:15:00,85.5,52.3,30.15,SSE,149,3.6,3.6,32,0.00,,---,0.55,VWS V15.00,2013-06-11 23:15:00,
2013-06-11 19:16:00,84.7,52.5,30.15,SSE,149,3.6,3.6,33,0.00,,---,0.55,VWS V15.00,2013-06-11 23:16:00,
2013-06-11 19:17:00,84.7,52.5,30.15,SSE,149,3.6,3.6,33,0.00,,---,0.55,VWS V15.00,2013-06-11 23:17:00,
2013-06-11 19:18:00,82.4,55.7,30.15,ENE,73,3.1,3.1,40,0.00,,---,0.55,VWS V14.01,2013-06-11 23:18:00,
2013-06-11 19:19:00,84.4,53.8,30.15,SSE,149,3.6,3.6,35,0.00,,---,0.55,VWS V15.00,2013-06-11 23:19:00,
2013-06-11 19:20:00,84.2,53.6,30.15,NE,49,3.6,3.6,35,0.00,,---,0.55,VWS V15.00,2013-06-11 23:20:00,
2013-06-11 19:21:00,84.2,55.1,30.15,ENE,62,2.7,3.6,37,0.00,,---,0.55,VWS V15.00,2013-06-11 23:21:00,
2013-06-11 19:22:00,84.2,55.1,30.15,ENE,65,3.6,5.4,37,0.00,,---,0.55,VWS V15.00,2013-06-11 23:22:00,
2013-06-11 19:23:00,82.4,55.7,30.15,SSE,154,3.1,3.1,40,0.00,,---,0.55,VWS V14.01,2013-06-11 23:23:00,
2013-06-11 19:24:00,84.0,55.0,30.15,ESE,102,3.6,4.0,37,0.00,,---,0.55,VWS V15.00,2013-06-11 23:24:00,
2013-06-11 19:25:00,84.0,56.4,30.15,ESE,102,3.6,3.6,39,0.00,,---,0.55,VWS V15.00,2013-06-11 23:25:00,
2013-06-11 19:26:00,84.0,56.4,30.15,East,81,2.7,4.9,39,0.00,,---,0.55,VWS V15.00,2013-06-11 23:26:00,
2013-06-11 19:27:00,84.0,56.4,30.15,ENE,65,4.0,4.0,39,0.00,,---,0.55,VWS V15.00,2013-06-11 23:27:00,
2013-06-11 19:28:00,82.2,56.2,30.18,ENE,67,2.7,2.7,41,0.00,,---,0.55,VWS V14.01,2013-06-11 23:28:00,
2013-06-11 19:29:00,83.7,54.7,30.15,ENE,68,4.0,5.4,37,0.00,,---,0.55,VWS V15.00,2013-06-11 23:29:00,
2013-06-11 19:30:00,83.7,54.7,30.15,East,95,3.1,4.0,37,0.00,,---,0.55,VWS V15.00,2013-06-11 23:30:00,
2013-06-11 19:31:00,83.7,54.7,30.15,NE,49,3.6,3.6,37,0.00,,---,0.55,VWS V15.00,2013-06-11 23:31:00,
2013-06-11 19:32:00,83.7,54.7,30.15,ENE,64,2.7,3.6,37,0.00,,---,0.55,VWS V15.00,2013-06-11 23:32:00,
2013-06-11 19:33:00,83.5,54.5,30.15,ENE,64,2.7,2.7,37,0.00,,---,0.55,VWS V15.00,2013-06-11 23:33:00,
2013-06-11 19:34:00,82.2,56.2,30.18,East,87,5.4,6.3,41,0.00,,---,0.55,VWS V14.01,2013-06-11 23:34:00,
2013-06-11 19:35:00,83.5,55.2,30.15,ENE,73,2.7,2.7,38,0.00,,---,0.55,VWS V15.00,2013-06-11 23:35:00,
2013-06-11 19:36:00,83.3,55.1,30.15,East,83,4.0,4.9,38,0.00,,---,0.55,VWS V15.00,2013-06-11 23:36:00,
2013-06-11 19:37:00,83.3,55.8,30.15,ENE,73,2.7,4.0,39,0.00,,---,0.55,VWS V15.00,2013-06-11 23:37:00,
2013-06-11 19:38:00,83.3,55.8,30.15,East,79,2.7,3.6,39,0.00,,---,0.55,VWS V15.00,2013-06-11 23:38:00,
2013-06-11 19:39:00,82.0,56.7,30.18,East,82,3.1,3.1,42,0.00,,---,0.55,VWS V14.01,2013-06-11 23:39:00,
2013-06-11 19:40:00,83.3,55.8,30.15,ENE,76,4.0,4.0,39,0.00,,---,0.55,VWS V15.00,2013-06-11 23:40:00,
2013-06-11 19:41:00,83.3,55.8,30.15,East,92,2.2,4.0,39,0.00,,---,0.55,VWS V15.00,2013-06-11 23:41:00,
2013-06-11 19:42:00,83.3,55.8,30.15,ENE,75,4.0,4.0,39,0.00,,---,0.55,VWS V15.00,2013-06-11 23:42:00,
2013-06-11 19:43:00,83.3,56.5,30.15,East,88,3.1,4.0,40,0.00,,---,0.55,VWS V15.00,2013-06-11 23:43:00,
2013-06-11 19:44:00,82.0,57.4,30.18,ENE,59,3.6,3.6,43,0.00,,---,0.55,VWS V14.01,2013-06-11 23:44:00,
2013-06-11 19:45:00,83.1,56.3,30.15,East,82,0.0,0.0,40,0.00,,---,0.55,VWS V15.00,2013-06-11 23:45:00,
2013-06-11 19:46:00,83.1,55.6,30.15,East,82,0.0,0.0,39,0.00,,---,0.55,VWS V15.00,2013-06-11 23:46:00,
2013-06-11 19:47:00,83.1,55.6,30.15,East,90,0.0,0.0,39,0.00,,---,0.55,VWS V15.00,2013-06-11 23:47:00,
2013-06-11 19:48:00,83.1,56.3,30.15,East,90,0.0,0.0,40,0.00,,---,0.55,VWS V15.00,2013-06-11 23:48:00,
2013-06-11 19:49:00,81.9,57.8,30.18,East,79,2.2,2.2,44,0.00,,---,0.55,VWS V14.01,2013-06-11 23:49:00,
2013-06-11 19:50:00,83.1,55.6,30.15,NE,54,2.7,2.7,39,0.00,,---,0.55,VWS V15.00,2013-06-11 23:50:00,
2013-06-11 19:51:00,83.1,55.6,30.15,ENE,74,2.7,2.7,39,0.00,,---,0.55,VWS V15.00,2013-06-11 23:51:00,
2013-06-11 19:52:00,82.9,55.5,30.15,ENE,70,2.2,4.0,39,0.00,,---,0.55,VWS V15.00,2013-06-11 23:52:00,
2013-06-11 19:53:00,82.9,55.5,30.15,East,100,3.1,3.1,39,0.00,,---,0.55,VWS V15.00,2013-06-11 23:53:00,
2013-06-11 19:54:00,81.9,57.2,30.18,ESE,111,2.2,3.6,43,0.00,,---,0.55,VWS V14.01,2013-06-11 23:54:00,
2013-06-11 19:55:00,82.9,55.5,30.15,ENE,74,2.2,4.0,39,0.00,,---,0.55,VWS V15.00,2013-06-11 23:55:00,
2013-06-11 19:56:00,82.9,56.2,30.15,ENE,70,2.7,2.7,40,0.00,,---,0.55,VWS V15.00,2013-06-11 23:56:00,
2013-06-11 19:57:00,82.9,56.2,30.15,East,92,3.6,3.6,40,0.00,,---,0.55,VWS V15.00,2013-06-11 23:57:00,
2013-06-11 19:58:00,82.9,55.5,30.15,SE,132,3.6,3.6,39,0.00,,---,0.55,VWS V15.00,2013-06-11 23:58:00,
2013-06-11 19:59:00,81.7,57.0,30.18,East,79,2.7,2.7,43,0.00,,---,0.55,VWS V14.01,2013-06-11 23:59:00,
2013-06-11 20:00:00,82.9,56.2,30.15,SE,132,0.0,0.0,40,0.00,,---,0.55,VWS V15.00,2013-06-12 00:00:00,
2013-06-11 20:01:00,82.9,55.5,30.15,SE,132,0.0,0.0,39,0.00,,---,0.55,VWS V15.00,2013-06-12 00:01:00,
2013-06-11 20:02:00,82.9,55.5,30.15,East,93,0.0,3.1,39,0.00,,---,0.55,VWS V15.00,2013-06-12 00:02:00,
2013-06-11 20:03:00,82.9,55.5,30.15,ENE,77,2.7,3.6,39,0.00,,---,0.55,VWS V15.00,2013-06-12 00:03:00,
2013-06-11 20:04:00,81.7,57.7,30.18,ENE,61,2.7,5.4,44,0.00,,---,0.55,VWS V14.01,2013-06-12 00:04:00,
2013-06-11 20:05:00,82.9,55.5,30.15,East,91,4.0,4.0,39,0.00,,---,0.55,VWS V15.00,2013-06-12 00:05:00,
2013-06-11 20:06:00,82.9,55.5,30.15,East,94,2.2,4.0,39,0.00,,---,0.55,VWS V15.00,2013-06-12 00:06:00,
2013-06-11 20:07:00,82.9,55.5,30.15,ENE,74,2.7,5.4,39,0.00,,---,0.55,VWS V15.00,2013-06-12 00:07:00,
2013-06-11 20:08:00,82.8,55.3,30.15,ENE,78,4.9,4.9,39,0.00,,---,0.55,VWS V15.00,2013-06-12 00:08:00,
2013-06-11 20:09:00,81.5,57.5,30.18,East,82,2.7,2.7,44,0.00,,---,0.55,VWS V14.01,2013-06-12 00:09:00,
2013-06-11 20:10:00,82.6,55.1,30.15,ENE,63,3.1,4.9,39,0.00,,---,0.55,VWS V15.00,2013-06-12 00:10:00,
2013-06-11 20:11:00,82.6,55.1,30.15,ENE,72,3.6,4.9,39,0.00,,---,0.55,VWS V15.00,2013-06-12 00:11:00,
2013-06-11 20:12:00,82.6,55.1,30.15,East,101,4.0,4.0,39,0.00,,---,0.55,VWS V15.00,2013-06-12 00:12:00,
2013-06-11 20:13:00,82.6,55.1,30.15,NE,51,3.6,5.4,39,0.00,,---,0.55,VWS V15.00,2013-06-12 00:13:00,
2013-06-11 20:14:00,81.3,58.0,30.18,ENE,60,2.7,2.7,45,0.00,,---,0.55,VWS V14.01,2013-06-12 00:14:00,
2013-06-11 20:15:00,82.6,55.8,30.15,NE,51,3.6,3.6,40,0.00,,---,0.55,VWS V15.00,2013-06-12 00:15:00,
2013-06-11 20:16:00,82.6,55.8,30.15,NE,51,3.6,3.6,40,0.00,,---,0.55,VWS V15.00,2013-06-12 00:16:00,
2013-06-11 20:17:00,82.6,55.8,30.15,SE,129,2.7,3.6,40,0.00,,---,0.55,VWS V15.00,2013-06-12 00:17:00,
2013-06-11 20:18:00,82.6,55.8,30.15,ENE,61,3.1,3.1,40,0.00,,---,0.55,VWS V15.00,2013-06-12 00:18:00,
2013-06-11 20:19:00,81.3,58.6,30.18,East,80,2.7,3.6,46,0.00,,---,0.55,VWS V14.01,2013-06-12 00:19:00,
2013-06-11 20:20:00,82.4,55.7,30.15,ENE,70,2.7,3.1,40,0.00,,---,0.55,VWS V15.00,2013-06-12 00:20:00,
2013-06-11 20:21:00,82.4,55.7,30.15,ENE,70,2.7,2.7,40,0.00,,---,0.55,VWS V15.00,2013-06-12 00:21:00,
2013-06-11 20:22:00,82.4,55.7,30.15,SSE,154,3.1,3.1,40,0.00,,---,0.55,VWS V15.00,2013-06-12 00:22:00,
2013-06-11 20:23:00,82.4,55.7,30.15,SSE,154,3.1,3.1,40,0.00,,---,0.55,VWS V15.00,2013-06-12 00:23:00,
2013-06-11 20:24:00,82.4,55.7,30.15,ESE,117,3.1,3.1,40,0.00,,---,0.55,VWS V15.00,2013-06-12 00:24:00,
2013-06-11 20:25:00,81.1,59.0,30.18,NE,52,3.6,3.6,47,0.00,,---,0.55,VWS V14.01,2013-06-12 00:25:00,
2013-06-11 20:26:00,82.4,55.7,30.15,ESE,115,3.6,4.0,40,0.00,,---,0.55,VWS V15.00,2013-06-12 00:26:00,
2013-06-11 20:27:00,82.4,55.7,30.15,East,91,3.6,3.6,40,0.00,,---,0.55,VWS V15.00,2013-06-12 00:27:00,
2013-06-11 20:28:00,82.2,56.2,30.18,ENE,67,2.7,3.6,41,0.00,,---,0.55,VWS V15.00,2013-06-12 00:28:00,
2013-06-11 20:29:00,82.2,56.2,30.18,ENE,64,3.1,3.1,41,0.00,,---,0.55,VWS V15.00,2013-06-12 00:29:00,
2013-06-11 20:30:00,81.1,59.6,30.15,SE,131,3.6,5.4,48,0.00,,---,0.55,VWS V14.01,2013-06-12 00:30:00,
2013-06-11 20:31:00,82.2,56.9,30.18,ENE,74,3.6,3.6,42,0.00,,---,0.55,VWS V15.00,2013-06-12 00:31:00,
2013-06-11 20:32:00,82.2,56.9,30.18,ENE,74,3.6,3.6,42,0.00,,---,0.55,VWS V15.00,2013-06-12 00:32:00,
2013-06-11 20:33:00,82.2,56.2,30.18,ENE,67,3.6,3.6,41,0.00,,---,0.55,VWS V15.00,2013-06-12 00:33:00,
2013-06-11 20:34:00,82.2,56.2,30.18,East,87,5.4,6.3,41,0.00,,---,0.55,VWS V15.00,2013-06-12 00:34:00,
2013-06-11 20:35:00,81.1,60.2,30.15,East,92,3.6,3.6,49,0.00,,---,0.55,VWS V14.01,2013-06-12 00:35:00,
2013-06-11 20:36:00,82.2,56.9,30.18,East,82,3.1,3.6,42,0.00,,---,0.55,VWS V15.00,2013-06-12 00:36:00,
2013-06-11 20:37:00,82.2,56.9,30.18,East,82,3.1,3.1,42,0.00,,---,0.55,VWS V15.00,2013-06-12 00:37:00,
2013-06-11 20:38:00,82.2,57.5,30.18,East,82,3.1,3.1,43,0.00,,---,0.55,VWS V15.00,2013-06-12 00:38:00,
2013-06-11 20:39:00,82.0,56.7,30.18,East,82,3.1,3.1,42,0.00,,---,0.55,VWS V15.00,2013-06-12 00:39:00,
2013-06-11 20:40:00,81.0,59.4,30.15,SE,142,3.6,3.6,48,0.00,,---,0.55,VWS V14.01,2013-06-12 00:40:00,
2013-06-11 20:41:00,82.0,56.7,30.18,ESE,109,2.7,2.7,42,0.00,,---,0.55,VWS V15.00,2013-06-12 00:41:00,
2013-06-11 20:42:00,82.0,57.4,30.18,East,79,4.5,4.5,43,0.00,,---,0.55,VWS V15.00,2013-06-12 00:42:00,
2013-06-11 20:43:00,82.0,57.4,30.18,ENE,78,3.6,5.4,43,0.00,,---,0.55,VWS V15.00,2013-06-12 00:43:00,
2013-06-11 20:44:00,82.0,57.4,30.18,ENE,59,3.6,3.6,43,0.00,,---,0.55,VWS V15.00,2013-06-12 00:44:00,
2013-06-11 20:45:00,81.0,58.3,30.15,SE,144,4.9,4.9,46,0.00,,---,0.55,VWS V14.01,2013-06-12 00:45:00,
2013-06-11 20:46:00,82.0,57.4,30.18,ESE,112,3.6,3.6,43,0.00,,---,0.55,VWS V15.00,2013-06-12 00:46:00,
2013-06-11 20:47:00,82.0,57.4,30.18,ESE,104,3.6,3.6,43,0.00,,---,0.55,VWS V15.00,2013-06-12 00:47:00,
2013-06-11 20:48:00,81.9,57.8,30.18,ESE,104,3.6,3.6,44,0.00,,---,0.55,VWS V15.00,2013-06-12 00:48:00,
2013-06-11 20:49:00,81.9,57.8,30.18,East,79,2.2,3.6,44,0.00,,---,0.55,VWS V15.00,2013-06-12 00:49:00,
2013-06-11 20:50:00,81.1,59.6,30.15,ESE,110,3.1,3.1,48,0.00,,---,0.55,VWS V14.01,2013-06-12 00:50:00,
2013-06-11 20:51:00,81.9,57.8,30.18,ESE,103,3.6,5.8,44,0.00,,---,0.55,VWS V15.00,2013-06-12 00:51:00,
2013-06-11 20:52:00,81.9,57.2,30.18,ENE,63,3.6,3.6,43,0.00,,---,0.55,VWS V15.00,2013-06-12 00:52:00,
2013-06-11 20:53:00,81.9,57.2,30.18,East,91,3.6,3.6,43,0.00,,---,0.55,VWS V15.00,2013-06-12 00:53:00,
2013-06-11 20:54:00,81.9,57.2,30.18,ESE,111,2.2,3.6,43,0.00,,---,0.55,VWS V15.00,2013-06-12 00:54:00,
2013-06-11 20:55:00,81.0,60.0,30.15,SE,127,4.0,4.0,49,0.00,,---,0.55,VWS V14.01,2013-06-12 00:55:00,
2013-06-11 20:56:00,81.7,57.0,30.18,East,94,4.9,4.9,43,0.00,,---,0.55,VWS V15.00,2013-06-12 00:56:00,
2013-06-11 20:57:00,81.7,57.0,30.18,ESE,103,2.7,4.9,43,0.00,,---,0.55,VWS V15.00,2013-06-12 00:57:00,
2013-06-11 20:58:00,81.7,57.0,30.18,ENE,57,2.7,2.7,43,0.00,,---,0.55,VWS V15.00,2013-06-12 00:58:00,
2013-06-11 20:59:00,81.7,57.0,30.18,East,79,2.7,4.0,43,0.00,,---,0.55,VWS V15.00,2013-06-12 00:59:00,
2013-06-11 21:00:00,81.1,60.8,30.15,NNE,21,2.7,2.7,50,0.00,,---,0.55,VWS V14.01,2013-06-12 01:00:00,
2013-06-11 21:01:00,81.7,57.7,30.18,ENE,64,3.6,3.6,44,0.00,,---,0.55,VWS V15.00,2013-06-12 01:01:00,
2013-06-11 21:02:00,81.7,57.7,30.18,NE,52,3.1,3.6,44,0.00,,---,0.55,VWS V15.00,2013-06-12 01:02:00,
2013-06-11 21:03:00,81.7,57.7,30.18,ESE,102,5.4,5.4,44,0.00,,---,0.55,VWS V15.00,2013-06-12 01:03:00,
2013-06-11 21:04:00,81.7,57.7,30.18,ESE,102,5.4,5.4,44,0.00,,---,0.55,VWS V15.00,2013-06-12 01:04:00,
2013-06-11 21:05:00,81.0,61.2,30.15,SE,141,5.8,5.8,51,0.00,,---,0.55,VWS V14.01,2013-06-12 01:05:00,
2013-06-11 21:06:00,81.7,57.7,30.18,East,88,2.2,4.0,44,0.00,,---,0.55,VWS V15.00,2013-06-12 01:06:00,
2013-06-11 21:07:00,81.7,57.7,30.18,East,88,2.2,2.2,44,0.00,,---,0.55,VWS V15.00,2013-06-12 01:07:00,
2013-06-11 21:08:00,81.5,57.5,30.18,East,92,3.1,3.1,44,0.00,,---,0.55,VWS V15.00,2013-06-12 01:08:00,
2013-06-11 21:09:00,81.5,57.5,30.18,East,82,2.7,4.0,44,0.00,,---,0.55,VWS V15.00,2013-06-12 01:09:00,
2013-06-11 21:10:00,81.0,61.7,30.15,ESE,113,4.0,4.0,52,0.00,,---,0.55,VWS V14.01,2013-06-12 01:10:00,
2013-06-11 21:11:00,81.5,58.1,30.18,ESE,122,2.7,3.6,45,0.00,,---,0.55,VWS V15.00,2013-06-12 01:11:00,
2013-06-11 21:12:00,81.5,58.1,30.18,East,86,3.6,4.9,45,0.00,,---,0.55,VWS V15.00,2013-06-12 01:12:00,
2013-06-11 21:13:00,81.5,58.1,30.18,ESE,102,2.7,3.6,45,0.00,,---,0.55,VWS V15.00,2013-06-12 01:13:00,
2013-06-11 21:14:00,81.5,58.1,30.18,ENE,60,2.7,2.7,45,0.00,,---,0.55,VWS V15.00,2013-06-12 01:14:00,
2013-06-11 21:15:00,80.8,62.1,30.15,East,91,2.7,2.7,53,0.00,,---,0.55,VWS V14.01,2013-06-12 01:15:00,
2013-06-11 21:16:00,81.3,58.0,30.18,East,98,3.6,3.6,45,0.00,,---,0.55,VWS V15.00,2013-06-12 01:16:00,
2013-06-11 21:17:00,81.3,58.0,30.18,East,96,0.0,3.6,45,0.00,,---,0.55,VWS V15.00,2013-06-12 01:17:00,
2013-06-11 21:18:00,81.3,58.0,30.18,East,92,2.2,2.2,45,0.00,,---,0.55,VWS V15.00,2013-06-12 01:18:00,
2013-06-11 21:19:00,81.3,58.6,30.18,ESE,103,3.6,3.6,46,0.00,,---,0.55,VWS V15.00,2013-06-12 01:19:00,
2013-06-11 21:20:00,80.8,62.1,30.15,East,97,2.7,3.1,53,0.00,,---,0.55,VWS V14.01,2013-06-12 01:20:00,
2013-06-11 21:21:00,81.3,58.6,30.18,ESE,123,2.7,2.7,46,0.00,,---,0.55,VWS V15.00,2013-06-12 01:21:00,
2013-06-11 21:22:00,81.1,59.0,30.18,East,95,2.7,2.7,47,0.00,,---,0.55,VWS V15.00,2013-06-12 01:22:00,
2013-06-11 21:23:00,81.1,59.0,30.18,East,95,2.7,2.7,47,0.00,,---,0.55,VWS V15.00,2013-06-12 01:23:00,
2013-06-11 21:24:00,81.1,59.0,30.18,East,82,3.6,3.6,47,0.00,,---,0.55,VWS V15.00,2013-06-12 01:24:00,
2013-06-11 21:25:00,81.1,59.6,30.18,NE,52,3.6,3.6,48,0.00,,---,0.55,VWS V15.00,2013-06-12 01:25:00,
2013-06-11 21:26:00,80.8,62.1,30.15,ESE,114,2.2,4.0,53,0.00,,---,0.55,VWS V14.01,2013-06-12 01:26:00,
2013-06-11 21:27:00,81.1,59.6,30.18,ESE,103,2.7,3.1,48,0.00,,---,0.55,VWS V15.00,2013-06-12 01:27:00,
2013-06-11 21:28:00,81.1,59.6,30.15,SE,131,3.1,3.1,48,0.00,,---,0.55,VWS V15.00,2013-06-12 01:28:00,
2013-06-11 21:29:00,81.1,59.6,30.15,SE,126,5.4,5.4,48,0.00,,---,0.55,VWS V15.00,2013-06-12 01:29:00,
2013-06-11 21:30:00,81.1,59.6,30.15,SE,131,3.6,5.4,48,0.00,,---,0.55,VWS V15.00,2013-06-12 01:30:00,
2013-06-11 21:31:00,80.8,62.6,30.15,ENE,68,4.0,4.0,54,0.00,,---,0.55,VWS V14.01,2013-06-12 01:31:00,
2013-06-11 21:32:00,81.1,60.2,30.15,ESE,110,4.0,5.4,49,0.00,,---,0.55,VWS V15.00,2013-06-12 01:32:00,
2013-06-11 21:33:00,81.1,60.2,30.15,East,97,4.0,4.0,49,0.00,,---,0.55,VWS V15.00,2013-06-12 01:33:00,
2013-06-11 21:34:00,81.1,60.2,30.15,East,79,3.1,4.0,49,0.00,,---,0.55,VWS V15.00,2013-06-12 01:34:00,
2013-06-11 21:35:00,81.1,60.2,30.15,East,92,3.6,3.6,49,0.00,,---,0.55,VWS V15.00,2013-06-12 01:35:00,
2013-06-11 21:36:00,80.8,63.1,30.15,ESE,120,4.0,4.0,55,0.00,,---,0.55,VWS V14.01,2013-06-12 01:36:00,
2013-06-11 21:37:00,81.1,60.2,30.15,East,87,3.6,4.0,49,0.00,,---,0.55,VWS V15.00,2013-06-12 01:37:00,
2013-06-11 21:38:00,81.1,60.2,30.15,East,89,0.0,3.6,49,0.00,,---,0.55,VWS V15.00,2013-06-12 01:38:00,
2013-06-11 21:39:00,81.1,60.2,30.15,SSE,151,2.2,4.0,49,0.00,,---,0.55,VWS V15.00,2013-06-12 01:39:00,
2013-06-11 21:40:00,81.1,60.2,30.15,SE,142,3.6,3.6,49,0.00,,---,0.55,VWS V15.00,2013-06-12 01:40:00,
2013-06-11 21:41:00,80.8,63.1,30.15,SE,126,0.0,0.0,55,0.00,,---,0.55,VWS V14.01,2013-06-12 01:41:00,
2013-06-11 21:42:00,81.0,58.9,30.15,SE,142,3.6,3.6,47,0.00,,---,0.55,VWS V15.00,2013-06-12 01:42:00,
2013-06-11 21:43:00,81.0,58.3,30.15,East,93,6.3,6.3,46,0.00,,---,0.55,VWS V15.00,2013-06-12 01:43:00,
2013-06-11 21:44:00,81.0,58.3,30.15,SE,142,4.0,6.3,46,0.00,,---,0.55,VWS V15.00,2013-06-12 01:44:00,
2013-06-11 21:45:00,81.0,58.3,30.15,SE,144,4.9,4.9,46,0.00,,---,0.55,VWS V15.00,2013-06-12 01:45:00,
2013-06-11 21:46:00,80.8,62.6,30.15,ESE,120,3.1,3.1,54,0.00,,---,0.55,VWS V14.01,2013-06-12 01:46:00,
2013-06-11 21:47:00,81.1,59.0,30.15,ENE,69,4.0,4.0,47,0.00,,---,0.55,VWS V15.00,2013-06-12 01:47:00,
2013-06-11 21:48:00,81.1,59.6,30.15,ESE,108,4.0,4.0,48,0.00,,---,0.55,VWS V15.00,2013-06-12 01:48:00,
2013-06-11 21:49:00,81.1,59.6,30.15,ESE,110,3.1,4.0,48,0.00,,---,0.55,VWS V15.00,2013-06-12 01:49:00,
2013-06-11 21:50:00,81.1,59.6,30.15,ESE,110,3.1,3.1,48,0.00,,---,0.55,VWS V15.00,2013-06-12 01:50:00,
2013-06-11 21:51:00,80.8,62.6,30.15,SE,129,4.9,4.9,54,0.00,,---,0.55,VWS V14.01,2013-06-12 01:51:00,
2013-06-11 21:52:00,81.0,59.4,30.15,ENE,68,3.6,5.8,48,0.00,,---,0.55,VWS V15.00,2013-06-12 01:52:00,
2013-06-11 21:53:00,81.0,60.0,30.15,ESE,102,2.2,4.0,49,0.00,,---,0.55,VWS V15.00,2013-06-12 01:53:00,
2013-06-11 21:54:00,81.0,60.0,30.15,ENE,64,7.6,7.6,49,0.00,,---,0.55,VWS V15.00,2013-06-12 01:54:00,
2013-06-11 21:55:00,81.0,60.0,30.15,SE,127,4.0,7.6,49,0.00,,---,0.55,VWS V15.00,2013-06-12 01:55:00,
2013-06-11 21:56:00,81.0,62.2,30.15,SE,126,4.9,6.3,53,0.00,,---,0.55,VWS V14.01,2013-06-12 01:56:00,
2013-06-11 21:57:00,81.1,60.8,30.15,East,85,2.7,2.7,50,0.00,,---,0.55,VWS V15.00,2013-06-12 01:57:00,
2013-06-11 21:58:00,81.1,60.8,30.15,East,85,2.7,2.7,50,0.00,,---,0.55,VWS V15.00,2013-06-12 01:58:00,
2013-06-11 21:59:00,81.1,60.8,30.15,East,89,2.2,2.7,50,0.00,,---,0.55,VWS V15.00,2013-06-12 01:59:00,
2013-06-11 22:00:00,81.1,60.8,30.15,ESE,105,2.7,4.0,50,0.00,,---,0.55,VWS V15.00,2013-06-12 02:00:00,
2013-06-11 22:01:00,81.1,60.8,30.15,SSE,168,5.4,5.4,50,0.00,,---,0.55,VWS V14.01,2013-06-12 02:01:00,
2013-06-11 22:02:00,81.0,61.2,30.15,SE,133,3.6,5.4,51,0.00,,---,0.55,VWS V15.00,2013-06-12 02:02:00,
2013-06-11 22:03:00,81.0,61.2,30.15,ENE,72,3.1,3.6,51,0.00,,---,0.55,VWS V15.00,2013-06-12 02:03:00,
2013-06-11 22:04:00,81.0,61.2,30.15,SSE,149,4.0,4.0,51,0.00,,---,0.55,VWS V15.00,2013-06-12 02:04:00,
2013-06-11 22:05:00,81.0,61.2,30.15,East,80,2.2,4.0,51,0.00,,---,0.55,VWS V15.00,2013-06-12 02:05:00,
2013-06-11 22:06:00,81.0,61.2,30.15,East,90,3.1,5.8,51,0.00,,---,0.55,VWS V15.00,2013-06-12 02:06:00,
2013-06-11 22:07:00,81.1,60.2,30.15,SE,135,4.0,4.0,49,0.00,,---,0.55,VWS V14.01,2013-06-12 02:07:00,
2013-06-11 22:08:00,81.0,61.2,30.15,ENE,69,2.7,2.7,51,0.00,,---,0.55,VWS V15.00,2013-06-12 02:08:00,
2013-06-11 22:09:00,81.0,61.2,30.15,East,93,3.1,3.6,51,0.00,,---,0.55,VWS V15.00,2013-06-12 02:09:00,
2013-06-11 22:10:00,81.0,61.7,30.15,ESE,117,3.6,3.6,52,0.00,,---,0.55,VWS V15.00,2013-06-12 02:10:00,
2013-06-11 22:11:00,81.0,61.7,30.15,ENE,73,3.6,4.0,52,0.00,,---,0.55,VWS V15.00,2013-06-12 02:11:00,
2013-06-11 22:12:00,81.1,59.6,30.15,SE,143,6.3,6.3,48,0.00,,---,0.55,VWS V14.01,2013-06-12 02:12:00,
2013-06-11 22:13:00,80.8,62.1,30.15,ESE,105,2.7,4.0,53,0.00,,---,0.55,VWS V15.00,2013-06-12 02:13:00,
2013-06-11 22:14:00,80.8,62.1,30.15,ESE,102,3.6,4.0,53,0.00,,---,0.55,VWS V15.00,2013-06-12 02:14:00,
2013-06-11 22:15:00,80.8,62.1,30.15,East,91,2.7,3.6,53,0.00,,---,0.55,VWS V15.00,2013-06-12 02:15:00,
2013-06-11 22:16:00,80.8,62.1,30.15,ESE,104,4.0,4.0,53,0.00,,---,0.55,VWS V15.00,2013-06-12 02:16:00,
2013-06-11 22:17:00,81.1,59.6,30.15,SE,135,5.4,5.4,48,0.00,,---,0.55,VWS V14.01,2013-06-12 02:17:00,
2013-06-11 22:18:00,80.8,62.1,30.15,SE,138,4.9,4.9,53,0.00,,---,0.55,VWS V15.00,2013-06-12 02:18:00,
2013-06-11 22:19:00,80.8,62.1,30.15,ENE,76,4.0,4.9,53,0.00,,---,0.55,VWS V15.00,2013-06-12 02:19:00,
2013-06-11 22:20:00,80.8,62.6,30.15,ENE,74,3.1,4.0,54,0.00,,---,0.55,VWS V15.00,2013-06-12 02:20:00,
2013-06-11 22:21:00,80.8,62.1,30.15,East,94,3.6,3.6,53,0.00,,---,0.55,VWS V15.00,2013-06-12 02:21:00,
2013-06-11 22:22:00,81.1,59.6,30.15,ESE,120,3.1,3.1,48,0.00,,---,0.55,VWS V14.01,2013-06-12 02:22:00,
2013-06-11 22:23:00,80.8,62.1,30.15,East,95,2.7,3.6,53,0.00,,---,0.55,VWS V15.00,2013-06-12 02:23:00,
2013-06-11 22:24:00,80.8,62.1,30.15,ESE,120,3.6,3.6,53,0.00,,---,0.55,VWS V15.00,2013-06-12 02:24:00,
2013-06-11 22:25:00,80.8,62.1,30.15,ESE,117,3.1,3.6,53,0.00,,---,0.55,VWS V15.00,2013-06-12 02:25:00,
2013-06-11 22:26:00,80.8,62.1,30.15,ESE,114,2.2,4.0,53,0.00,,---,0.55,VWS V15.00,2013-06-12 02:26:00,
2013-06-11 22:27:00,81.1,59.6,30.15,SE,139,3.6,3.6,48,0.00,,---,0.55,VWS V14.01,2013-06-12 02:27:00,
2013-06-11 22:28:00,80.8,62.1,30.15,ESE,105,0.0,2.2,53,0.00,,---,0.55,VWS V15.00,2013-06-12 02:28:00,
2013-06-11 22:29:00,80.8,62.6,30.15,ESE,119,5.8,5.8,54,0.00,,---,0.55,VWS V15.00,2013-06-12 02:29:00,
2013-06-11 22:30:00,80.8,62.6,30.15,ENE,57,4.0,5.8,54,0.00,,---,0.55,VWS V15.00,2013-06-12 02:30:00,
2013-06-11 22:31:00,80.8,62.6,30.15,SE,130,3.1,4.0,54,0.00,,---,0.55,VWS V15.00,2013-06-12 02:31:00,
2013-06-11 22:32:00,81.1,59.6,30.15,SE,141,2.7,3.6,48,0.00,,---,0.55,VWS V14.01,2013-06-12 02:32:00,
2013-06-11 22:33:00,80.8,62.6,30.15,East,99,4.0,4.0,54,0.00,,---,0.55,VWS V15.00,2013-06-12 02:33:00,
2013-06-11 22:34:00,80.8,62.6,30.15,ESE,111,4.0,4.0,54,0.00,,---,0.55,VWS V15.00,2013-06-12 02:34:00,
2013-06-11 22:35:00,80.8,62.6,30.15,ESE,120,4.0,4.0,54,0.00,,---,0.55,VWS V15.00,2013-06-12 02:35:00,
2013-06-11 22:36:00,80.8,62.6,30.15,ESE,120,4.0,4.0,54,0.00,,---,0.55,VWS V15.00,2013-06-12 02:36:00,
2013-06-11 22:37:00,81.1,60.2,30.15,ESE,117,2.7,5.8,49,0.00,,---,0.55,VWS V14.01,2013-06-12 02:37:00,
2013-06-11 22:38:00,80.8,63.1,30.15,ESE,118,3.1,4.0,55,0.00,,---,0.55,VWS V15.00,2013-06-12 02:38:00,
2013-06-11 22:39:00,80.8,63.1,30.15,SE,138,2.2,3.1,55,0.00,,---,0.55,VWS V15.00,2013-06-12 02:39:00,
2013-06-11 22:40:00,80.8,63.1,30.15,ESE,107,3.6,3.6,55,0.00,,---,0.55,VWS V15.00,2013-06-12 02:40:00,
2013-06-11 22:41:00,80.8,63.1,30.15,SE,126,0.0,3.6,55,0.00,,---,0.55,VWS V15.00,2013-06-12 02:41:00,
2013-06-11 22:42:00,81.1,59.6,30.15,SE,126,5.4,5.8,48,0.00,,---,0.55,VWS V14.01,2013-06-12 02:42:00,
2013-06-11 22:43:00,80.8,63.1,30.15,East,92,2.7,2.7,55,0.00,,---,0.55,VWS V15.00,2013-06-12 02:43:00,
2013-06-11 22:44:00,80.8,63.1,30.15,SE,125,5.8,5.8,55,0.00,,---,0.55,VWS V15.00,2013-06-12 02:44:00,
2013-06-11 22:46:00,80.8,62.6,30.15,ESE,120,3.1,4.0,54,0.00,,---,0.55,VWS V15.00,2013-06-12 02:46:00,
2013-06-11 22:47:00,81.1,59.0,30.15,SE,135,5.8,5.8,47,0.00,,---,0.55,VWS V14.01,2013-06-12 02:47:00,
2013-06-11 22:48:00,81.0,62.8,30.15,ESE,112,3.1,3.1,54,0.00,,---,0.55,VWS V15.00,2013-06-12 02:48:00,
2013-06-11 22:49:00,81.0,62.8,30.15,SE,137,0.0,3.1,54,0.00,,---,0.55,VWS V15.00,2013-06-12 02:49:00,
2013-06-11 22:50:00,80.8,62.6,30.15,ESE,121,3.1,3.1,54,0.00,,---,0.55,VWS V15.00,2013-06-12 02:50:00,
2013-06-11 22:51:00,80.8,62.6,30.15,SE,129,4.9,4.9,54,0.00,,---,0.55,VWS V15.00,2013-06-12 02:51:00,
2013-06-11 22:52:00,81.1,59.6,30.15,ESE,116,5.4,5.4,48,0.00,,---,0.55,VWS V14.01,2013-06-12 02:52:00,
2013-06-11 22:53:00,80.8,62.6,30.15,SSE,149,6.3,6.3,54,0.00,,---,0.55,VWS V15.00,2013-06-12 02:53:00,
2013-06-11 22:54:00,81.0,62.8,30.15,East,100,0.0,6.3,54,0.00,,---,0.55,VWS V15.00,2013-06-12 02:54:00,
2013-06-11 22:55:00,81.0,62.8,30.15,South,177,4.0,4.0,54,0.00,,---,0.55,VWS V15.00,2013-06-12 02:55:00,
2013-06-11 22:56:00,81.0,62.2,30.15,SE,145,5.8,5.8,53,0.00,,---,0.55,VWS V15.00,2013-06-12 02:56:00,
2013-06-11 22:57:00,81.1,59.6,30.15,SE,145,0.0,4.9,48,0.00,,---,0.55,VWS V14.01,2013-06-12 02:57:00,
2013-06-11 22:58:00,81.0,61.7,30.15,SE,136,5.4,5.4,52,0.00,,---,0.55,VWS V15.00,2013-06-12 02:58:00,
2013-06-11 22:59:00,81.1,61.9,30.15,ESE,119,4.0,7.2,52,0.00,,---,0.55,VWS V15.00,2013-06-12 02:59:00,
2013-06-11 23:00:00,81.1,61.9,30.15,ESE,120,4.0,4.0,52,0.00,,---,0.55,VWS V15.00,2013-06-12 03:00:00,
2013-06-11 23:01:00,81.1,60.8,30.15,SE,142,5.4,6.7,50,0.00,,---,0.55,VWS V15.00,2013-06-12 03:01:00,
2013-06-11 23:02:00,81.0,58.9,30.15,SSE,162,4.0,4.0,47,0.00,,---,0.55,VWS V14.01,2013-06-12 03:02:00,
2013-06-11 23:03:00,81.1,60.8,30.15,ESE,108,5.4,5.4,50,0.00,,---,0.55,VWS V15.00,2013-06-12 03:03:00,
2013-06-11 23:04:00,81.1,60.8,30.15,SSE,150,2.7,6.3,50,0.00,,---,0.55,VWS V15.00,2013-06-12 03:04:00,
2013-06-11 23:05:00,81.1,60.2,30.15,SE,127,2.7,2.7,49,0.00,,---,0.55,VWS V15.00,2013-06-12 03:05:00,
2013-06-11 23:06:00,81.1,60.2,30.15,SE,135,4.0,4.9,49,0.00,,---,0.55,VWS V15.00,2013-06-12 03:06:00,
2013-06-11 23:07:00,81.1,60.2,30.15,SE,135,4.0,4.0,49,0.00,,---,0.55,VWS V15.00,2013-06-12 03:07:00,
2013-06-11 23:08:00,81.0,58.9,30.15,SE,130,5.8,5.8,47,0.00,,---,0.55,VWS V14.01,2013-06-12 03:08:00,
2013-06-11 23:09:00,81.1,59.6,30.15,SE,126,5.8,5.8,48,0.00,,---,0.55,VWS V15.00,2013-06-12 03:09:00,
2013-06-11 23:10:00,81.1,59.6,30.15,ESE,123,3.6,5.8,48,0.00,,---,0.55,VWS V15.00,2013-06-12 03:10:00,
2013-06-11 23:11:00,81.1,59.6,30.15,SE,136,5.8,5.8,48,0.00,,---,0.55,VWS V15.00,2013-06-12 03:11:00,
2013-06-11 23:12:00,81.1,59.6,30.15,SE,143,6.3,6.3,48,0.00,,---,0.55,VWS V15.00,2013-06-12 03:12:00,
2013-06-11 23:13:00,81.1,58.4,30.15,SSE,148,4.0,4.0,46,0.00,,---,0.55,VWS V14.01,2013-06-12 03:13:00,
2013-06-11 23:14:00,81.1,59.6,30.15,SE,137,3.6,3.6,48,0.00,,---,0.55,VWS V15.00,2013-06-12 03:14:00,
2013-06-11 23:15:00,81.1,59.6,30.15,SE,144,4.0,4.9,48,0.00,,---,0.55,VWS V15.00,2013-06-12 03:15:00,
2013-06-11 23:16:00,81.1,59.6,30.15,SE,136,5.4,5.4,48,0.00,,---,0.55,VWS V15.00,2013-06-12 03:16:00,
2013-06-11 23:17:00,81.1,59.6,30.15,SE,135,5.4,5.4,48,0.00,,---,0.55,VWS V15.00,2013-06-12 03:17:00,
2013-06-11 23:18:00,81.0,57.6,30.15,SE,140,3.6,3.6,45,0.00,,---,0.55,VWS V14.01,2013-06-12 03:18:00,
2013-06-11 23:19:00,81.1,60.2,30.15,South,176,3.1,3.1,49,0.00,,---,0.55,VWS V15.00,2013-06-12 03:19:00,
2013-06-11 23:20:00,81.1,60.2,30.15,SE,144,6.3,6.3,49,0.00,,---,0.55,VWS V15.00,2013-06-12 03:20:00,
2013-06-11 23:21:00,81.1,59.6,30.15,SE,134,8.1,8.1,48,0.00,,---,0.55,VWS V15.00,2013-06-12 03:21:00,
2013-06-11 23:22:00,81.1,59.6,30.15,ESE,120,3.1,8.1,48,0.00,,---,0.55,VWS V15.00,2013-06-12 03:22:00,
2013-06-11 23:23:00,81.0,57.6,30.15,ESE,119,4.9,6.3,45,0.00,,---,0.55,VWS V14.01,2013-06-12 03:23:00,
2013-06-11 23:24:00,81.1,59.6,30.15,ESE,119,4.0,5.4,48,0.00,,---,0.55,VWS V15.00,2013-06-12 03:24:00,
2013-06-11 23:25:00,81.3,59.8,30.15,SE,139,2.7,4.0,48,0.00,,---,0.55,VWS V15.00,2013-06-12 03:25:00,
2013-06-11 23:26:00,81.3,59.8,30.15,South,174,4.9,4.9,48,0.00,,---,0.55,VWS V15.00,2013-06-12 03:26:00,
2013-06-11 23:27:00,81.1,59.6,30.15,SE,143,3.1,4.9,48,0.00,,---,0.55,VWS V15.00,2013-06-12 03:27:00,
2013-06-11 23:28:00,81.0,58.3,30.15,SE,146,3.6,6.3,46,0.00,,---,0.55,VWS V14.01,2013-06-12 03:28:00,
2013-06-11 23:29:00,81.1,59.6,30.15,ESE,112,4.0,4.9,48,0.00,,---,0.55,VWS V15.00,2013-06-12 03:29:00,
2013-06-11 23:30:00,81.1,59.6,30.15,SE,131,6.3,6.3,48,0.00,,---,0.55,VWS V15.00,2013-06-12 03:30:00,
2013-06-11 23:31:00,81.1,59.6,30.15,SSE,150,3.6,6.3,48,0.00,,---,0.55,VWS V15.00,2013-06-12 03:31:00,
2013-06-11 23:32:00,81.1,59.6,30.15,SSE,150,3.6,3.6,48,0.00,,---,0.55,VWS V15.00,2013-06-12 03:32:00,
2013-06-11 23:33:00,81.0,58.9,30.15,ESE,119,3.1,3.1,47,0.00,,---,0.55,VWS V14.01,2013-06-12 03:33:00,
2013-06-11 23:34:00,81.1,60.2,30.15,SE,137,3.1,3.1,49,0.00,,---,0.55,VWS V15.00,2013-06-12 03:34:00,
2013-06-11 23:35:00,81.1,60.2,30.15,SE,131,2.7,3.6,49,0.00,,---,0.55,VWS V15.00,2013-06-12 03:35:00,
2013-06-11 23:36:00,81.1,60.2,30.15,SE,145,3.1,3.1,49,0.00,,---,0.55,VWS V15.00,2013-06-12 03:36:00,
2013-06-11 23:37:00,81.1,60.2,30.15,ESE,116,5.8,5.8,49,0.00,,---,0.55,VWS V15.00,2013-06-12 03:37:00,
2013-06-11 23:38:00,80.8,59.3,30.15,SE,128,4.5,4.5,48,0.00,,---,0.55,VWS V14.01,2013-06-12 03:38:00,
2013-06-11 23:39:00,81.1,60.2,30.15,SE,132,2.7,4.0,49,0.00,,---,0.55,VWS V15.00,2013-06-12 03:39:00,
2013-06-11 23:40:00,81.1,60.2,30.15,SE,137,4.9,4.9,49,0.00,,---,0.55,VWS V15.00,2013-06-12 03:40:00,
2013-06-11 23:41:00,81.1,59.6,30.15,SE,133,4.5,4.9,48,0.00,,---,0.55,VWS V15.00,2013-06-12 03:41:00,
2013-06-11 23:42:00,81.1,59.6,30.15,SE,132,5.8,5.8,48,0.00,,---,0.55,VWS V15.00,2013-06-12 03:42:00,
2013-06-11 23:43:00,80.8,59.3,30.15,SE,145,3.6,3.6,48,0.00,,---,0.55,VWS V14.01,2013-06-12 03:43:00,
2013-06-11 23:44:00,81.1,59.6,30.15,ESE,103,3.1,3.1,48,0.00,,---,0.55,VWS V15.00,2013-06-12 03:44:00,
2013-06-11 23:45:00,81.1,59.6,30.15,SE,131,4.0,4.0,48,0.00,,---,0.55,VWS V15.00,2013-06-12 03:45:00,
2013-06-11 23:46:00,81.1,59.6,30.15,SSE,148,3.1,4.0,48,0.00,,---,0.55,VWS V15.00,2013-06-12 03:46:00,
2013-06-11 23:47:00,81.1,59.0,30.15,ESE,115,4.0,4.5,47,0.00,,---,0.55,VWS V15.00,2013-06-12 03:47:00,
2013-06-11 23:48:00,81.1,59.0,30.15,SE,144,4.9,5.8,47,0.00,,---,0.55,VWS V15.00,2013-06-12 03:48:00,
2013-06-11 23:49:00,80.6,59.7,30.15,East,97,0.0,0.0,49,0.00,,---,0.55,VWS V14.01,2013-06-12 03:49:00,
2013-06-11 23:50:00,81.1,59.0,30.15,South,185,3.1,3.6,47,0.00,,---,0.55,VWS V15.00,2013-06-12 03:50:00,
2013-06-11 23:51:00,81.1,59.0,30.15,SSE,163,3.1,3.1,47,0.00,,---,0.55,VWS V15.00,2013-06-12 03:51:00,
2013-06-11 23:52:00,81.1,59.0,30.15,ESE,118,4.9,4.9,47,0.00,,---,0.55,VWS V15.00,2013-06-12 03:52:00,
2013-06-11 23:53:00,81.1,59.6,30.15,ESE,114,6.3,6.3,48,0.00,,---,0.55,VWS V15.00,2013-06-12 03:53:00,
2013-06-11 23:54:00,80.4,60.7,30.15,ESE,108,3.6,3.6,51,0.00,,---,0.55,VWS V14.01,2013-06-12 03:54:00,
2013-06-11 23:55:00,81.1,59.6,30.15,East,86,2.2,5.4,48,0.00,,---,0.55,VWS V15.00,2013-06-12 03:55:00,
2013-06-11 23:56:00,81.1,59.6,30.15,SE,142,3.6,3.6,48,0.00,,---,0.55,VWS V15.00,2013-06-12 03:56:00,
2013-06-11 23:57:00,81.1,59.6,30.15,SSE,155,4.9,4.9,48,0.00,,---,0.55,VWS V15.00,2013-06-12 03:57:00,
2013-06-11 23:58:00,81.1,59.6,30.15,SE,145,0.0,4.9,48,0.00,,---,0.55,VWS V15.00,2013-06-12 03:58:00,
2013-06-11 23:59:00,80.2,61.0,30.15,SE,129,0.0,0.0,52,0.00,,---,0.55,VWS V14.01,2013-06-12 03:59:00,